﻿<?xml version="1.0" encoding="utf-8"?><gpx creator="Garmin Desktop App" version="1.1" xsi:schemaLocation="http://www.topografix.com/GPX/1/1 http://www.topografix.com/GPX/1/1/gpx.xsd http://www.garmin.com/xmlschemas/WaypointExtension/v1 http://www8.garmin.com/xmlschemas/WaypointExtensionv1.xsd http://www.garmin.com/xmlschemas/TrackPointExtension/v1 http://www.garmin.com/xmlschemas/TrackPointExtensionv1.xsd http://www.garmin.com/xmlschemas/GpxExtensions/v3 http://www8.garmin.com/xmlschemas/GpxExtensionsv3.xsd http://www.garmin.com/xmlschemas/ActivityExtension/v1 http://www8.garmin.com/xmlschemas/ActivityExtensionv1.xsd http://www.garmin.com/xmlschemas/AdventuresExtensions/v1 http://www8.garmin.com/xmlschemas/AdventuresExtensionv1.xsd http://www.garmin.com/xmlschemas/PressureExtension/v1 http://www.garmin.com/xmlschemas/PressureExtensionv1.xsd http://www.garmin.com/xmlschemas/TripExtensions/v1 http://www.garmin.com/xmlschemas/TripExtensionsv1.xsd" xmlns="http://www.topografix.com/GPX/1/1" xmlns:xsi="http://www.w3.org/2001/XMLSchema-instance" xmlns:wptx1="http://www.garmin.com/xmlschemas/WaypointExtension/v1" xmlns:gpxtrx="http://www.garmin.com/xmlschemas/GpxExtensions/v3" xmlns:gpxtpx="http://www.garmin.com/xmlschemas/TrackPointExtension/v1" xmlns:gpxx="http://www.garmin.com/xmlschemas/GpxExtensions/v3" xmlns:trp="http://www.garmin.com/xmlschemas/TripExtensions/v1" xmlns:adv="http://www.garmin.com/xmlschemas/AdventuresExtensions/v1" xmlns:prs="http://www.garmin.com/xmlschemas/PressureExtension/v1">

  <metadata>
    <link href="http://www.garmin.com">
      <text>Garmin International</text>
    </link>
    <time>2013-04-08T15:41:05Z</time>
    <bounds maxlat="46.249322164803743" maxlon="8.259028913453221" minlat="46.221967823803425" minlon="8.193217562511563" />
  </metadata>

  <trk>
    <name>s-domenico-rif-crosta-maulone2013-04-07</name>
    <extensions>
      <gpxx:TrackExtension>
        <gpxx:DisplayColor>Yellow</gpxx:DisplayColor>
      </gpxx:TrackExtension>
    </extensions>
    <trkseg>
      <trkpt lat="46.249322164803743" lon="8.193217562511563">
        <ele>1417.5999999999999</ele>
        <time>2013-04-07T07:08:14Z</time>
      </trkpt>
      <trkpt lat="46.249307580292225" lon="8.193236757069826">
        <ele>1418.5599999999999</ele>
        <time>2013-04-07T07:08:16Z</time>
      </trkpt>
      <trkpt lat="46.249283188953996" lon="8.193389810621738">
        <ele>1417.5999999999999</ele>
        <time>2013-04-07T07:08:33Z</time>
      </trkpt>
      <trkpt lat="46.249283691868186" lon="8.193410681560636">
        <ele>1417.5999999999999</ele>
        <time>2013-04-07T07:08:35Z</time>
      </trkpt>
      <trkpt lat="46.249217474833131" lon="8.193642608821392">
        <ele>1416.1600000000001</ele>
        <time>2013-04-07T07:08:53Z</time>
      </trkpt>
      <trkpt lat="46.249185623601079" lon="8.193740928545594">
        <ele>1416.1600000000001</ele>
        <time>2013-04-07T07:09:01Z</time>
      </trkpt>
      <trkpt lat="46.249146480113268" lon="8.193949637934566">
        <ele>1415.6800000000001</ele>
        <time>2013-04-07T07:09:17Z</time>
      </trkpt>
      <trkpt lat="46.249169027432799" lon="8.194163125008345">
        <ele>1416.1600000000001</ele>
        <time>2013-04-07T07:09:31Z</time>
      </trkpt>
      <trkpt lat="46.249186461791396" lon="8.194249626249075">
        <ele>1416.1600000000001</ele>
        <time>2013-04-07T07:09:38Z</time>
      </trkpt>
      <trkpt lat="46.249215630814433" lon="8.194369152188301">
        <ele>1415.6800000000001</ele>
        <time>2013-04-07T07:09:52Z</time>
      </trkpt>
      <trkpt lat="46.249211020767689" lon="8.194474680349231">
        <ele>1416.1600000000001</ele>
        <time>2013-04-07T07:09:59Z</time>
      </trkpt>
      <trkpt lat="46.249217055737972" lon="8.194624213501811">
        <ele>1419.52</ele>
        <time>2013-04-07T07:10:10Z</time>
      </trkpt>
      <trkpt lat="46.249226946383715" lon="8.19475413300097">
        <ele>1420</ele>
        <time>2013-04-07T07:10:22Z</time>
      </trkpt>
      <trkpt lat="46.24914413318038" lon="8.194985976442695">
        <ele>1419.04</ele>
        <time>2013-04-07T07:10:37Z</time>
      </trkpt>
      <trkpt lat="46.249062828719616" lon="8.195177670568228">
        <ele>1418.5599999999999</ele>
        <time>2013-04-07T07:10:51Z</time>
      </trkpt>
      <trkpt lat="46.249053021892905" lon="8.195221088826656">
        <ele>1418.0799999999999</ele>
        <time>2013-04-07T07:10:56Z</time>
      </trkpt>
      <trkpt lat="46.249014129862189" lon="8.195387721061707">
        <ele>1420</ele>
        <time>2013-04-07T07:11:11Z</time>
      </trkpt>
      <trkpt lat="46.249018991366029" lon="8.195507917553186">
        <ele>1423.8499999999999</ele>
        <time>2013-04-07T07:11:24Z</time>
      </trkpt>
      <trkpt lat="46.248972555622458" lon="8.195703886449337">
        <ele>1421.9300000000001</ele>
        <time>2013-04-07T07:11:38Z</time>
      </trkpt>
      <trkpt lat="46.248902399092913" lon="8.195890635251999">
        <ele>1420.49</ele>
        <time>2013-04-07T07:11:53Z</time>
      </trkpt>
      <trkpt lat="46.248873732984066" lon="8.195982920005918">
        <ele>1421.45</ele>
        <time>2013-04-07T07:12:02Z</time>
      </trkpt>
      <trkpt lat="46.248859651386738" lon="8.196034636348486">
        <ele>1420.49</ele>
        <time>2013-04-07T07:12:15Z</time>
      </trkpt>
      <trkpt lat="46.248825369402766" lon="8.19624007679522">
        <ele>1419.04</ele>
        <time>2013-04-07T07:12:27Z</time>
      </trkpt>
      <trkpt lat="46.248739957809448" lon="8.196487342938781">
        <ele>1419.04</ele>
        <time>2013-04-07T07:12:41Z</time>
      </trkpt>
      <trkpt lat="46.248695533722639" lon="8.196624051779509">
        <ele>1418.5599999999999</ele>
        <time>2013-04-07T07:12:50Z</time>
      </trkpt>
      <trkpt lat="46.248647337779403" lon="8.196755899116397">
        <ele>1417.1199999999999</ele>
        <time>2013-04-07T07:12:58Z</time>
      </trkpt>
      <trkpt lat="46.248588245362043" lon="8.196992939338088">
        <ele>1416.6400000000001</ele>
        <time>2013-04-07T07:13:14Z</time>
      </trkpt>
      <trkpt lat="46.24856754206121" lon="8.197204750031233">
        <ele>1415.2</ele>
        <time>2013-04-07T07:13:30Z</time>
      </trkpt>
      <trkpt lat="46.2485714815557" lon="8.197423852980137">
        <ele>1415.2</ele>
        <time>2013-04-07T07:13:46Z</time>
      </trkpt>
      <trkpt lat="46.248544910922647" lon="8.197522591799498">
        <ele>1416.1600000000001</ele>
        <time>2013-04-07T07:13:53Z</time>
      </trkpt>
      <trkpt lat="46.24852554872632" lon="8.197691487148404">
        <ele>1418.0799999999999</ele>
        <time>2013-04-07T07:14:07Z</time>
      </trkpt>
      <trkpt lat="46.248510712757707" lon="8.197764493525028">
        <ele>1419.04</ele>
        <time>2013-04-07T07:14:12Z</time>
      </trkpt>
      <trkpt lat="46.248466791585088" lon="8.197903381660581">
        <ele>1422.4100000000001</ele>
        <time>2013-04-07T07:14:26Z</time>
      </trkpt>
      <trkpt lat="46.248418847098947" lon="8.198006981983781">
        <ele>1424.8099999999999</ele>
        <time>2013-04-07T07:14:40Z</time>
      </trkpt>
      <trkpt lat="46.248365622013807" lon="8.198080910369754">
        <ele>1427.21</ele>
        <time>2013-04-07T07:14:55Z</time>
      </trkpt>
      <trkpt lat="46.248355060815811" lon="8.198110833764076">
        <ele>1427.7</ele>
        <time>2013-04-07T07:14:57Z</time>
      </trkpt>
      <trkpt lat="46.248269146308303" lon="8.198271682485938">
        <ele>1427.7</ele>
        <time>2013-04-07T07:15:13Z</time>
      </trkpt>
      <trkpt lat="46.248211143538356" lon="8.198413252830505">
        <ele>1429.6199999999999</ele>
        <time>2013-04-07T07:15:28Z</time>
      </trkpt>
      <trkpt lat="46.248189434409142" lon="8.198450803756714">
        <ele>1430.5799999999999</ele>
        <time>2013-04-07T07:15:45Z</time>
      </trkpt>
      <trkpt lat="46.248179543763399" lon="8.198509979993105">
        <ele>1431.54</ele>
        <time>2013-04-07T07:16:05Z</time>
      </trkpt>
      <trkpt lat="46.248208712786436" lon="8.198691448196769">
        <ele>1432.5</ele>
        <time>2013-04-07T07:16:20Z</time>
      </trkpt>
      <trkpt lat="46.248191362246871" lon="8.198855062946677">
        <ele>1432.5</ele>
        <time>2013-04-07T07:16:35Z</time>
      </trkpt>
      <trkpt lat="46.248190859332681" lon="8.198984814807773">
        <ele>1432.98</ele>
        <time>2013-04-07T07:16:47Z</time>
      </trkpt>
      <trkpt lat="46.248210556805134" lon="8.199157565832138">
        <ele>1432.5</ele>
        <time>2013-04-07T07:17:00Z</time>
      </trkpt>
      <trkpt lat="46.248266212642193" lon="8.199244486168027">
        <ele>1430.5799999999999</ele>
        <time>2013-04-07T07:17:12Z</time>
      </trkpt>
      <trkpt lat="46.248304937034845" lon="8.199309781193733">
        <ele>1429.6199999999999</ele>
        <time>2013-04-07T07:17:19Z</time>
      </trkpt>
      <trkpt lat="46.248266212642193" lon="8.199480185285211">
        <ele>1428.1800000000001</ele>
        <time>2013-04-07T07:17:32Z</time>
      </trkpt>
      <trkpt lat="46.248185914009809" lon="8.199533829465509">
        <ele>1429.1400000000001</ele>
        <time>2013-04-07T07:17:45Z</time>
      </trkpt>
      <trkpt lat="46.248171916231513" lon="8.199601471424103">
        <ele>1431.0599999999999</ele>
        <time>2013-04-07T07:17:59Z</time>
      </trkpt>
      <trkpt lat="46.248180381953716" lon="8.19959694519639">
        <ele>1431.0599999999999</ele>
        <time>2013-04-07T07:18:19Z</time>
      </trkpt>
      <trkpt lat="46.248122965916991" lon="8.199599040672183">
        <ele>1431.0599999999999</ele>
        <time>2013-04-07T07:18:40Z</time>
      </trkpt>
      <trkpt lat="46.248139226809144" lon="8.199605997651815">
        <ele>1431.0599999999999</ele>
        <time>2013-04-07T07:18:59Z</time>
      </trkpt>
      <trkpt lat="46.248145345598459" lon="8.199590826407075">
        <ele>1430.5799999999999</ele>
        <time>2013-04-07T07:19:19Z</time>
      </trkpt>
      <trkpt lat="46.248181136325002" lon="8.199738515540958">
        <ele>1431.0599999999999</ele>
        <time>2013-04-07T07:19:31Z</time>
      </trkpt>
      <trkpt lat="46.24811852350831" lon="8.199950074777007">
        <ele>1431.0599999999999</ele>
        <time>2013-04-07T07:19:45Z</time>
      </trkpt>
      <trkpt lat="46.248074937611818" lon="8.200127771124244">
        <ele>1430.5799999999999</ele>
        <time>2013-04-07T07:19:59Z</time>
      </trkpt>
      <trkpt lat="46.248057084158063" lon="8.200302198529244">
        <ele>1429.6199999999999</ele>
        <time>2013-04-07T07:20:14Z</time>
      </trkpt>
      <trkpt lat="46.248054150491953" lon="8.200363134965301">
        <ele>1429.6199999999999</ele>
        <time>2013-04-07T07:20:18Z</time>
      </trkpt>
      <trkpt lat="46.248052977025509" lon="8.200552482157946">
        <ele>1430.0999999999999</ele>
        <time>2013-04-07T07:20:32Z</time>
      </trkpt>
      <trkpt lat="46.248020371422172" lon="8.200705954805017">
        <ele>1430.0999999999999</ele>
        <time>2013-04-07T07:20:45Z</time>
      </trkpt>
      <trkpt lat="46.247941330075264" lon="8.200877029448748">
        <ele>1430.5799999999999</ele>
        <time>2013-04-07T07:20:58Z</time>
      </trkpt>
      <trkpt lat="46.247886596247554" lon="8.200936708599329">
        <ele>1432.02</ele>
        <time>2013-04-07T07:21:10Z</time>
      </trkpt>
      <trkpt lat="46.247800514101982" lon="8.201020695269108">
        <ele>1433.46</ele>
        <time>2013-04-07T07:21:24Z</time>
      </trkpt>
      <trkpt lat="46.247718958184123" lon="8.201181208714843">
        <ele>1433.46</ele>
        <time>2013-04-07T07:21:41Z</time>
      </trkpt>
      <trkpt lat="46.247698422521353" lon="8.201351528987289">
        <ele>1432.5</ele>
        <time>2013-04-07T07:21:56Z</time>
      </trkpt>
      <trkpt lat="46.247662547975779" lon="8.201457057148218">
        <ele>1433.46</ele>
        <time>2013-04-07T07:22:08Z</time>
      </trkpt>
      <trkpt lat="46.247640000656247" lon="8.201627125963569">
        <ele>1434.4200000000001</ele>
        <time>2013-04-07T07:22:24Z</time>
      </trkpt>
      <trkpt lat="46.247596917673945" lon="8.201822508126497">
        <ele>1433.46</ele>
        <time>2013-04-07T07:22:39Z</time>
      </trkpt>
      <trkpt lat="46.2476113345474" lon="8.201924934983254">
        <ele>1432.98</ele>
        <time>2013-04-07T07:22:52Z</time>
      </trkpt>
      <trkpt lat="46.247618459165096" lon="8.20194136351347">
        <ele>1432.02</ele>
        <time>2013-04-07T07:22:54Z</time>
      </trkpt>
      <trkpt lat="46.247677719220519" lon="8.202051753178239">
        <ele>1430.5799999999999</ele>
        <time>2013-04-07T07:23:08Z</time>
      </trkpt>
      <trkpt lat="46.247761119157076" lon="8.202186785638332">
        <ele>1430.5799999999999</ele>
        <time>2013-04-07T07:23:22Z</time>
      </trkpt>
      <trkpt lat="46.247785510495305" lon="8.202304886654019">
        <ele>1431.0599999999999</ele>
        <time>2013-04-07T07:23:34Z</time>
      </trkpt>
      <trkpt lat="46.24774569645524" lon="8.202417539432645">
        <ele>1429.1400000000001</ele>
        <time>2013-04-07T07:23:46Z</time>
      </trkpt>
      <trkpt lat="46.247724909335375" lon="8.202501693740487">
        <ele>1427.21</ele>
        <time>2013-04-07T07:23:56Z</time>
      </trkpt>
      <trkpt lat="46.247657937929034" lon="8.202535975724459">
        <ele>1429.1400000000001</ele>
        <time>2013-04-07T07:24:12Z</time>
      </trkpt>
      <trkpt lat="46.247671097517014" lon="8.202480571344495">
        <ele>1428.6600000000001</ele>
        <time>2013-04-07T07:24:46Z</time>
      </trkpt>
      <trkpt lat="46.247623488306999" lon="8.202437488362193">
        <ele>1429.1400000000001</ele>
        <time>2013-04-07T07:25:26Z</time>
      </trkpt>
      <trkpt lat="46.247678138315678" lon="8.202387113124132">
        <ele>1429.1400000000001</ele>
        <time>2013-04-07T07:25:53Z</time>
      </trkpt>
      <trkpt lat="46.247704457491636" lon="8.202420473098755">
        <ele>1429.6199999999999</ele>
        <time>2013-04-07T07:26:20Z</time>
      </trkpt>
      <trkpt lat="46.247658105567098" lon="8.202426172792912">
        <ele>1430.0999999999999</ele>
        <time>2013-04-07T07:26:41Z</time>
      </trkpt>
      <trkpt lat="46.247684173285961" lon="8.202450815588236">
        <ele>1430.0999999999999</ele>
        <time>2013-04-07T07:27:04Z</time>
      </trkpt>
      <trkpt lat="46.247679060325027" lon="8.202417371794581">
        <ele>1430.5799999999999</ele>
        <time>2013-04-07T07:27:30Z</time>
      </trkpt>
      <trkpt lat="46.247600857168436" lon="8.202514937147498">
        <ele>1430.0999999999999</ele>
        <time>2013-04-07T07:27:37Z</time>
      </trkpt>
      <trkpt lat="46.247532125562429" lon="8.202676875516772">
        <ele>1432.02</ele>
        <time>2013-04-07T07:27:51Z</time>
      </trkpt>
      <trkpt lat="46.247452329844236" lon="8.202801514416933">
        <ele>1434.4200000000001</ele>
        <time>2013-04-07T07:28:07Z</time>
      </trkpt>
      <trkpt lat="46.24742710031569" lon="8.202871503308415">
        <ele>1437.3099999999999</ele>
        <time>2013-04-07T07:28:21Z</time>
      </trkpt>
      <trkpt lat="46.247420394793153" lon="8.202958423644304">
        <ele>1439.23</ele>
        <time>2013-04-07T07:28:33Z</time>
      </trkpt>
      <trkpt lat="46.247456772252917" lon="8.203084906563163">
        <ele>1440.6700000000001</ele>
        <time>2013-04-07T07:28:48Z</time>
      </trkpt>
      <trkpt lat="46.247497340664268" lon="8.203236199915409">
        <ele>1439.71</ele>
        <time>2013-04-07T07:29:04Z</time>
      </trkpt>
      <trkpt lat="46.247515864670277" lon="8.20339604280889">
        <ele>1438.27</ele>
        <time>2013-04-07T07:29:19Z</time>
      </trkpt>
      <trkpt lat="46.247415449470282" lon="8.203571308404207">
        <ele>1439.71</ele>
        <time>2013-04-07T07:29:35Z</time>
      </trkpt>
      <trkpt lat="46.247326098382473" lon="8.203687816858292">
        <ele>1442.5999999999999</ele>
        <time>2013-04-07T07:29:50Z</time>
      </trkpt>
      <trkpt lat="46.247269939631224" lon="8.203781191259623">
        <ele>1443.5599999999999</ele>
        <time>2013-04-07T07:30:04Z</time>
      </trkpt>
      <trkpt lat="46.247296342626214" lon="8.203889485448599">
        <ele>1445</ele>
        <time>2013-04-07T07:30:17Z</time>
      </trkpt>
      <trkpt lat="46.247304556891322" lon="8.204054357483983">
        <ele>1445</ele>
        <time>2013-04-07T07:30:30Z</time>
      </trkpt>
      <trkpt lat="46.247333390638232" lon="8.204206405207515">
        <ele>1445.48</ele>
        <time>2013-04-07T07:30:43Z</time>
      </trkpt>
      <trkpt lat="46.247337246313691" lon="8.204291816800833">
        <ele>1445.48</ele>
        <time>2013-04-07T07:30:58Z</time>
      </trkpt>
      <trkpt lat="46.247317800298333" lon="8.204358788207173">
        <ele>1445.96</ele>
        <time>2013-04-07T07:31:03Z</time>
      </trkpt>
      <trkpt lat="46.2473005335778" lon="8.20439818315208">
        <ele>1445.96</ele>
        <time>2013-04-07T07:31:15Z</time>
      </trkpt>
      <trkpt lat="46.247321991249919" lon="8.204421903938055">
        <ele>1444.52</ele>
        <time>2013-04-07T07:31:36Z</time>
      </trkpt>
      <trkpt lat="46.247343700379133" lon="8.204389046877623">
        <ele>1445.96</ele>
        <time>2013-04-07T07:31:47Z</time>
      </trkpt>
      <trkpt lat="46.247355937957764" lon="8.204410839825869">
        <ele>1446.4400000000001</ele>
        <time>2013-04-07T07:32:04Z</time>
      </trkpt>
      <trkpt lat="46.247330205515027" lon="8.204494072124362">
        <ele>1447.8800000000001</ele>
        <time>2013-04-07T07:32:15Z</time>
      </trkpt>
      <trkpt lat="46.247288966551423" lon="8.204500693827868">
        <ele>1447.4000000000001</ele>
        <time>2013-04-07T07:32:32Z</time>
      </trkpt>
      <trkpt lat="46.247295755892992" lon="8.204459622502327">
        <ele>1446.9200000000001</ele>
        <time>2013-04-07T07:32:45Z</time>
      </trkpt>
      <trkpt lat="46.247307993471622" lon="8.204431040212512">
        <ele>1446.9200000000001</ele>
        <time>2013-04-07T07:33:04Z</time>
      </trkpt>
      <trkpt lat="46.247293576598167" lon="8.204509746283293">
        <ele>1447.4000000000001</ele>
        <time>2013-04-07T07:33:18Z</time>
      </trkpt>
      <trkpt lat="46.247270191088319" lon="8.204597923904657">
        <ele>1447.8800000000001</ele>
        <time>2013-04-07T07:33:39Z</time>
      </trkpt>
      <trkpt lat="46.247255690395832" lon="8.204724071547389">
        <ele>1449.3199999999999</ele>
        <time>2013-04-07T07:33:51Z</time>
      </trkpt>
      <trkpt lat="46.247257282957435" lon="8.204760951921344">
        <ele>1449.3199999999999</ele>
        <time>2013-04-07T07:33:54Z</time>
      </trkpt>
      <trkpt lat="46.247266503050923" lon="8.204917022958398">
        <ele>1451.73</ele>
        <time>2013-04-07T07:34:08Z</time>
      </trkpt>
      <trkpt lat="46.247276309877634" lon="8.20504761300981">
        <ele>1453.1700000000001</ele>
        <time>2013-04-07T07:34:21Z</time>
      </trkpt>
      <trkpt lat="46.247275974601507" lon="8.20520200766623">
        <ele>1455.0899999999999</ele>
        <time>2013-04-07T07:34:36Z</time>
      </trkpt>
      <trkpt lat="46.247268347069621" lon="8.205314744263887">
        <ele>1456.05</ele>
        <time>2013-04-07T07:34:50Z</time>
      </trkpt>
      <trkpt lat="46.247273795306683" lon="8.205354725942016">
        <ele>1456.53</ele>
        <time>2013-04-07T07:34:54Z</time>
      </trkpt>
      <trkpt lat="46.247282093390822" lon="8.20547760464251">
        <ele>1457.02</ele>
        <time>2013-04-07T07:35:07Z</time>
      </trkpt>
      <trkpt lat="46.247300449758768" lon="8.205649768933654">
        <ele>1457.98</ele>
        <time>2013-04-07T07:35:21Z</time>
      </trkpt>
      <trkpt lat="46.247287541627884" lon="8.205711208283901">
        <ele>1457.98</ele>
        <time>2013-04-07T07:35:33Z</time>
      </trkpt>
      <trkpt lat="46.247251834720373" lon="8.205871302634478">
        <ele>1457.98</ele>
        <time>2013-04-07T07:35:47Z</time>
      </trkpt>
      <trkpt lat="46.247256444767118" lon="8.205956798046827">
        <ele>1456.53</ele>
        <time>2013-04-07T07:35:58Z</time>
      </trkpt>
      <trkpt lat="46.247282177209854" lon="8.206040197983384">
        <ele>1457.5</ele>
        <time>2013-04-07T07:36:04Z</time>
      </trkpt>
      <trkpt lat="46.24728687107563" lon="8.206055285409093">
        <ele>1457.02</ele>
        <time>2013-04-07T07:36:06Z</time>
      </trkpt>
      <trkpt lat="46.24735476449132" lon="8.206255529075861">
        <ele>1456.05</ele>
        <time>2013-04-07T07:36:19Z</time>
      </trkpt>
      <trkpt lat="46.247350741177797" lon="8.206497179344297">
        <ele>1455.5699999999999</ele>
        <time>2013-04-07T07:36:34Z</time>
      </trkpt>
      <trkpt lat="46.247310843318701" lon="8.206674456596375">
        <ele>1457.5</ele>
        <time>2013-04-07T07:36:48Z</time>
      </trkpt>
      <trkpt lat="46.247260635718703" lon="8.206858187913895">
        <ele>1458.46</ele>
        <time>2013-04-07T07:37:03Z</time>
      </trkpt>
      <trkpt lat="46.247239764779806" lon="8.207044349983335">
        <ele>1459.9000000000001</ele>
        <time>2013-04-07T07:37:18Z</time>
      </trkpt>
      <trkpt lat="46.24721260741353" lon="8.207227913662791">
        <ele>1461.3399999999999</ele>
        <time>2013-04-07T07:37:32Z</time>
      </trkpt>
      <trkpt lat="46.247211098670959" lon="8.207343500107527">
        <ele>1462.78</ele>
        <time>2013-04-07T07:37:44Z</time>
      </trkpt>
      <trkpt lat="46.247208919376135" lon="8.207485657185316">
        <ele>1464.23</ele>
        <time>2013-04-07T07:37:57Z</time>
      </trkpt>
      <trkpt lat="46.247217888012528" lon="8.207611218094826">
        <ele>1465.1900000000001</ele>
        <time>2013-04-07T07:38:09Z</time>
      </trkpt>
      <trkpt lat="46.247236328199506" lon="8.20779268629849">
        <ele>1465.1900000000001</ele>
        <time>2013-04-07T07:38:23Z</time>
      </trkpt>
      <trkpt lat="46.247190143913031" lon="8.207962587475777">
        <ele>1465.1900000000001</ele>
        <time>2013-04-07T07:38:36Z</time>
      </trkpt>
      <trkpt lat="46.247127279639244" lon="8.208098122850061">
        <ele>1466.1500000000001</ele>
        <time>2013-04-07T07:38:49Z</time>
      </trkpt>
      <trkpt lat="46.247044382616878" lon="8.208238435909152">
        <ele>1468.0699999999999</ele>
        <time>2013-04-07T07:39:05Z</time>
      </trkpt>
      <trkpt lat="46.246948661282659" lon="8.208332061767578">
        <ele>1469.99</ele>
        <time>2013-04-07T07:39:22Z</time>
      </trkpt>
      <trkpt lat="46.246912786737084" lon="8.208401380106807">
        <ele>1470.95</ele>
        <time>2013-04-07T07:39:35Z</time>
      </trkpt>
      <trkpt lat="46.24689451418817" lon="8.208547811955214">
        <ele>1471.9200000000001</ele>
        <time>2013-04-07T07:39:49Z</time>
      </trkpt>
      <trkpt lat="46.246881103143096" lon="8.208682257682085">
        <ele>1473.3599999999999</ele>
        <time>2013-04-07T07:40:02Z</time>
      </trkpt>
      <trkpt lat="46.24685587361455" lon="8.208798598498106">
        <ele>1474.3199999999999</ele>
        <time>2013-04-07T07:40:14Z</time>
      </trkpt>
      <trkpt lat="46.246840618550777" lon="8.208920806646347">
        <ele>1475.76</ele>
        <time>2013-04-07T07:40:27Z</time>
      </trkpt>
      <trkpt lat="46.246818909421563" lon="8.208964727818966">
        <ele>1477.2</ele>
        <time>2013-04-07T07:40:36Z</time>
      </trkpt>
      <trkpt lat="46.246736766770482" lon="8.209094814956188">
        <ele>1479.6099999999999</ele>
        <time>2013-04-07T07:40:49Z</time>
      </trkpt>
      <trkpt lat="46.246733916923404" lon="8.209170419722796">
        <ele>1481.53</ele>
        <time>2013-04-07T07:40:58Z</time>
      </trkpt>
      <trkpt lat="46.246736599132419" lon="8.20926496759057">
        <ele>1483.45</ele>
        <time>2013-04-07T07:41:11Z</time>
      </trkpt>
      <trkpt lat="46.246694773435593" lon="8.209405448287725">
        <ele>1484.8900000000001</ele>
        <time>2013-04-07T07:41:26Z</time>
      </trkpt>
      <trkpt lat="46.246634591370821" lon="8.209495050832629">
        <ele>1487.3</ele>
        <time>2013-04-07T07:41:39Z</time>
      </trkpt>
      <trkpt lat="46.246653702110052" lon="8.209564033895731">
        <ele>1489.7</ele>
        <time>2013-04-07T07:41:53Z</time>
      </trkpt>
      <trkpt lat="46.246625958010554" lon="8.209706610068679">
        <ele>1490.6600000000001</ele>
        <time>2013-04-07T07:42:07Z</time>
      </trkpt>
      <trkpt lat="46.246633920818567" lon="8.209727313369513">
        <ele>1491.1400000000001</ele>
        <time>2013-04-07T07:42:20Z</time>
      </trkpt>
      <trkpt lat="46.246628137305379" lon="8.209714656695724">
        <ele>1491.1400000000001</ele>
        <time>2013-04-07T07:42:34Z</time>
      </trkpt>
      <trkpt lat="46.246683122590184" lon="8.209746172651649">
        <ele>1491.6199999999999</ele>
        <time>2013-04-07T07:42:46Z</time>
      </trkpt>
      <trkpt lat="46.246701730415225" lon="8.209796966984868">
        <ele>1491.6199999999999</ele>
        <time>2013-04-07T07:42:57Z</time>
      </trkpt>
      <trkpt lat="46.246704161167145" lon="8.209804510697722">
        <ele>1490.6600000000001</ele>
        <time>2013-04-07T07:43:09Z</time>
      </trkpt>
      <trkpt lat="46.246736515313387" lon="8.209862429648638">
        <ele>1491.1400000000001</ele>
        <time>2013-04-07T07:43:30Z</time>
      </trkpt>
      <trkpt lat="46.246678177267313" lon="8.209879277274013">
        <ele>1491.1400000000001</ele>
        <time>2013-04-07T07:43:49Z</time>
      </trkpt>
      <trkpt lat="46.246676249429584" lon="8.209881037473679">
        <ele>1491.1400000000001</ele>
        <time>2013-04-07T07:44:20Z</time>
      </trkpt>
      <trkpt lat="46.246658647432923" lon="8.209865028038621">
        <ele>1491.1400000000001</ele>
        <time>2013-04-07T07:44:46Z</time>
      </trkpt>
      <trkpt lat="46.246675830334425" lon="8.209827644750476">
        <ele>1492.0999999999999</ele>
        <time>2013-04-07T07:45:01Z</time>
      </trkpt>
      <trkpt lat="46.246645487844944" lon="8.209819179028273">
        <ele>1492.0999999999999</ele>
        <time>2013-04-07T07:45:16Z</time>
      </trkpt>
      <trkpt lat="46.246723355725408" lon="8.209840636700392">
        <ele>1493.0599999999999</ele>
        <time>2013-04-07T07:45:28Z</time>
      </trkpt>
      <trkpt lat="46.246737185865641" lon="8.209832673892379">
        <ele>1492.5799999999999</ele>
        <time>2013-04-07T07:45:38Z</time>
      </trkpt>
      <trkpt lat="46.246734000742435" lon="8.209839882329106">
        <ele>1493.0599999999999</ele>
        <time>2013-04-07T07:45:39Z</time>
      </trkpt>
      <trkpt lat="46.246716734021902" lon="8.209880786016583">
        <ele>1492.5799999999999</ele>
        <time>2013-04-07T07:45:51Z</time>
      </trkpt>
      <trkpt lat="46.246724193915725" lon="8.209863351657987">
        <ele>1493.55</ele>
        <time>2013-04-07T07:46:05Z</time>
      </trkpt>
      <trkpt lat="46.246731821447611" lon="8.209876008331776">
        <ele>1493.0599999999999</ele>
        <time>2013-04-07T07:46:22Z</time>
      </trkpt>
      <trkpt lat="46.246718158945441" lon="8.209868296980858">
        <ele>1493.0599999999999</ele>
        <time>2013-04-07T07:46:31Z</time>
      </trkpt>
      <trkpt lat="46.246698629111052" lon="8.20986695587635">
        <ele>1493.0599999999999</ele>
        <time>2013-04-07T07:46:47Z</time>
      </trkpt>
      <trkpt lat="46.246696198359132" lon="8.209861256182194">
        <ele>1493.55</ele>
        <time>2013-04-07T07:47:04Z</time>
      </trkpt>
      <trkpt lat="46.246712878346443" lon="8.209850024431944">
        <ele>1493.0599999999999</ele>
        <time>2013-04-07T07:47:25Z</time>
      </trkpt>
      <trkpt lat="46.246715979650617" lon="8.209890089929104">
        <ele>1493.0599999999999</ele>
        <time>2013-04-07T07:47:44Z</time>
      </trkpt>
      <trkpt lat="46.246750764548779" lon="8.209850443527103">
        <ele>1493.0599999999999</ele>
        <time>2013-04-07T07:47:57Z</time>
      </trkpt>
      <trkpt lat="46.246741963550448" lon="8.209848096594214">
        <ele>1493.0599999999999</ele>
        <time>2013-04-07T07:48:15Z</time>
      </trkpt>
      <trkpt lat="46.246737018227577" lon="8.209848515689373">
        <ele>1493.55</ele>
        <time>2013-04-07T07:48:33Z</time>
      </trkpt>
      <trkpt lat="46.246743472293019" lon="8.209854802116752">
        <ele>1493.0599999999999</ele>
        <time>2013-04-07T07:48:54Z</time>
      </trkpt>
      <trkpt lat="46.246727295219898" lon="8.209855891764164">
        <ele>1493.0599999999999</ele>
        <time>2013-04-07T07:49:11Z</time>
      </trkpt>
      <trkpt lat="46.246770042926073" lon="8.209871901199222">
        <ele>1493.55</ele>
        <time>2013-04-07T07:49:22Z</time>
      </trkpt>
      <trkpt lat="46.246763253584504" lon="8.20990308187902">
        <ele>1494.03</ele>
        <time>2013-04-07T07:49:44Z</time>
      </trkpt>
      <trkpt lat="46.246868949383497" lon="8.209916576743126">
        <ele>1494.51</ele>
        <time>2013-04-07T07:49:55Z</time>
      </trkpt>
      <trkpt lat="46.246976908296347" lon="8.210011962801218">
        <ele>1495.47</ele>
        <time>2013-04-07T07:50:08Z</time>
      </trkpt>
      <trkpt lat="46.247061062604189" lon="8.210166860371828">
        <ele>1497.3900000000001</ele>
        <time>2013-04-07T07:50:22Z</time>
      </trkpt>
      <trkpt lat="46.247069612145424" lon="8.210180439054966">
        <ele>1497.8699999999999</ele>
        <time>2013-04-07T07:50:24Z</time>
      </trkpt>
      <trkpt lat="46.247101463377476" lon="8.210323769599199">
        <ele>1499.3099999999999</ele>
        <time>2013-04-07T07:50:36Z</time>
      </trkpt>
      <trkpt lat="46.24718377366662" lon="8.210423933342099">
        <ele>1501.24</ele>
        <time>2013-04-07T07:50:49Z</time>
      </trkpt>
      <trkpt lat="46.24719986692071" lon="8.210475482046604">
        <ele>1502.2</ele>
        <time>2013-04-07T07:50:56Z</time>
      </trkpt>
      <trkpt lat="46.247234651818871" lon="8.210605653002858">
        <ele>1505.0799999999999</ele>
        <time>2013-04-07T07:51:10Z</time>
      </trkpt>
      <trkpt lat="46.247244793921709" lon="8.210658291354775">
        <ele>1506.52</ele>
        <time>2013-04-07T07:51:18Z</time>
      </trkpt>
      <trkpt lat="46.247300617396832" lon="8.210751162841916">
        <ele>1508.9300000000001</ele>
        <time>2013-04-07T07:51:31Z</time>
      </trkpt>
      <trkpt lat="46.247375467792153" lon="8.210770944133401">
        <ele>1510.3699999999999</ele>
        <time>2013-04-07T07:51:44Z</time>
      </trkpt>
      <trkpt lat="46.247408911585808" lon="8.210770441219211">
        <ele>1511.3299999999999</ele>
        <time>2013-04-07T07:51:50Z</time>
      </trkpt>
      <trkpt lat="46.247444283217192" lon="8.210762143135071">
        <ele>1512.77</ele>
        <time>2013-04-07T07:51:56Z</time>
      </trkpt>
      <trkpt lat="46.247526006773114" lon="8.210772620514035">
        <ele>1514.21</ele>
        <time>2013-04-07T07:52:08Z</time>
      </trkpt>
      <trkpt lat="46.24759566038847" lon="8.210862055420876">
        <ele>1515.1800000000001</ele>
        <time>2013-04-07T07:52:20Z</time>
      </trkpt>
      <trkpt lat="46.247595744207501" lon="8.211005469784141">
        <ele>1516.1400000000001</ele>
        <time>2013-04-07T07:52:32Z</time>
      </trkpt>
      <trkpt lat="46.247530952095985" lon="8.211111919954419">
        <ele>1518.0599999999999</ele>
        <time>2013-04-07T07:52:46Z</time>
      </trkpt>
      <trkpt lat="46.247461382299662" lon="8.211232619360089">
        <ele>1519.5</ele>
        <time>2013-04-07T07:52:59Z</time>
      </trkpt>
      <trkpt lat="46.24742366373539" lon="8.211344936862588">
        <ele>1521.4200000000001</ele>
        <time>2013-04-07T07:53:15Z</time>
      </trkpt>
      <trkpt lat="46.247409246861935" lon="8.211423642933369">
        <ele>1522.3900000000001</ele>
        <time>2013-04-07T07:53:26Z</time>
      </trkpt>
      <trkpt lat="46.247395668178797" lon="8.211510814726353">
        <ele>1522.8699999999999</ele>
        <time>2013-04-07T07:53:33Z</time>
      </trkpt>
      <trkpt lat="46.247302377596498" lon="8.211654145270586">
        <ele>1524.3099999999999</ele>
        <time>2013-04-07T07:53:48Z</time>
      </trkpt>
      <trkpt lat="46.247227611020207" lon="8.211735365912318">
        <ele>1525.27</ele>
        <time>2013-04-07T07:54:01Z</time>
      </trkpt>
      <trkpt lat="46.247118562459946" lon="8.211779287084937">
        <ele>1526.23</ele>
        <time>2013-04-07T07:54:15Z</time>
      </trkpt>
      <trkpt lat="46.247095009312034" lon="8.211778867989779">
        <ele>1526.23</ele>
        <time>2013-04-07T07:54:18Z</time>
      </trkpt>
      <trkpt lat="46.24704203568399" lon="8.211790351197124">
        <ele>1526.71</ele>
        <time>2013-04-07T07:54:23Z</time>
      </trkpt>
      <trkpt lat="46.247006496414542" lon="8.211811054497957">
        <ele>1526.71</ele>
        <time>2013-04-07T07:54:26Z</time>
      </trkpt>
      <trkpt lat="46.246978333219886" lon="8.211940806359053">
        <ele>1528.1500000000001</ele>
        <time>2013-04-07T07:54:39Z</time>
      </trkpt>
      <trkpt lat="46.246978417038918" lon="8.211960252374411">
        <ele>1528.6300000000001</ele>
        <time>2013-04-07T07:54:41Z</time>
      </trkpt>
      <trkpt lat="46.246954780071974" lon="8.21212244220078">
        <ele>1528.1500000000001</ele>
        <time>2013-04-07T07:54:55Z</time>
      </trkpt>
      <trkpt lat="46.246961820870638" lon="8.212359314784408">
        <ele>1527.1900000000001</ele>
        <time>2013-04-07T07:55:11Z</time>
      </trkpt>
      <trkpt lat="46.246959138661623" lon="8.212389321997762">
        <ele>1526.23</ele>
        <time>2013-04-07T07:55:22Z</time>
      </trkpt>
      <trkpt lat="46.2469448056072" lon="8.212439781054854">
        <ele>1525.75</ele>
        <time>2013-04-07T07:55:31Z</time>
      </trkpt>
      <trkpt lat="46.246886635199189" lon="8.212596941739321">
        <ele>1525.75</ele>
        <time>2013-04-07T07:55:43Z</time>
      </trkpt>
      <trkpt lat="46.246848497539759" lon="8.21269660256803">
        <ele>1526.23</ele>
        <time>2013-04-07T07:55:51Z</time>
      </trkpt>
      <trkpt lat="46.246829386800528" lon="8.212744127959013">
        <ele>1526.71</ele>
        <time>2013-04-07T07:55:55Z</time>
      </trkpt>
      <trkpt lat="46.246792674064636" lon="8.212819816544652">
        <ele>1527.1900000000001</ele>
        <time>2013-04-07T07:56:03Z</time>
      </trkpt>
      <trkpt lat="46.246677590534091" lon="8.212957112118602">
        <ele>1529.1099999999999</ele>
        <time>2013-04-07T07:56:19Z</time>
      </trkpt>
      <trkpt lat="46.246572062373161" lon="8.213040344417095">
        <ele>1530.5599999999999</ele>
        <time>2013-04-07T07:56:33Z</time>
      </trkpt>
      <trkpt lat="46.246522860601544" lon="8.213101951405406">
        <ele>1532</ele>
        <time>2013-04-07T07:56:47Z</time>
      </trkpt>
      <trkpt lat="46.24650995247066" lon="8.213114188984036">
        <ele>1532</ele>
        <time>2013-04-07T07:57:06Z</time>
      </trkpt>
      <trkpt lat="46.246515903621912" lon="8.213090803474188">
        <ele>1532</ele>
        <time>2013-04-07T07:57:20Z</time>
      </trkpt>
      <trkpt lat="46.246511461213231" lon="8.213124414905906">
        <ele>1532.48</ele>
        <time>2013-04-07T07:57:38Z</time>
      </trkpt>
      <trkpt lat="46.246483717113733" lon="8.213168922811747">
        <ele>1533.9200000000001</ele>
        <time>2013-04-07T07:57:53Z</time>
      </trkpt>
      <trkpt lat="46.246456978842616" lon="8.213162384927273">
        <ele>1533.4400000000001</ele>
        <time>2013-04-07T07:58:09Z</time>
      </trkpt>
      <trkpt lat="46.246460247784853" lon="8.213177556172013">
        <ele>1533.4400000000001</ele>
        <time>2013-04-07T07:58:30Z</time>
      </trkpt>
      <trkpt lat="46.246450776234269" lon="8.213228853419423">
        <ele>1535.8399999999999</ele>
        <time>2013-04-07T07:58:43Z</time>
      </trkpt>
      <trkpt lat="46.246459828689694" lon="8.213214352726936">
        <ele>1535.3599999999999</ele>
        <time>2013-04-07T07:58:56Z</time>
      </trkpt>
      <trkpt lat="46.246456475928426" lon="8.21322281844914">
        <ele>1535.3599999999999</ele>
        <time>2013-04-07T07:59:11Z</time>
      </trkpt>
      <trkpt lat="46.246457062661648" lon="8.21320672519505">
        <ele>1535.3599999999999</ele>
        <time>2013-04-07T07:59:32Z</time>
      </trkpt>
      <trkpt lat="46.246445327997208" lon="8.213212257251144">
        <ele>1534.8800000000001</ele>
        <time>2013-04-07T07:59:48Z</time>
      </trkpt>
      <trkpt lat="46.246447339653969" lon="8.21320622228086">
        <ele>1534.8800000000001</ele>
        <time>2013-04-07T08:00:06Z</time>
      </trkpt>
      <trkpt lat="46.246458068490028" lon="8.21319691836834">
        <ele>1535.3599999999999</ele>
        <time>2013-04-07T08:00:22Z</time>
      </trkpt>
      <trkpt lat="46.246408950537443" lon="8.213309654965997">
        <ele>1535.8399999999999</ele>
        <time>2013-04-07T08:00:37Z</time>
      </trkpt>
      <trkpt lat="46.2463369499892" lon="8.213433204218745">
        <ele>1537.77</ele>
        <time>2013-04-07T08:00:48Z</time>
      </trkpt>
      <trkpt lat="46.246332256123424" lon="8.213491206988692">
        <ele>1537.77</ele>
        <time>2013-04-07T08:00:53Z</time>
      </trkpt>
      <trkpt lat="46.246344409883022" lon="8.213572511449456">
        <ele>1538.73</ele>
        <time>2013-04-07T08:01:05Z</time>
      </trkpt>
      <trkpt lat="46.246368633583188" lon="8.213661443442106">
        <ele>1540.1700000000001</ele>
        <time>2013-04-07T08:01:15Z</time>
      </trkpt>
      <trkpt lat="46.246429570019245" lon="8.213687092065811">
        <ele>1542.0899999999999</ele>
        <time>2013-04-07T08:01:26Z</time>
      </trkpt>
      <trkpt lat="46.246438957750797" lon="8.213689103722572">
        <ele>1542.5699999999999</ele>
        <time>2013-04-07T08:01:36Z</time>
      </trkpt>
      <trkpt lat="46.246462510898709" lon="8.213651636615396">
        <ele>1542.5699999999999</ele>
        <time>2013-04-07T08:01:40Z</time>
      </trkpt>
      <trkpt lat="46.246506599709392" lon="8.213614085689187">
        <ele>1543.05</ele>
        <time>2013-04-07T08:01:45Z</time>
      </trkpt>
      <trkpt lat="46.246613217517734" lon="8.213617438450456">
        <ele>1544.98</ele>
        <time>2013-04-07T08:01:59Z</time>
      </trkpt>
      <trkpt lat="46.246621012687683" lon="8.213624395430088">
        <ele>1544.98</ele>
        <time>2013-04-07T08:02:00Z</time>
      </trkpt>
      <trkpt lat="46.246605925261974" lon="8.213777448982">
        <ele>1546.9000000000001</ele>
        <time>2013-04-07T08:02:14Z</time>
      </trkpt>
      <trkpt lat="46.246604500338435" lon="8.213790273293853">
        <ele>1547.3800000000001</ele>
        <time>2013-04-07T08:02:15Z</time>
      </trkpt>
      <trkpt lat="46.246565524488688" lon="8.21393083781004">
        <ele>1548.8199999999999</ele>
        <time>2013-04-07T08:02:28Z</time>
      </trkpt>
      <trkpt lat="46.246525626629591" lon="8.214090848341584">
        <ele>1549.3</ele>
        <time>2013-04-07T08:02:42Z</time>
      </trkpt>
      <trkpt lat="46.246470306068659" lon="8.214257061481476">
        <ele>1552.1900000000001</ele>
        <time>2013-04-07T08:02:59Z</time>
      </trkpt>
      <trkpt lat="46.246421104297042" lon="8.214390752837062">
        <ele>1553.6300000000001</ele>
        <time>2013-04-07T08:03:15Z</time>
      </trkpt>
      <trkpt lat="46.24640878289938" lon="8.21442486718297">
        <ele>1554.1099999999999</ele>
        <time>2013-04-07T08:03:30Z</time>
      </trkpt>
      <trkpt lat="46.246350863948464" lon="8.214558223262429">
        <ele>1556.51</ele>
        <time>2013-04-07T08:03:44Z</time>
      </trkpt>
      <trkpt lat="46.246268218383193" lon="8.214710606262088">
        <ele>1557.95</ele>
        <time>2013-04-07T08:04:00Z</time>
      </trkpt>
      <trkpt lat="46.246252711862326" lon="8.214718066155911">
        <ele>1558.4300000000001</ele>
        <time>2013-04-07T08:04:12Z</time>
      </trkpt>
      <trkpt lat="46.246240809559822" lon="8.214720999822021">
        <ele>1558.9200000000001</ele>
        <time>2013-04-07T08:04:14Z</time>
      </trkpt>
      <trkpt lat="46.246134946122766" lon="8.214775733649731">
        <ele>1558.4300000000001</ele>
        <time>2013-04-07T08:04:28Z</time>
      </trkpt>
      <trkpt lat="46.246141232550144" lon="8.214766848832369">
        <ele>1557.95</ele>
        <time>2013-04-07T08:04:43Z</time>
      </trkpt>
      <trkpt lat="46.246131090447307" lon="8.214785372838378">
        <ele>1558.4300000000001</ele>
        <time>2013-04-07T08:04:57Z</time>
      </trkpt>
      <trkpt lat="46.246130000799894" lon="8.21478302590549">
        <ele>1558.4300000000001</ele>
        <time>2013-04-07T08:05:19Z</time>
      </trkpt>
      <trkpt lat="46.246149782091379" lon="8.21477372199297">
        <ele>1558.9200000000001</ele>
        <time>2013-04-07T08:05:39Z</time>
      </trkpt>
      <trkpt lat="46.246163109317422" lon="8.214745642617345">
        <ele>1558.4300000000001</ele>
        <time>2013-04-07T08:05:48Z</time>
      </trkpt>
      <trkpt lat="46.246203426271677" lon="8.214727118611336">
        <ele>1559.4000000000001</ele>
        <time>2013-04-07T08:06:01Z</time>
      </trkpt>
      <trkpt lat="46.246250448748469" lon="8.214712366461754">
        <ele>1558.9200000000001</ele>
        <time>2013-04-07T08:06:17Z</time>
      </trkpt>
      <trkpt lat="46.246253466233611" lon="8.214730639010668">
        <ele>1559.4000000000001</ele>
        <time>2013-04-07T08:06:33Z</time>
      </trkpt>
      <trkpt lat="46.246258411556482" lon="8.214725190773606">
        <ele>1559.4000000000001</ele>
        <time>2013-04-07T08:06:53Z</time>
      </trkpt>
      <trkpt lat="46.246255896985531" lon="8.214754778891802">
        <ele>1558.9200000000001</ele>
        <time>2013-04-07T08:07:08Z</time>
      </trkpt>
      <trkpt lat="46.246256399899721" lon="8.214730890467763">
        <ele>1558.9200000000001</ele>
        <time>2013-04-07T08:07:26Z</time>
      </trkpt>
      <trkpt lat="46.246282383799553" lon="8.214757796376944">
        <ele>1558.9200000000001</ele>
        <time>2013-04-07T08:07:41Z</time>
      </trkpt>
      <trkpt lat="46.246301578357816" lon="8.214789479970932">
        <ele>1559.4000000000001</ele>
        <time>2013-04-07T08:07:45Z</time>
      </trkpt>
      <trkpt lat="46.246405178681016" lon="8.214888721704483">
        <ele>1560.3599999999999</ele>
        <time>2013-04-07T08:07:59Z</time>
      </trkpt>
      <trkpt lat="46.246502241119742" lon="8.214982096105814">
        <ele>1560.3599999999999</ele>
        <time>2013-04-07T08:08:11Z</time>
      </trkpt>
      <trkpt lat="46.24655244871974" lon="8.215141771361232">
        <ele>1561.8</ele>
        <time>2013-04-07T08:08:25Z</time>
      </trkpt>
      <trkpt lat="46.246562674641609" lon="8.215159960091114">
        <ele>1562.76</ele>
        <time>2013-04-07T08:08:27Z</time>
      </trkpt>
      <trkpt lat="46.246626963838935" lon="8.215323826298118">
        <ele>1563.72</ele>
        <time>2013-04-07T08:08:41Z</time>
      </trkpt>
      <trkpt lat="46.246634507551789" lon="8.215335141867399">
        <ele>1563.72</ele>
        <time>2013-04-07T08:08:43Z</time>
      </trkpt>
      <trkpt lat="46.246739365160465" lon="8.215474700555205">
        <ele>1564.2</ele>
        <time>2013-04-07T08:08:59Z</time>
      </trkpt>
      <trkpt lat="46.246820334345102" lon="8.215614343062043">
        <ele>1564.6800000000001</ele>
        <time>2013-04-07T08:09:15Z</time>
      </trkpt>
      <trkpt lat="46.24688177369535" lon="8.215707549825311">
        <ele>1566.6099999999999</ele>
        <time>2013-04-07T08:09:28Z</time>
      </trkpt>
      <trkpt lat="46.246944470331073" lon="8.215838056057692">
        <ele>1566.1199999999999</ele>
        <time>2013-04-07T08:09:40Z</time>
      </trkpt>
      <trkpt lat="46.2470190692693" lon="8.215958252549171">
        <ele>1567.0899999999999</ele>
        <time>2013-04-07T08:09:53Z</time>
      </trkpt>
      <trkpt lat="46.247054440900683" lon="8.216081717982888">
        <ele>1569.01</ele>
        <time>2013-04-07T08:10:06Z</time>
      </trkpt>
      <trkpt lat="46.247076485306025" lon="8.216236615553498">
        <ele>1571.8900000000001</ele>
        <time>2013-04-07T08:10:20Z</time>
      </trkpt>
      <trkpt lat="46.247093584388494" lon="8.216350190341473">
        <ele>1572.8499999999999</ele>
        <time>2013-04-07T08:10:34Z</time>
      </trkpt>
      <trkpt lat="46.2470743060112" lon="8.216431997716427">
        <ele>1574.78</ele>
        <time>2013-04-07T08:10:47Z</time>
      </trkpt>
      <trkpt lat="46.247058967128396" lon="8.21646393276751">
        <ele>1575.74</ele>
        <time>2013-04-07T08:10:51Z</time>
      </trkpt>
      <trkpt lat="46.247001467272639" lon="8.216545907780528">
        <ele>1576.7</ele>
        <time>2013-04-07T08:11:02Z</time>
      </trkpt>
      <trkpt lat="46.246969699859619" lon="8.216529646888375">
        <ele>1576.7</ele>
        <time>2013-04-07T08:11:17Z</time>
      </trkpt>
      <trkpt lat="46.246983362361789" lon="8.216536771506071">
        <ele>1577.1800000000001</ele>
        <time>2013-04-07T08:11:34Z</time>
      </trkpt>
      <trkpt lat="46.24694530852139" lon="8.216650346294045">
        <ele>1580.0599999999999</ele>
        <time>2013-04-07T08:11:49Z</time>
      </trkpt>
      <trkpt lat="46.246872888877988" lon="8.216793341562152">
        <ele>1581.03</ele>
        <time>2013-04-07T08:12:04Z</time>
      </trkpt>
      <trkpt lat="46.246856292709708" lon="8.216909766197205">
        <ele>1583.4300000000001</ele>
        <time>2013-04-07T08:12:17Z</time>
      </trkpt>
      <trkpt lat="46.246887892484665" lon="8.217044295743108">
        <ele>1583.4300000000001</ele>
        <time>2013-04-07T08:12:30Z</time>
      </trkpt>
      <trkpt lat="46.246949667111039" lon="8.217180501669645">
        <ele>1584.8699999999999</ele>
        <time>2013-04-07T08:12:44Z</time>
      </trkpt>
      <trkpt lat="46.246989984065294" lon="8.217321652919054">
        <ele>1583.4300000000001</ele>
        <time>2013-04-07T08:12:58Z</time>
      </trkpt>
      <trkpt lat="46.247004149481654" lon="8.21746020577848">
        <ele>1581.51</ele>
        <time>2013-04-07T08:13:13Z</time>
      </trkpt>
      <trkpt lat="46.246997192502022" lon="8.217496331781149">
        <ele>1581.99</ele>
        <time>2013-04-07T08:13:16Z</time>
      </trkpt>
      <trkpt lat="46.247018482536077" lon="8.217652989551425">
        <ele>1582.47</ele>
        <time>2013-04-07T08:13:29Z</time>
      </trkpt>
      <trkpt lat="46.247012196108699" lon="8.217727588489652">
        <ele>1584.3900000000001</ele>
        <time>2013-04-07T08:13:42Z</time>
      </trkpt>
      <trkpt lat="46.246965676546097" lon="8.217821549624205">
        <ele>1584.8699999999999</ele>
        <time>2013-04-07T08:13:54Z</time>
      </trkpt>
      <trkpt lat="46.24696291051805" lon="8.217836637049913">
        <ele>1584.3900000000001</ele>
        <time>2013-04-07T08:13:55Z</time>
      </trkpt>
      <trkpt lat="46.246971879154444" lon="8.217995474115014">
        <ele>1582.47</ele>
        <time>2013-04-07T08:14:08Z</time>
      </trkpt>
      <trkpt lat="46.246946481987834" lon="8.218090021982789">
        <ele>1580.0599999999999</ele>
        <time>2013-04-07T08:14:21Z</time>
      </trkpt>
      <trkpt lat="46.246951762586832" lon="8.218228742480278">
        <ele>1580.0599999999999</ele>
        <time>2013-04-07T08:14:33Z</time>
      </trkpt>
      <trkpt lat="46.246937932446599" lon="8.218228491023183">
        <ele>1580.0599999999999</ele>
        <time>2013-04-07T08:14:49Z</time>
      </trkpt>
      <trkpt lat="46.246979590505362" lon="8.218230670318008">
        <ele>1581.51</ele>
        <time>2013-04-07T08:15:07Z</time>
      </trkpt>
      <trkpt lat="46.246972046792507" lon="8.218130087479949">
        <ele>1584.3900000000001</ele>
        <time>2013-04-07T08:15:19Z</time>
      </trkpt>
      <trkpt lat="46.247000712901354" lon="8.218090189620853">
        <ele>1587.27</ele>
        <time>2013-04-07T08:15:33Z</time>
      </trkpt>
      <trkpt lat="46.247025188058615" lon="8.218176607042551">
        <ele>1587.75</ele>
        <time>2013-04-07T08:15:44Z</time>
      </trkpt>
      <trkpt lat="46.247058296576142" lon="8.218302084133029">
        <ele>1588.24</ele>
        <time>2013-04-07T08:15:55Z</time>
      </trkpt>
      <trkpt lat="46.247096350416541" lon="8.218413479626179">
        <ele>1590.1600000000001</ele>
        <time>2013-04-07T08:16:07Z</time>
      </trkpt>
      <trkpt lat="46.247099284082651" lon="8.218426555395126">
        <ele>1590.6400000000001</ele>
        <time>2013-04-07T08:16:11Z</time>
      </trkpt>
      <trkpt lat="46.247139433398843" lon="8.218391016125679">
        <ele>1593.04</ele>
        <time>2013-04-07T08:16:23Z</time>
      </trkpt>
      <trkpt lat="46.247159466147423" lon="8.218436613678932">
        <ele>1595.9300000000001</ele>
        <time>2013-04-07T08:16:37Z</time>
      </trkpt>
      <trkpt lat="46.247135242447257" lon="8.218359332531691">
        <ele>1598.8099999999999</ele>
        <time>2013-04-07T08:16:49Z</time>
      </trkpt>
      <trkpt lat="46.247162483632565" lon="8.218340640887618">
        <ele>1599.77</ele>
        <time>2013-04-07T08:17:00Z</time>
      </trkpt>
      <trkpt lat="46.247216714546084" lon="8.21848439052701">
        <ele>1601.21</ele>
        <time>2013-04-07T08:17:13Z</time>
      </trkpt>
      <trkpt lat="46.247239178046584" lon="8.21855865418911">
        <ele>1601.21</ele>
        <time>2013-04-07T08:17:24Z</time>
      </trkpt>
      <trkpt lat="46.247290978208184" lon="8.218623446300626">
        <ele>1604.0999999999999</ele>
        <time>2013-04-07T08:17:38Z</time>
      </trkpt>
      <trkpt lat="46.247274549677968" lon="8.218531664460897">
        <ele>1605.54</ele>
        <time>2013-04-07T08:17:49Z</time>
      </trkpt>
      <trkpt lat="46.247267592698336" lon="8.218407612293959">
        <ele>1606.98</ele>
        <time>2013-04-07T08:18:06Z</time>
      </trkpt>
      <trkpt lat="46.247301958501339" lon="8.218354051932693">
        <ele>1609.8599999999999</ele>
        <time>2013-04-07T08:18:17Z</time>
      </trkpt>
      <trkpt lat="46.247343700379133" lon="8.218469638377428">
        <ele>1612.27</ele>
        <time>2013-04-07T08:18:33Z</time>
      </trkpt>
      <trkpt lat="46.247341772541404" lon="8.218506015837193">
        <ele>1611.3099999999999</ele>
        <time>2013-04-07T08:18:52Z</time>
      </trkpt>
      <trkpt lat="46.24728879891336" lon="8.21856795810163">
        <ele>1611.79</ele>
        <time>2013-04-07T08:19:15Z</time>
      </trkpt>
      <trkpt lat="46.247283266857266" lon="8.218540716916323">
        <ele>1611.79</ele>
        <time>2013-04-07T08:19:32Z</time>
      </trkpt>
      <trkpt lat="46.247357111424208" lon="8.218631325289607">
        <ele>1612.27</ele>
        <time>2013-04-07T08:20:02Z</time>
      </trkpt>
      <trkpt lat="46.24740170314908" lon="8.21870232000947">
        <ele>1615.1500000000001</ele>
        <time>2013-04-07T08:20:14Z</time>
      </trkpt>
      <trkpt lat="46.247415281832218" lon="8.218700475990772">
        <ele>1617.0699999999999</ele>
        <time>2013-04-07T08:20:26Z</time>
      </trkpt>
      <trkpt lat="46.247388040646911" lon="8.218626799061894">
        <ele>1617.0699999999999</ele>
        <time>2013-04-07T08:20:39Z</time>
      </trkpt>
      <trkpt lat="46.247426262125373" lon="8.218663847073913">
        <ele>1619.96</ele>
        <time>2013-04-07T08:20:52Z</time>
      </trkpt>
      <trkpt lat="46.247428106144071" lon="8.218679102137685">
        <ele>1620.4400000000001</ele>
        <time>2013-04-07T08:21:09Z</time>
      </trkpt>
      <trkpt lat="46.247486611828208" lon="8.218687735497952">
        <ele>1621.8800000000001</ele>
        <time>2013-04-07T08:21:20Z</time>
      </trkpt>
      <trkpt lat="46.247517457231879" lon="8.218693183735013">
        <ele>1624.28</ele>
        <time>2013-04-07T08:21:33Z</time>
      </trkpt>
      <trkpt lat="46.24749943614006" lon="8.218691172078252">
        <ele>1624.28</ele>
        <time>2013-04-07T08:21:48Z</time>
      </trkpt>
      <trkpt lat="46.247517289593816" lon="8.218699218705297">
        <ele>1625.73</ele>
        <time>2013-04-07T08:22:08Z</time>
      </trkpt>
      <trkpt lat="46.247517289593816" lon="8.218679437413812">
        <ele>1628.6099999999999</ele>
        <time>2013-04-07T08:22:18Z</time>
      </trkpt>
      <trkpt lat="46.247557355090976" lon="8.218658315017819">
        <ele>1631.49</ele>
        <time>2013-04-07T08:22:28Z</time>
      </trkpt>
      <trkpt lat="46.247556013986468" lon="8.218643646687269">
        <ele>1632.9400000000001</ele>
        <time>2013-04-07T08:22:39Z</time>
      </trkpt>
      <trkpt lat="46.247556433081627" lon="8.218686645850539">
        <ele>1633.4200000000001</ele>
        <time>2013-04-07T08:22:54Z</time>
      </trkpt>
      <trkpt lat="46.247597672045231" lon="8.218721933662891">
        <ele>1634.3800000000001</ele>
        <time>2013-04-07T08:23:06Z</time>
      </trkpt>
      <trkpt lat="46.24759079888463" lon="8.218730734661222">
        <ele>1633.4200000000001</ele>
        <time>2013-04-07T08:23:19Z</time>
      </trkpt>
      <trkpt lat="46.247563725337386" lon="8.218801058828831">
        <ele>1632.9400000000001</ele>
        <time>2013-04-07T08:23:38Z</time>
      </trkpt>
      <trkpt lat="46.247563557699323" lon="8.218809943646193">
        <ele>1633.4200000000001</ele>
        <time>2013-04-07T08:24:13Z</time>
      </trkpt>
      <trkpt lat="46.247592307627201" lon="8.218760658055544">
        <ele>1633.9000000000001</ele>
        <time>2013-04-07T08:24:22Z</time>
      </trkpt>
      <trkpt lat="46.247578058391809" lon="8.218775242567062">
        <ele>1633.9000000000001</ele>
        <time>2013-04-07T08:24:41Z</time>
      </trkpt>
      <trkpt lat="46.247559702023864" lon="8.218804243952036">
        <ele>1633.9000000000001</ele>
        <time>2013-04-07T08:24:55Z</time>
      </trkpt>
      <trkpt lat="46.247571604326367" lon="8.218774320557714">
        <ele>1633.9000000000001</ele>
        <time>2013-04-07T08:25:16Z</time>
      </trkpt>
      <trkpt lat="46.247585015371442" lon="8.218748839572072">
        <ele>1633.4200000000001</ele>
        <time>2013-04-07T08:25:44Z</time>
      </trkpt>
      <trkpt lat="46.247589876875281" lon="8.218755712732673">
        <ele>1633.9000000000001</ele>
        <time>2013-04-07T08:26:05Z</time>
      </trkpt>
      <trkpt lat="46.247563222423196" lon="8.218775996938348">
        <ele>1632.46</ele>
        <time>2013-04-07T08:26:23Z</time>
      </trkpt>
      <trkpt lat="46.247591469436884" lon="8.218773482367396">
        <ele>1633.9000000000001</ele>
        <time>2013-04-07T08:26:38Z</time>
      </trkpt>
      <trkpt lat="46.247553834691644" lon="8.218847829848528">
        <ele>1634.3800000000001</ele>
        <time>2013-04-07T08:26:55Z</time>
      </trkpt>
      <trkpt lat="46.247547632083297" lon="8.218839783221483">
        <ele>1634.8599999999999</ele>
        <time>2013-04-07T08:27:07Z</time>
      </trkpt>
      <trkpt lat="46.247568586841226" lon="8.21878052316606">
        <ele>1634.8599999999999</ele>
        <time>2013-04-07T08:27:31Z</time>
      </trkpt>
      <trkpt lat="46.247570598497987" lon="8.21876191534102">
        <ele>1634.8599999999999</ele>
        <time>2013-04-07T08:27:53Z</time>
      </trkpt>
      <trkpt lat="46.247580405324697" lon="8.218744732439518">
        <ele>1634.8599999999999</ele>
        <time>2013-04-07T08:28:11Z</time>
      </trkpt>
      <trkpt lat="46.247615022584796" lon="8.218769459053874">
        <ele>1634.8599999999999</ele>
        <time>2013-04-07T08:28:34Z</time>
      </trkpt>
      <trkpt lat="46.247612843289971" lon="8.218776248395443">
        <ele>1634.8599999999999</ele>
        <time>2013-04-07T08:28:52Z</time>
      </trkpt>
      <trkpt lat="46.247602365911007" lon="8.218753533437848">
        <ele>1634.8599999999999</ele>
        <time>2013-04-07T08:29:09Z</time>
      </trkpt>
      <trkpt lat="46.247562384232879" lon="8.218775242567062">
        <ele>1635.3399999999999</ele>
        <time>2013-04-07T08:29:24Z</time>
      </trkpt>
      <trkpt lat="46.247585937380791" lon="8.218809021636844">
        <ele>1634.8599999999999</ele>
        <time>2013-04-07T08:29:40Z</time>
      </trkpt>
      <trkpt lat="46.247616112232208" lon="8.218904072418809">
        <ele>1637.26</ele>
        <time>2013-04-07T08:29:53Z</time>
      </trkpt>
      <trkpt lat="46.247568419203162" lon="8.218943886458874">
        <ele>1638.22</ele>
        <time>2013-04-07T08:30:08Z</time>
      </trkpt>
      <trkpt lat="46.247552577406168" lon="8.218947071582079">
        <ele>1637.74</ele>
        <time>2013-04-07T08:30:29Z</time>
      </trkpt>
      <trkpt lat="46.247568586841226" lon="8.219016054645181">
        <ele>1638.7</ele>
        <time>2013-04-07T08:30:43Z</time>
      </trkpt>
      <trkpt lat="46.247552745044231" lon="8.218999961391091">
        <ele>1638.7</ele>
        <time>2013-04-07T08:31:08Z</time>
      </trkpt>
      <trkpt lat="46.247560037299991" lon="8.219016222283244">
        <ele>1639.1900000000001</ele>
        <time>2013-04-07T08:31:35Z</time>
      </trkpt>
      <trkpt lat="46.247550565749407" lon="8.218996357172728">
        <ele>1638.7</ele>
        <time>2013-04-07T08:32:14Z</time>
      </trkpt>
      <trkpt lat="46.247538579627872" lon="8.219039272516966">
        <ele>1639.1900000000001</ele>
        <time>2013-04-07T08:32:48Z</time>
      </trkpt>
      <trkpt lat="46.247553415596485" lon="8.219059724360704">
        <ele>1639.1900000000001</ele>
        <time>2013-04-07T08:33:17Z</time>
      </trkpt>
      <trkpt lat="46.247577052563429" lon="8.21904681622982">
        <ele>1638.22</ele>
        <time>2013-04-07T08:33:41Z</time>
      </trkpt>
      <trkpt lat="46.24757663346827" lon="8.219121666625142">
        <ele>1639.1900000000001</ele>
        <time>2013-04-07T08:34:06Z</time>
      </trkpt>
      <trkpt lat="46.247648131102324" lon="8.219270780682564">
        <ele>1639.6700000000001</ele>
        <time>2013-04-07T08:34:18Z</time>
      </trkpt>
      <trkpt lat="46.247713593766093" lon="8.219373375177383">
        <ele>1642.0699999999999</ele>
        <time>2013-04-07T08:34:30Z</time>
      </trkpt>
      <trkpt lat="46.247754413634539" lon="8.219477813690901">
        <ele>1643.51</ele>
        <time>2013-04-07T08:34:42Z</time>
      </trkpt>
      <trkpt lat="46.247725244611502" lon="8.219578145071864">
        <ele>1643.99</ele>
        <time>2013-04-07T08:34:52Z</time>
      </trkpt>
      <trkpt lat="46.247635642066598" lon="8.219623574987054">
        <ele>1645.9100000000001</ele>
        <time>2013-04-07T08:35:04Z</time>
      </trkpt>
      <trkpt lat="46.247596582397819" lon="8.219653414562345">
        <ele>1647.8399999999999</ele>
        <time>2013-04-07T08:35:17Z</time>
      </trkpt>
      <trkpt lat="46.247530449181795" lon="8.219683254137635">
        <ele>1650.24</ele>
        <time>2013-04-07T08:35:31Z</time>
      </trkpt>
      <trkpt lat="46.247521229088306" lon="8.219676716253161">
        <ele>1651.6800000000001</ele>
        <time>2013-04-07T08:35:44Z</time>
      </trkpt>
      <trkpt lat="46.247599683701992" lon="8.219707645475864">
        <ele>1653.1199999999999</ele>
        <time>2013-04-07T08:35:59Z</time>
      </trkpt>
      <trkpt lat="46.247535813599825" lon="8.219766402617097">
        <ele>1655.05</ele>
        <time>2013-04-07T08:36:12Z</time>
      </trkpt>
      <trkpt lat="46.247486276552081" lon="8.219802528619766">
        <ele>1658.4100000000001</ele>
        <time>2013-04-07T08:36:26Z</time>
      </trkpt>
      <trkpt lat="46.247537070885301" lon="8.21983982808888">
        <ele>1660.3299999999999</ele>
        <time>2013-04-07T08:36:42Z</time>
      </trkpt>
      <trkpt lat="46.247537238523364" lon="8.219872768968344">
        <ele>1662.26</ele>
        <time>2013-04-07T08:36:56Z</time>
      </trkpt>
      <trkpt lat="46.247540088370442" lon="8.219877211377025">
        <ele>1662.74</ele>
        <time>2013-04-07T08:37:14Z</time>
      </trkpt>
      <trkpt lat="46.24746766872704" lon="8.21986623108387">
        <ele>1664.6600000000001</ele>
        <time>2013-04-07T08:37:27Z</time>
      </trkpt>
      <trkpt lat="46.247449731454253" lon="8.219913085922599">
        <ele>1667.54</ele>
        <time>2013-04-07T08:37:43Z</time>
      </trkpt>
      <trkpt lat="46.247474793344736" lon="8.220025319606066">
        <ele>1670.4300000000001</ele>
        <time>2013-04-07T08:37:57Z</time>
      </trkpt>
      <trkpt lat="46.247423747554421" lon="8.220057254657149">
        <ele>1670.9100000000001</ele>
        <time>2013-04-07T08:38:14Z</time>
      </trkpt>
      <trkpt lat="46.24738996848464" lon="8.220053985714912">
        <ele>1671.3900000000001</ele>
        <time>2013-04-07T08:38:26Z</time>
      </trkpt>
      <trkpt lat="46.247346214950085" lon="8.220095811411738">
        <ele>1670.4300000000001</ele>
        <time>2013-04-07T08:38:38Z</time>
      </trkpt>
      <trkpt lat="46.247321236878633" lon="8.220111066475511">
        <ele>1669.95</ele>
        <time>2013-04-07T08:38:41Z</time>
      </trkpt>
      <trkpt lat="46.247299611568451" lon="8.220135290175676">
        <ele>1668.99</ele>
        <time>2013-04-07T08:38:45Z</time>
      </trkpt>
      <trkpt lat="46.247283099219203" lon="8.220269652083516">
        <ele>1668.02</ele>
        <time>2013-04-07T08:38:58Z</time>
      </trkpt>
      <trkpt lat="46.247297096997499" lon="8.220340814441443">
        <ele>1668.02</ele>
        <time>2013-04-07T08:39:04Z</time>
      </trkpt>
      <trkpt lat="46.247329618781805" lon="8.220474673435092">
        <ele>1669.95</ele>
        <time>2013-04-07T08:39:19Z</time>
      </trkpt>
      <trkpt lat="46.247287122532725" lon="8.220518343150616">
        <ele>1670.4300000000001</ele>
        <time>2013-04-07T08:39:31Z</time>
      </trkpt>
      <trkpt lat="46.247277818620205" lon="8.220501411706209">
        <ele>1670.4300000000001</ele>
        <time>2013-04-07T08:39:43Z</time>
      </trkpt>
      <trkpt lat="46.247261306270957" lon="8.2204604241997">
        <ele>1670.4300000000001</ele>
        <time>2013-04-07T08:40:01Z</time>
      </trkpt>
      <trkpt lat="46.247283853590488" lon="8.22043058462441">
        <ele>1669.95</ele>
        <time>2013-04-07T08:40:25Z</time>
      </trkpt>
      <trkpt lat="46.247264072299004" lon="8.220455646514893">
        <ele>1670.4300000000001</ele>
        <time>2013-04-07T08:40:48Z</time>
      </trkpt>
      <trkpt lat="46.247236579656601" lon="8.22054248303175">
        <ele>1670.4300000000001</ele>
        <time>2013-04-07T08:40:59Z</time>
      </trkpt>
      <trkpt lat="46.247198190540075" lon="8.220612220466137">
        <ele>1668.99</ele>
        <time>2013-04-07T08:41:07Z</time>
      </trkpt>
      <trkpt lat="46.247050752863288" lon="8.220661170780659">
        <ele>1667.54</ele>
        <time>2013-04-07T08:41:16Z</time>
      </trkpt>
      <trkpt lat="46.246965089812875" lon="8.220772063359618">
        <ele>1667.54</ele>
        <time>2013-04-07T08:41:30Z</time>
      </trkpt>
      <trkpt lat="46.246941452845931" lon="8.220908856019378">
        <ele>1667.0599999999999</ele>
        <time>2013-04-07T08:41:44Z</time>
      </trkpt>
      <trkpt lat="46.246814215555787" lon="8.221023436635733">
        <ele>1664.6600000000001</ele>
        <time>2013-04-07T08:41:59Z</time>
      </trkpt>
      <trkpt lat="46.246754117310047" lon="8.221122929826379">
        <ele>1662.74</ele>
        <time>2013-04-07T08:42:11Z</time>
      </trkpt>
      <trkpt lat="46.246651019901037" lon="8.221202306449413">
        <ele>1661.3</ele>
        <time>2013-04-07T08:42:23Z</time>
      </trkpt>
      <trkpt lat="46.246557645499706" lon="8.22131940163672">
        <ele>1661.78</ele>
        <time>2013-04-07T08:42:37Z</time>
      </trkpt>
      <trkpt lat="46.246457733213902" lon="8.22143666446209">
        <ele>1662.74</ele>
        <time>2013-04-07T08:42:51Z</time>
      </trkpt>
      <trkpt lat="46.246349522843957" lon="8.221503887325525">
        <ele>1663.22</ele>
        <time>2013-04-07T08:43:04Z</time>
      </trkpt>
      <trkpt lat="46.246331250295043" lon="8.22153783403337">
        <ele>1663.7</ele>
        <time>2013-04-07T08:43:08Z</time>
      </trkpt>
      <trkpt lat="46.246307026594877" lon="8.221596591174603">
        <ele>1663.7</ele>
        <time>2013-04-07T08:43:14Z</time>
      </trkpt>
      <trkpt lat="46.24630082398653" lon="8.221727348864079">
        <ele>1664.6600000000001</ele>
        <time>2013-04-07T08:43:27Z</time>
      </trkpt>
      <trkpt lat="46.24625782482326" lon="8.221858777105808">
        <ele>1666.0999999999999</ele>
        <time>2013-04-07T08:43:41Z</time>
      </trkpt>
      <trkpt lat="46.246213568374515" lon="8.222004789859057">
        <ele>1666.0999999999999</ele>
        <time>2013-04-07T08:43:54Z</time>
      </trkpt>
      <trkpt lat="46.246189260855317" lon="8.222076958045363">
        <ele>1667.0599999999999</ele>
        <time>2013-04-07T08:44:01Z</time>
      </trkpt>
      <trkpt lat="46.246150452643633" lon="8.222187347710133">
        <ele>1667.54</ele>
        <time>2013-04-07T08:44:14Z</time>
      </trkpt>
      <trkpt lat="46.246121535077691" lon="8.222234370186925">
        <ele>1667.54</ele>
        <time>2013-04-07T08:44:18Z</time>
      </trkpt>
      <trkpt lat="46.24610778875649" lon="8.222278794273734">
        <ele>1667.54</ele>
        <time>2013-04-07T08:44:22Z</time>
      </trkpt>
      <trkpt lat="46.246082559227943" lon="8.222398487851024">
        <ele>1668.02</ele>
        <time>2013-04-07T08:44:35Z</time>
      </trkpt>
      <trkpt lat="46.246038218960166" lon="8.222504770383239">
        <ele>1669.47</ele>
        <time>2013-04-07T08:44:50Z</time>
      </trkpt>
      <trkpt lat="46.245999662205577" lon="8.222641227766872">
        <ele>1670.9100000000001</ele>
        <time>2013-04-07T08:45:06Z</time>
      </trkpt>
      <trkpt lat="46.24599932692945" lon="8.222698727622628">
        <ele>1670.9100000000001</ele>
        <time>2013-04-07T08:45:14Z</time>
      </trkpt>
      <trkpt lat="46.245912238955498" lon="8.222820181399584">
        <ele>1670.9100000000001</ele>
        <time>2013-04-07T08:45:28Z</time>
      </trkpt>
      <trkpt lat="46.245816433802247" lon="8.222820851951838">
        <ele>1672.8299999999999</ele>
        <time>2013-04-07T08:45:42Z</time>
      </trkpt>
      <trkpt lat="46.245780810713768" lon="8.222825797274709">
        <ele>1672.8299999999999</ele>
        <time>2013-04-07T08:45:47Z</time>
      </trkpt>
      <trkpt lat="46.245694058015943" lon="8.222805177792907">
        <ele>1672.3499999999999</ele>
        <time>2013-04-07T08:46:00Z</time>
      </trkpt>
      <trkpt lat="46.245692884549499" lon="8.222800400108099">
        <ele>1672.3499999999999</ele>
        <time>2013-04-07T08:46:04Z</time>
      </trkpt>
      <trkpt lat="46.24562943354249" lon="8.222830994054675">
        <ele>1672.8299999999999</ele>
        <time>2013-04-07T08:46:11Z</time>
      </trkpt>
      <trkpt lat="46.24562163837254" lon="8.222846165299416">
        <ele>1673.3099999999999</ele>
        <time>2013-04-07T08:46:15Z</time>
      </trkpt>
      <trkpt lat="46.245613088831306" lon="8.223014809191227">
        <ele>1674.27</ele>
        <time>2013-04-07T08:46:30Z</time>
      </trkpt>
      <trkpt lat="46.245613340288401" lon="8.223019419237971">
        <ele>1673.79</ele>
        <time>2013-04-07T08:46:48Z</time>
      </trkpt>
      <trkpt lat="46.245563803240657" lon="8.223020089790225">
        <ele>1674.27</ele>
        <time>2013-04-07T08:46:55Z</time>
      </trkpt>
      <trkpt lat="46.245455257594585" lon="8.223033584654331">
        <ele>1675.72</ele>
        <time>2013-04-07T08:47:08Z</time>
      </trkpt>
      <trkpt lat="46.245451485738158" lon="8.22302226908505">
        <ele>1676.2</ele>
        <time>2013-04-07T08:47:28Z</time>
      </trkpt>
      <trkpt lat="46.245440673083067" lon="8.223018832504749">
        <ele>1676.2</ele>
        <time>2013-04-07T08:47:41Z</time>
      </trkpt>
      <trkpt lat="46.245443355292082" lon="8.223039116710424">
        <ele>1676.6800000000001</ele>
        <time>2013-04-07T08:47:44Z</time>
      </trkpt>
      <trkpt lat="46.245386609807611" lon="8.22316400706768">
        <ele>1676.6800000000001</ele>
        <time>2013-04-07T08:47:57Z</time>
      </trkpt>
      <trkpt lat="46.245387447997928" lon="8.223211281001568">
        <ele>1676.6800000000001</ele>
        <time>2013-04-07T08:48:09Z</time>
      </trkpt>
      <trkpt lat="46.245370851829648" lon="8.223195774480701">
        <ele>1677.1600000000001</ele>
        <time>2013-04-07T08:48:21Z</time>
      </trkpt>
      <trkpt lat="46.245355512946844" lon="8.223169539123774">
        <ele>1676.2</ele>
        <time>2013-04-07T08:48:28Z</time>
      </trkpt>
      <trkpt lat="46.245369929820299" lon="8.22316006757319">
        <ele>1676.6800000000001</ele>
        <time>2013-04-07T08:48:43Z</time>
      </trkpt>
      <trkpt lat="46.245366577059031" lon="8.22317423298955">
        <ele>1675.72</ele>
        <time>2013-04-07T08:48:56Z</time>
      </trkpt>
      <trkpt lat="46.24536364339292" lon="8.223149925470352">
        <ele>1676.2</ele>
        <time>2013-04-07T08:49:13Z</time>
      </trkpt>
      <trkpt lat="46.245367079973221" lon="8.223144812509418">
        <ele>1676.6800000000001</ele>
        <time>2013-04-07T08:49:23Z</time>
      </trkpt>
      <trkpt lat="46.24536557123065" lon="8.223165683448315">
        <ele>1676.6800000000001</ele>
        <time>2013-04-07T08:49:39Z</time>
      </trkpt>
      <trkpt lat="46.245380993932486" lon="8.223153194412589">
        <ele>1676.2</ele>
        <time>2013-04-07T08:50:01Z</time>
      </trkpt>
      <trkpt lat="46.245383843779564" lon="8.223158307373524">
        <ele>1676.2</ele>
        <time>2013-04-07T08:50:21Z</time>
      </trkpt>
      <trkpt lat="46.245381832122803" lon="8.223159564658999">
        <ele>1676.6800000000001</ele>
        <time>2013-04-07T08:50:41Z</time>
      </trkpt>
      <trkpt lat="46.245379904285073" lon="8.223151350393891">
        <ele>1676.2</ele>
        <time>2013-04-07T08:50:59Z</time>
      </trkpt>
      <trkpt lat="46.245373534038663" lon="8.223177753388882">
        <ele>1676.2</ele>
        <time>2013-04-07T08:51:18Z</time>
      </trkpt>
      <trkpt lat="46.245368756353855" lon="8.223239863291383">
        <ele>1676.2</ele>
        <time>2013-04-07T08:51:28Z</time>
      </trkpt>
      <trkpt lat="46.245352495461702" lon="8.223301973193884">
        <ele>1676.6800000000001</ele>
        <time>2013-04-07T08:51:32Z</time>
      </trkpt>
      <trkpt lat="46.24534210190177" lon="8.223328795284033">
        <ele>1676.2</ele>
        <time>2013-04-07T08:51:34Z</time>
      </trkpt>
      <trkpt lat="46.245240680873394" lon="8.223501211032271">
        <ele>1676.2</ele>
        <time>2013-04-07T08:51:49Z</time>
      </trkpt>
      <trkpt lat="46.245133811607957" lon="8.22365409694612">
        <ele>1676.6800000000001</ele>
        <time>2013-04-07T08:52:02Z</time>
      </trkpt>
      <trkpt lat="46.245071282610297" lon="8.223737915977836">
        <ele>1677.1600000000001</ele>
        <time>2013-04-07T08:52:10Z</time>
      </trkpt>
      <trkpt lat="46.244988050311804" lon="8.223768845200539">
        <ele>1677.1600000000001</ele>
        <time>2013-04-07T08:52:17Z</time>
      </trkpt>
      <trkpt lat="46.244828794151545" lon="8.22375132702291">
        <ele>1677.1600000000001</ele>
        <time>2013-04-07T08:52:31Z</time>
      </trkpt>
      <trkpt lat="46.24473525211215" lon="8.223762726411223">
        <ele>1676.2</ele>
        <time>2013-04-07T08:52:41Z</time>
      </trkpt>
      <trkpt lat="46.244587143883109" lon="8.223766498267651">
        <ele>1675.72</ele>
        <time>2013-04-07T08:52:55Z</time>
      </trkpt>
      <trkpt lat="46.244516149163246" lon="8.22383925318718">
        <ele>1676.2</ele>
        <time>2013-04-07T08:53:09Z</time>
      </trkpt>
      <trkpt lat="46.244498714804649" lon="8.223920809105039">
        <ele>1679.5599999999999</ele>
        <time>2013-04-07T08:53:22Z</time>
      </trkpt>
      <trkpt lat="46.244535176083446" lon="8.223995491862297">
        <ele>1681.48</ele>
        <time>2013-04-07T08:53:34Z</time>
      </trkpt>
      <trkpt lat="46.244536098092794" lon="8.224062044173479">
        <ele>1684.3699999999999</ele>
        <time>2013-04-07T08:53:46Z</time>
      </trkpt>
      <trkpt lat="46.244567697867751" lon="8.224135134369135">
        <ele>1687.25</ele>
        <time>2013-04-07T08:54:01Z</time>
      </trkpt>
      <trkpt lat="46.244613965973258" lon="8.224223228171468">
        <ele>1689.1700000000001</ele>
        <time>2013-04-07T08:54:14Z</time>
      </trkpt>
      <trkpt lat="46.24456082470715" lon="8.224322134628892">
        <ele>1690.1400000000001</ele>
        <time>2013-04-07T08:54:26Z</time>
      </trkpt>
      <trkpt lat="46.244490249082446" lon="8.224400170147419">
        <ele>1692.0599999999999</ele>
        <time>2013-04-07T08:54:41Z</time>
      </trkpt>
      <trkpt lat="46.244423445314169" lon="8.224448282271624">
        <ele>1694.46</ele>
        <time>2013-04-07T08:54:54Z</time>
      </trkpt>
      <trkpt lat="46.244346247985959" lon="8.224481642246246">
        <ele>1695.9000000000001</ele>
        <time>2013-04-07T08:55:06Z</time>
      </trkpt>
      <trkpt lat="46.24430718831718" lon="8.224410060793161">
        <ele>1697.8299999999999</ele>
        <time>2013-04-07T08:55:20Z</time>
      </trkpt>
      <trkpt lat="46.244255220517516" lon="8.224437972530723">
        <ele>1700.23</ele>
        <time>2013-04-07T08:55:34Z</time>
      </trkpt>
      <trkpt lat="46.244198977947235" lon="8.224490443244577">
        <ele>1701.6700000000001</ele>
        <time>2013-04-07T08:55:46Z</time>
      </trkpt>
      <trkpt lat="46.24413326382637" lon="8.22449698112905">
        <ele>1703.1099999999999</ele>
        <time>2013-04-07T08:55:59Z</time>
      </trkpt>
      <trkpt lat="46.244106693193316" lon="8.224510559812188">
        <ele>1705.04</ele>
        <time>2013-04-07T08:56:13Z</time>
      </trkpt>
      <trkpt lat="46.244167210534215" lon="8.224591528996825">
        <ele>1707.4400000000001</ele>
        <time>2013-04-07T08:56:26Z</time>
      </trkpt>
      <trkpt lat="46.244198894128203" lon="8.224649447947741">
        <ele>1708.8800000000001</ele>
        <time>2013-04-07T08:56:37Z</time>
      </trkpt>
      <trkpt lat="46.244223285466433" lon="8.224714240059257">
        <ele>1710.8</ele>
        <time>2013-04-07T08:56:50Z</time>
      </trkpt>
      <trkpt lat="46.244261926040053" lon="8.224779618903995">
        <ele>1712.73</ele>
        <time>2013-04-07T08:57:02Z</time>
      </trkpt>
      <trkpt lat="46.244270978495479" lon="8.224867628887296">
        <ele>1715.1300000000001</ele>
        <time>2013-04-07T08:57:16Z</time>
      </trkpt>
      <trkpt lat="46.244177855551243" lon="8.224879866465926">
        <ele>1716.5699999999999</ele>
        <time>2013-04-07T08:57:30Z</time>
      </trkpt>
      <trkpt lat="46.244171150028706" lon="8.224931331351399">
        <ele>1718.97</ele>
        <time>2013-04-07T08:57:45Z</time>
      </trkpt>
      <trkpt lat="46.244177017360926" lon="8.224963853135705">
        <ele>1720.9000000000001</ele>
        <time>2013-04-07T08:57:56Z</time>
      </trkpt>
      <trkpt lat="46.244133347645402" lon="8.224990675225854">
        <ele>1723.3</ele>
        <time>2013-04-07T08:58:10Z</time>
      </trkpt>
      <trkpt lat="46.244085906073451" lon="8.225014815106988">
        <ele>1724.26</ele>
        <time>2013-04-07T08:58:21Z</time>
      </trkpt>
      <trkpt lat="46.244053049013019" lon="8.224999476224184">
        <ele>1724.74</ele>
        <time>2013-04-07T08:58:37Z</time>
      </trkpt>
      <trkpt lat="46.243989933282137" lon="8.224980281665921">
        <ele>1726.6700000000001</ele>
        <time>2013-04-07T08:58:50Z</time>
      </trkpt>
      <trkpt lat="46.243904605507851" lon="8.224997464567423">
        <ele>1728.5899999999999</ele>
        <time>2013-04-07T08:59:05Z</time>
      </trkpt>
      <trkpt lat="46.243846686556935" lon="8.224996626377106">
        <ele>1730.03</ele>
        <time>2013-04-07T08:59:19Z</time>
      </trkpt>
      <trkpt lat="46.243800837546587" lon="8.225038787350059">
        <ele>1731.47</ele>
        <time>2013-04-07T08:59:34Z</time>
      </trkpt>
      <trkpt lat="46.243750294670463" lon="8.225092347711325">
        <ele>1732.9100000000001</ele>
        <time>2013-04-07T08:59:47Z</time>
      </trkpt>
      <trkpt lat="46.243746606633067" lon="8.225091006606817">
        <ele>1733.3900000000001</ele>
        <time>2013-04-07T08:59:48Z</time>
      </trkpt>
      <trkpt lat="46.243677455931902" lon="8.225079355761409">
        <ele>1733.3900000000001</ele>
        <time>2013-04-07T09:00:02Z</time>
      </trkpt>
      <trkpt lat="46.243657087907195" lon="8.225098131224513">
        <ele>1735.8</ele>
        <time>2013-04-07T09:00:15Z</time>
      </trkpt>
      <trkpt lat="46.243640324100852" lon="8.225118583068252">
        <ele>1736.28</ele>
        <time>2013-04-07T09:00:26Z</time>
      </trkpt>
      <trkpt lat="46.243681060150266" lon="8.225097628310323">
        <ele>1736.28</ele>
        <time>2013-04-07T09:00:35Z</time>
      </trkpt>
      <trkpt lat="46.243692710995674" lon="8.225105926394463">
        <ele>1736.76</ele>
        <time>2013-04-07T09:00:44Z</time>
      </trkpt>
      <trkpt lat="46.243710396811366" lon="8.225162671878934">
        <ele>1738.2</ele>
        <time>2013-04-07T09:00:56Z</time>
      </trkpt>
      <trkpt lat="46.243640743196011" lon="8.225201815366745">
        <ele>1740.5999999999999</ele>
        <time>2013-04-07T09:01:11Z</time>
      </trkpt>
      <trkpt lat="46.243576286360621" lon="8.225218914449215">
        <ele>1742.05</ele>
        <time>2013-04-07T09:01:24Z</time>
      </trkpt>
      <trkpt lat="46.243505207821727" lon="8.225188404321671">
        <ele>1742.53</ele>
        <time>2013-04-07T09:01:40Z</time>
      </trkpt>
      <trkpt lat="46.243479643017054" lon="8.225208856165409">
        <ele>1741.5699999999999</ele>
        <time>2013-04-07T09:01:57Z</time>
      </trkpt>
      <trkpt lat="46.243514008820057" lon="8.225194187834859">
        <ele>1742.53</ele>
        <time>2013-04-07T09:02:12Z</time>
      </trkpt>
      <trkpt lat="46.243503028526902" lon="8.225202653557062">
        <ele>1742.53</ele>
        <time>2013-04-07T09:02:35Z</time>
      </trkpt>
      <trkpt lat="46.243485091254115" lon="8.225195612758398">
        <ele>1742.05</ele>
        <time>2013-04-07T09:02:53Z</time>
      </trkpt>
      <trkpt lat="46.243454413488507" lon="8.225189577788115">
        <ele>1741.5699999999999</ele>
        <time>2013-04-07T09:03:15Z</time>
      </trkpt>
      <trkpt lat="46.243396159261465" lon="8.225271720439196">
        <ele>1743.97</ele>
        <time>2013-04-07T09:03:29Z</time>
      </trkpt>
      <trkpt lat="46.243376294150949" lon="8.225323855876923">
        <ele>1746.8499999999999</ele>
        <time>2013-04-07T09:03:43Z</time>
      </trkpt>
      <trkpt lat="46.243427591398358" lon="8.225356293842197">
        <ele>1749.26</ele>
        <time>2013-04-07T09:03:54Z</time>
      </trkpt>
      <trkpt lat="46.243400014936924" lon="8.225394515320659">
        <ele>1751.6600000000001</ele>
        <time>2013-04-07T09:04:11Z</time>
      </trkpt>
      <trkpt lat="46.243393896147609" lon="8.225465258583427">
        <ele>1753.5799999999999</ele>
        <time>2013-04-07T09:04:24Z</time>
      </trkpt>
      <trkpt lat="46.243375204503536" lon="8.225524351000786">
        <ele>1754.0599999999999</ele>
        <time>2013-04-07T09:04:38Z</time>
      </trkpt>
      <trkpt lat="46.243321895599365" lon="8.225596351549029">
        <ele>1756.47</ele>
        <time>2013-04-07T09:04:49Z</time>
      </trkpt>
      <trkpt lat="46.243280237540603" lon="8.225643625482917">
        <ele>1756.95</ele>
        <time>2013-04-07T09:05:00Z</time>
      </trkpt>
      <trkpt lat="46.243231203407049" lon="8.22575518861413">
        <ele>1757.9100000000001</ele>
        <time>2013-04-07T09:05:13Z</time>
      </trkpt>
      <trkpt lat="46.243224246427417" lon="8.225782597437501">
        <ele>1757.4300000000001</ele>
        <time>2013-04-07T09:05:15Z</time>
      </trkpt>
      <trkpt lat="46.243145456537604" lon="8.225842611864209">
        <ele>1757.9100000000001</ele>
        <time>2013-04-07T09:05:26Z</time>
      </trkpt>
      <trkpt lat="46.243050405755639" lon="8.225946547463536">
        <ele>1755.99</ele>
        <time>2013-04-07T09:05:41Z</time>
      </trkpt>
      <trkpt lat="46.24301721341908" lon="8.22600731626153">
        <ele>1757.4300000000001</ele>
        <time>2013-04-07T09:05:54Z</time>
      </trkpt>
      <trkpt lat="46.242934735491872" lon="8.22603908367455">
        <ele>1756.95</ele>
        <time>2013-04-07T09:06:05Z</time>
      </trkpt>
      <trkpt lat="46.242854436859488" lon="8.226087782531977">
        <ele>1756.47</ele>
        <time>2013-04-07T09:06:16Z</time>
      </trkpt>
      <trkpt lat="46.242827782407403" lon="8.226127428933978">
        <ele>1756.95</ele>
        <time>2013-04-07T09:06:31Z</time>
      </trkpt>
      <trkpt lat="46.242784699425101" lon="8.226172020658851">
        <ele>1755.99</ele>
        <time>2013-04-07T09:06:45Z</time>
      </trkpt>
      <trkpt lat="46.242760308086872" lon="8.226211918517947">
        <ele>1755.5</ele>
        <time>2013-04-07T09:07:03Z</time>
      </trkpt>
      <trkpt lat="46.242676991969347" lon="8.226332869380713">
        <ele>1755.5</ele>
        <time>2013-04-07T09:07:18Z</time>
      </trkpt>
      <trkpt lat="46.242567021399736" lon="8.226408055052161">
        <ele>1754.54</ele>
        <time>2013-04-07T09:07:33Z</time>
      </trkpt>
      <trkpt lat="46.242522681131959" lon="8.226484665647149">
        <ele>1755.5</ele>
        <time>2013-04-07T09:07:46Z</time>
      </trkpt>
      <trkpt lat="46.242471635341644" lon="8.226569909602404">
        <ele>1755.02</ele>
        <time>2013-04-07T09:07:59Z</time>
      </trkpt>
      <trkpt lat="46.242428636178374" lon="8.226612908765674">
        <ele>1754.54</ele>
        <time>2013-04-07T09:08:17Z</time>
      </trkpt>
      <trkpt lat="46.242346912622452" lon="8.22667283937335">
        <ele>1753.0999999999999</ele>
        <time>2013-04-07T09:08:30Z</time>
      </trkpt>
      <trkpt lat="46.242273990064859" lon="8.22677006945014">
        <ele>1753.5799999999999</ele>
        <time>2013-04-07T09:08:45Z</time>
      </trkpt>
      <trkpt lat="46.242230655625463" lon="8.226865036413074">
        <ele>1753.0999999999999</ele>
        <time>2013-04-07T09:08:58Z</time>
      </trkpt>
      <trkpt lat="46.242229398339987" lon="8.226900575682521">
        <ele>1753.5799999999999</ele>
        <time>2013-04-07T09:09:02Z</time>
      </trkpt>
      <trkpt lat="46.242207018658519" lon="8.227014988660812">
        <ele>1754.54</ele>
        <time>2013-04-07T09:09:13Z</time>
      </trkpt>
      <trkpt lat="46.242175502702594" lon="8.227122528478503">
        <ele>1754.54</ele>
        <time>2013-04-07T09:09:26Z</time>
      </trkpt>
      <trkpt lat="46.242158738896251" lon="8.227225625887513">
        <ele>1753.5799999999999</ele>
        <time>2013-04-07T09:09:40Z</time>
      </trkpt>
      <trkpt lat="46.242122948169708" lon="8.22723233141005">
        <ele>1752.1400000000001</ele>
        <time>2013-04-07T09:09:52Z</time>
      </trkpt>
      <trkpt lat="46.242103166878223" lon="8.227234007790685">
        <ele>1752.1400000000001</ele>
        <time>2013-04-07T09:10:10Z</time>
      </trkpt>
      <trkpt lat="46.242134012281895" lon="8.227205341681838">
        <ele>1753.5799999999999</ele>
        <time>2013-04-07T09:10:21Z</time>
      </trkpt>
      <trkpt lat="46.242133090272546" lon="8.227198887616396">
        <ele>1753.5799999999999</ele>
        <time>2013-04-07T09:10:40Z</time>
      </trkpt>
      <trkpt lat="46.242143483832479" lon="8.22720492258668">
        <ele>1753.0999999999999</ele>
        <time>2013-04-07T09:10:58Z</time>
      </trkpt>
      <trkpt lat="46.242144489660859" lon="8.227191846817732">
        <ele>1753.0999999999999</ele>
        <time>2013-04-07T09:11:12Z</time>
      </trkpt>
      <trkpt lat="46.24215186573565" lon="8.227284466847777">
        <ele>1754.54</ele>
        <time>2013-04-07T09:11:26Z</time>
      </trkpt>
      <trkpt lat="46.242149518802762" lon="8.227311037480831">
        <ele>1754.54</ele>
        <time>2013-04-07T09:11:43Z</time>
      </trkpt>
      <trkpt lat="46.242161504924297" lon="8.227433832362294">
        <ele>1754.0599999999999</ele>
        <time>2013-04-07T09:11:54Z</time>
      </trkpt>
      <trkpt lat="46.242166366428137" lon="8.227509101852775">
        <ele>1753.0999999999999</ele>
        <time>2013-04-07T09:12:07Z</time>
      </trkpt>
      <trkpt lat="46.242157397791743" lon="8.227503821253777">
        <ele>1752.1400000000001</ele>
        <time>2013-04-07T09:12:24Z</time>
      </trkpt>
      <trkpt lat="46.242138957604766" lon="8.227533660829067">
        <ele>1753.0999999999999</ele>
        <time>2013-04-07T09:12:35Z</time>
      </trkpt>
      <trkpt lat="46.242128983139992" lon="8.227538354694843">
        <ele>1753.0999999999999</ele>
        <time>2013-04-07T09:13:06Z</time>
      </trkpt>
      <trkpt lat="46.242172485217452" lon="8.227637512609363">
        <ele>1754.0599999999999</ele>
        <time>2013-04-07T09:13:20Z</time>
      </trkpt>
      <trkpt lat="46.242173323407769" lon="8.227628376334906">
        <ele>1754.54</ele>
        <time>2013-04-07T09:13:33Z</time>
      </trkpt>
      <trkpt lat="46.242171060293913" lon="8.227634243667126">
        <ele>1754.54</ele>
        <time>2013-04-07T09:13:56Z</time>
      </trkpt>
      <trkpt lat="46.24217189848423" lon="8.227644385769963">
        <ele>1754.0599999999999</ele>
        <time>2013-04-07T09:14:17Z</time>
      </trkpt>
      <trkpt lat="46.242184722796082" lon="8.227654611691833">
        <ele>1755.02</ele>
        <time>2013-04-07T09:14:43Z</time>
      </trkpt>
      <trkpt lat="46.242181370034814" lon="8.227635081857443">
        <ele>1755.02</ele>
        <time>2013-04-07T09:15:06Z</time>
      </trkpt>
      <trkpt lat="46.242174496874213" lon="8.227622928097844">
        <ele>1755.02</ele>
        <time>2013-04-07T09:15:18Z</time>
      </trkpt>
      <trkpt lat="46.242169551551342" lon="8.227621419355273">
        <ele>1755.02</ele>
        <time>2013-04-07T09:15:42Z</time>
      </trkpt>
      <trkpt lat="46.242163516581059" lon="8.227631645277143">
        <ele>1755.02</ele>
        <time>2013-04-07T09:16:03Z</time>
      </trkpt>
      <trkpt lat="46.242187405005097" lon="8.227643799036741">
        <ele>1754.54</ele>
        <time>2013-04-07T09:16:19Z</time>
      </trkpt>
      <trkpt lat="46.242176843807101" lon="8.227659808471799">
        <ele>1755.5</ele>
        <time>2013-04-07T09:16:35Z</time>
      </trkpt>
      <trkpt lat="46.242156978696585" lon="8.22765838354826">
        <ele>1754.54</ele>
        <time>2013-04-07T09:16:49Z</time>
      </trkpt>
      <trkpt lat="46.242176424711943" lon="8.227639188989997">
        <ele>1754.0599999999999</ele>
        <time>2013-04-07T09:17:11Z</time>
      </trkpt>
      <trkpt lat="46.24216552823782" lon="8.227620832622051">
        <ele>1754.0599999999999</ele>
        <time>2013-04-07T09:17:29Z</time>
      </trkpt>
      <trkpt lat="46.242166785523295" lon="8.227553945034742">
        <ele>1754.0599999999999</ele>
        <time>2013-04-07T09:17:36Z</time>
      </trkpt>
      <trkpt lat="46.242135772481561" lon="8.227503402158618">
        <ele>1753.0999999999999</ele>
        <time>2013-04-07T09:17:41Z</time>
      </trkpt>
      <trkpt lat="46.242147171869874" lon="8.227411536499858">
        <ele>1753.5799999999999</ele>
        <time>2013-04-07T09:17:47Z</time>
      </trkpt>
      <trkpt lat="46.242129653692245" lon="8.227263679727912">
        <ele>1753.5799999999999</ele>
        <time>2013-04-07T09:17:59Z</time>
      </trkpt>
      <trkpt lat="46.24213770031929" lon="8.227194864302874">
        <ele>1753.5799999999999</ele>
        <time>2013-04-07T09:18:11Z</time>
      </trkpt>
      <trkpt lat="46.242150943726301" lon="8.227247251197696">
        <ele>1753.5799999999999</ele>
        <time>2013-04-07T09:18:23Z</time>
      </trkpt>
      <trkpt lat="46.242148177698255" lon="8.227288154885173">
        <ele>1754.0599999999999</ele>
        <time>2013-04-07T09:18:34Z</time>
      </trkpt>
      <trkpt lat="46.242151195183396" lon="8.227386642247438">
        <ele>1754.0599999999999</ele>
        <time>2013-04-07T09:18:50Z</time>
      </trkpt>
      <trkpt lat="46.242151027545333" lon="8.227392006665468">
        <ele>1754.54</ele>
        <time>2013-04-07T09:18:55Z</time>
      </trkpt>
      <trkpt lat="46.2421665340662" lon="8.227426707744598">
        <ele>1754.54</ele>
        <time>2013-04-07T09:19:08Z</time>
      </trkpt>
      <trkpt lat="46.242159409448504" lon="8.227477166801691">
        <ele>1753.5799999999999</ele>
        <time>2013-04-07T09:19:13Z</time>
      </trkpt>
      <trkpt lat="46.242158990353346" lon="8.227565595880151">
        <ele>1752.6199999999999</ele>
        <time>2013-04-07T09:19:28Z</time>
      </trkpt>
      <trkpt lat="46.242156559601426" lon="8.227580599486828">
        <ele>1753.0999999999999</ele>
        <time>2013-04-07T09:19:44Z</time>
      </trkpt>
      <trkpt lat="46.242168126627803" lon="8.227577917277813">
        <ele>1752.6199999999999</ele>
        <time>2013-04-07T09:20:08Z</time>
      </trkpt>
      <trkpt lat="46.242148596793413" lon="8.227557549253106">
        <ele>1753.0999999999999</ele>
        <time>2013-04-07T09:20:34Z</time>
      </trkpt>
      <trkpt lat="46.242164103314281" lon="8.227584455162287">
        <ele>1753.0999999999999</ele>
        <time>2013-04-07T09:20:54Z</time>
      </trkpt>
      <trkpt lat="46.2421665340662" lon="8.227580599486828">
        <ele>1753.0999999999999</ele>
        <time>2013-04-07T09:21:13Z</time>
      </trkpt>
      <trkpt lat="46.242147255688906" lon="8.22760951705277">
        <ele>1753.0999999999999</ele>
        <time>2013-04-07T09:21:32Z</time>
      </trkpt>
      <trkpt lat="46.242159493267536" lon="8.227605577558279">
        <ele>1753.5799999999999</ele>
        <time>2013-04-07T09:21:46Z</time>
      </trkpt>
      <trkpt lat="46.242164522409439" lon="8.227579006925225">
        <ele>1753.5799999999999</ele>
        <time>2013-04-07T09:22:04Z</time>
      </trkpt>
      <trkpt lat="46.242181705310941" lon="8.227650420740247">
        <ele>1754.54</ele>
        <time>2013-04-07T09:22:16Z</time>
      </trkpt>
      <trkpt lat="46.242188327014446" lon="8.227688306942582">
        <ele>1755.02</ele>
        <time>2013-04-07T09:22:31Z</time>
      </trkpt>
      <trkpt lat="46.24216552823782" lon="8.227775478735566">
        <ele>1755.02</ele>
        <time>2013-04-07T09:22:43Z</time>
      </trkpt>
      <trkpt lat="46.242169383913279" lon="8.227855274453759">
        <ele>1755.5</ele>
        <time>2013-04-07T09:22:55Z</time>
      </trkpt>
      <trkpt lat="46.242182878777385" lon="8.22793691419065">
        <ele>1755.99</ele>
        <time>2013-04-07T09:23:06Z</time>
      </trkpt>
      <trkpt lat="46.24220659956336" lon="8.227988043799996">
        <ele>1755.5</ele>
        <time>2013-04-07T09:23:18Z</time>
      </trkpt>
      <trkpt lat="46.24222319573164" lon="8.22808938100934">
        <ele>1755.99</ele>
        <time>2013-04-07T09:23:32Z</time>
      </trkpt>
      <trkpt lat="46.242268877103925" lon="8.228105809539557">
        <ele>1756.95</ele>
        <time>2013-04-07T09:23:45Z</time>
      </trkpt>
      <trkpt lat="46.242290334776044" lon="8.228105306625366">
        <ele>1756.47</ele>
        <time>2013-04-07T09:24:01Z</time>
      </trkpt>
      <trkpt lat="46.242343224585056" lon="8.228150904178619">
        <ele>1754.0599999999999</ele>
        <time>2013-04-07T09:24:16Z</time>
      </trkpt>
      <trkpt lat="46.242416733875871" lon="8.22819977067411">
        <ele>1754.0599999999999</ele>
        <time>2013-04-07T09:24:29Z</time>
      </trkpt>
      <trkpt lat="46.242436096072197" lon="8.228245535865426">
        <ele>1753.5799999999999</ele>
        <time>2013-04-07T09:24:49Z</time>
      </trkpt>
      <trkpt lat="46.242467109113932" lon="8.228277722373605">
        <ele>1752.6199999999999</ele>
        <time>2013-04-07T09:25:06Z</time>
      </trkpt>
      <trkpt lat="46.242456967011094" lon="8.22829800657928">
        <ele>1752.1400000000001</ele>
        <time>2013-04-07T09:25:21Z</time>
      </trkpt>
      <trkpt lat="46.242457972839475" lon="8.228299766778946">
        <ele>1752.1400000000001</ele>
        <time>2013-04-07T09:25:22Z</time>
      </trkpt>
      <trkpt lat="46.242458894848824" lon="8.228325415402651">
        <ele>1751.6600000000001</ele>
        <time>2013-04-07T09:25:26Z</time>
      </trkpt>
      <trkpt lat="46.24247339554131" lon="8.228339916095138">
        <ele>1751.6600000000001</ele>
        <time>2013-04-07T09:25:28Z</time>
      </trkpt>
      <trkpt lat="46.242494853213429" lon="8.228354249149561">
        <ele>1751.1800000000001</ele>
        <time>2013-04-07T09:25:31Z</time>
      </trkpt>
      <trkpt lat="46.242525614798069" lon="8.228398924693465">
        <ele>1750.7</ele>
        <time>2013-04-07T09:25:36Z</time>
      </trkpt>
      <trkpt lat="46.242565764114261" lon="8.228462962433696">
        <ele>1749.74</ele>
        <time>2013-04-07T09:25:42Z</time>
      </trkpt>
      <trkpt lat="46.242589065805078" lon="8.228547871112824">
        <ele>1746.3699999999999</ele>
        <time>2013-04-07T09:25:52Z</time>
      </trkpt>
      <trkpt lat="46.242590071633458" lon="8.228551307693124">
        <ele>1746.3699999999999</ele>
        <time>2013-04-07T09:25:53Z</time>
      </trkpt>
      <trkpt lat="46.242649331688881" lon="8.228629846125841">
        <ele>1744.45</ele>
        <time>2013-04-07T09:26:08Z</time>
      </trkpt>
      <trkpt lat="46.242730217054486" lon="8.228723471984267">
        <ele>1744.45</ele>
        <time>2013-04-07T09:26:20Z</time>
      </trkpt>
      <trkpt lat="46.242795763537288" lon="8.22886629961431">
        <ele>1741.5699999999999</ele>
        <time>2013-04-07T09:26:35Z</time>
      </trkpt>
      <trkpt lat="46.24283155426383" lon="8.228919357061386">
        <ele>1742.05</ele>
        <time>2013-04-07T09:26:47Z</time>
      </trkpt>
      <trkpt lat="46.242850162088871" lon="8.228948693722487">
        <ele>1741.5699999999999</ele>
        <time>2013-04-07T09:27:05Z</time>
      </trkpt>
      <trkpt lat="46.242873379960656" lon="8.22897819802165">
        <ele>1742.53</ele>
        <time>2013-04-07T09:27:18Z</time>
      </trkpt>
      <trkpt lat="46.242915373295546" lon="8.229002924636006">
        <ele>1743.01</ele>
        <time>2013-04-07T09:27:30Z</time>
      </trkpt>
      <trkpt lat="46.242952169850469" lon="8.229047013446689">
        <ele>1743.97</ele>
        <time>2013-04-07T09:27:44Z</time>
      </trkpt>
      <trkpt lat="46.243026852607727" lon="8.229149356484413">
        <ele>1744.9300000000001</ele>
        <time>2013-04-07T09:28:01Z</time>
      </trkpt>
      <trkpt lat="46.243060380220413" lon="8.229242144152522">
        <ele>1744.9300000000001</ele>
        <time>2013-04-07T09:28:14Z</time>
      </trkpt>
      <trkpt lat="46.243100697174668" lon="8.229271732270718">
        <ele>1745.8900000000001</ele>
        <time>2013-04-07T09:28:29Z</time>
      </trkpt>
      <trkpt lat="46.243122993037105" lon="8.229336524382234">
        <ele>1745.4100000000001</ele>
        <time>2013-04-07T09:28:44Z</time>
      </trkpt>
      <trkpt lat="46.243176721036434" lon="8.229398299008608">
        <ele>1746.8499999999999</ele>
        <time>2013-04-07T09:28:58Z</time>
      </trkpt>
      <trkpt lat="46.243211505934596" lon="8.229443561285734">
        <ele>1746.8499999999999</ele>
        <time>2013-04-07T09:29:13Z</time>
      </trkpt>
      <trkpt lat="46.243253080174327" lon="8.229461079463363">
        <ele>1747.3299999999999</ele>
        <time>2013-04-07T09:29:30Z</time>
      </trkpt>
      <trkpt lat="46.243292978033423" lon="8.229533918201923">
        <ele>1748.29</ele>
        <time>2013-04-07T09:29:46Z</time>
      </trkpt>
      <trkpt lat="46.243323655799031" lon="8.229572977870703">
        <ele>1747.8099999999999</ele>
        <time>2013-04-07T09:29:58Z</time>
      </trkpt>
      <trkpt lat="46.243397165089846" lon="8.229617485776544">
        <ele>1749.74</ele>
        <time>2013-04-07T09:30:12Z</time>
      </trkpt>
      <trkpt lat="46.243449132889509" lon="8.229649337008596">
        <ele>1749.74</ele>
        <time>2013-04-07T09:30:26Z</time>
      </trkpt>
      <trkpt lat="46.243531191721559" lon="8.229693593457341">
        <ele>1751.1800000000001</ele>
        <time>2013-04-07T09:30:43Z</time>
      </trkpt>
      <trkpt lat="46.24363043345511" lon="8.229761570692062">
        <ele>1752.1400000000001</ele>
        <time>2013-04-07T09:30:59Z</time>
      </trkpt>
      <trkpt lat="46.243656165897846" lon="8.229810437187553">
        <ele>1752.6199999999999</ele>
        <time>2013-04-07T09:31:11Z</time>
      </trkpt>
      <trkpt lat="46.243735542520881" lon="8.229908589273691">
        <ele>1754.0599999999999</ele>
        <time>2013-04-07T09:31:26Z</time>
      </trkpt>
      <trkpt lat="46.243746187537909" lon="8.229907583445311">
        <ele>1754.54</ele>
        <time>2013-04-07T09:31:40Z</time>
      </trkpt>
      <trkpt lat="46.243800250813365" lon="8.22996374219656">
        <ele>1754.54</ele>
        <time>2013-04-07T09:31:52Z</time>
      </trkpt>
      <trkpt lat="46.243817266076803" lon="8.230047561228275">
        <ele>1754.54</ele>
        <time>2013-04-07T09:32:05Z</time>
      </trkpt>
      <trkpt lat="46.24389136210084" lon="8.23012107051909">
        <ele>1755.99</ele>
        <time>2013-04-07T09:32:21Z</time>
      </trkpt>
      <trkpt lat="46.243941318243742" lon="8.230186700820923">
        <ele>1756.95</ele>
        <time>2013-04-07T09:32:34Z</time>
      </trkpt>
      <trkpt lat="46.243968224152923" lon="8.230260293930769">
        <ele>1758.3900000000001</ele>
        <time>2013-04-07T09:32:48Z</time>
      </trkpt>
      <trkpt lat="46.244028825312853" lon="8.230315027758479">
        <ele>1759.8299999999999</ele>
        <time>2013-04-07T09:33:04Z</time>
      </trkpt>
      <trkpt lat="46.244058832526207" lon="8.230322571471334">
        <ele>1760.79</ele>
        <time>2013-04-07T09:33:21Z</time>
      </trkpt>
      <trkpt lat="46.24408045783639" lon="8.230352913960815">
        <ele>1763.2</ele>
        <time>2013-04-07T09:33:35Z</time>
      </trkpt>
      <trkpt lat="46.244089342653751" lon="8.230423154309392">
        <ele>1763.2</ele>
        <time>2013-04-07T09:33:48Z</time>
      </trkpt>
      <trkpt lat="46.244124127551913" lon="8.230486856773496">
        <ele>1764.1600000000001</ele>
        <time>2013-04-07T09:34:01Z</time>
      </trkpt>
      <trkpt lat="46.244149105623364" lon="8.230498926714063">
        <ele>1765.1199999999999</ele>
        <time>2013-04-07T09:34:15Z</time>
      </trkpt>
      <trkpt lat="46.244213730096817" lon="8.230580985546112">
        <ele>1767.04</ele>
        <time>2013-04-07T09:34:29Z</time>
      </trkpt>
      <trkpt lat="46.244257064536214" lon="8.230661116540432">
        <ele>1767.52</ele>
        <time>2013-04-07T09:34:43Z</time>
      </trkpt>
      <trkpt lat="46.244269553571939" lon="8.230663547292352">
        <ele>1768.96</ele>
        <time>2013-04-07T09:34:56Z</time>
      </trkpt>
      <trkpt lat="46.244296375662088" lon="8.230710234493017">
        <ele>1770.8900000000001</ele>
        <time>2013-04-07T09:35:09Z</time>
      </trkpt>
      <trkpt lat="46.244313139468431" lon="8.230779049918056">
        <ele>1771.3699999999999</ele>
        <time>2013-04-07T09:35:22Z</time>
      </trkpt>
      <trkpt lat="46.244334848597646" lon="8.230820540338755">
        <ele>1771.8499999999999</ele>
        <time>2013-04-07T09:35:36Z</time>
      </trkpt>
      <trkpt lat="46.244362089782953" lon="8.230837052688003">
        <ele>1771.8499999999999</ele>
        <time>2013-04-07T09:35:50Z</time>
      </trkpt>
      <trkpt lat="46.244355216622353" lon="8.23085549287498">
        <ele>1771.8499999999999</ele>
        <time>2013-04-07T09:36:06Z</time>
      </trkpt>
      <trkpt lat="46.244364771991968" lon="8.23086379095912">
        <ele>1772.8099999999999</ele>
        <time>2013-04-07T09:36:24Z</time>
      </trkpt>
      <trkpt lat="46.244392348453403" lon="8.230828084051609">
        <ele>1773.77</ele>
        <time>2013-04-07T09:36:39Z</time>
      </trkpt>
      <trkpt lat="46.244402825832367" lon="8.230843003839254">
        <ele>1774.25</ele>
        <time>2013-04-07T09:36:42Z</time>
      </trkpt>
      <trkpt lat="46.244449177756906" lon="8.230933444574475">
        <ele>1775.21</ele>
        <time>2013-04-07T09:36:55Z</time>
      </trkpt>
      <trkpt lat="46.244444148615003" lon="8.230977198109031">
        <ele>1774.73</ele>
        <time>2013-04-07T09:37:11Z</time>
      </trkpt>
      <trkpt lat="46.244487147778273" lon="8.230998739600182">
        <ele>1776.1700000000001</ele>
        <time>2013-04-07T09:37:27Z</time>
      </trkpt>
      <trkpt lat="46.244555460289121" lon="8.231064537540078">
        <ele>1777.1300000000001</ele>
        <time>2013-04-07T09:37:39Z</time>
      </trkpt>
      <trkpt lat="46.244557639583945" lon="8.231076691299677">
        <ele>1778.0999999999999</ele>
        <time>2013-04-07T09:37:40Z</time>
      </trkpt>
      <trkpt lat="46.244612708687782" lon="8.231180710718036">
        <ele>1777.6099999999999</ele>
        <time>2013-04-07T09:37:54Z</time>
      </trkpt>
      <trkpt lat="46.244704658165574" lon="8.231244999915361">
        <ele>1779.54</ele>
        <time>2013-04-07T09:38:07Z</time>
      </trkpt>
      <trkpt lat="46.244727624580264" lon="8.231253633275628">
        <ele>1780.02</ele>
        <time>2013-04-07T09:38:10Z</time>
      </trkpt>
      <trkpt lat="46.244808593764901" lon="8.231336362659931">
        <ele>1780.5</ele>
        <time>2013-04-07T09:38:23Z</time>
      </trkpt>
      <trkpt lat="46.244854275137186" lon="8.231359077617526">
        <ele>1781.9400000000001</ele>
        <time>2013-04-07T09:38:35Z</time>
      </trkpt>
      <trkpt lat="46.244893921539187" lon="8.231375673785806">
        <ele>1781.9400000000001</ele>
        <time>2013-04-07T09:38:48Z</time>
      </trkpt>
      <trkpt lat="46.244958713650703" lon="8.231415739282966">
        <ele>1784.8199999999999</ele>
        <time>2013-04-07T09:39:02Z</time>
      </trkpt>
      <trkpt lat="46.24501084908843" lon="8.231451865285635">
        <ele>1786.75</ele>
        <time>2013-04-07T09:39:15Z</time>
      </trkpt>
      <trkpt lat="46.245052171871066" lon="8.231482123956084">
        <ele>1788.1900000000001</ele>
        <time>2013-04-07T09:39:27Z</time>
      </trkpt>
      <trkpt lat="46.24510413967073" lon="8.231509029865265">
        <ele>1791.0699999999999</ele>
        <time>2013-04-07T09:39:42Z</time>
      </trkpt>
      <trkpt lat="46.245159627869725" lon="8.231535935774446">
        <ele>1791.0699999999999</ele>
        <time>2013-04-07T09:39:57Z</time>
      </trkpt>
      <trkpt lat="46.245214529335499" lon="8.231541803106666">
        <ele>1793</ele>
        <time>2013-04-07T09:40:12Z</time>
      </trkpt>
      <trkpt lat="46.245233723893762" lon="8.231558734551072">
        <ele>1793.48</ele>
        <time>2013-04-07T09:40:31Z</time>
      </trkpt>
      <trkpt lat="46.245284685865045" lon="8.231548173353076">
        <ele>1795.4000000000001</ele>
        <time>2013-04-07T09:40:44Z</time>
      </trkpt>
      <trkpt lat="46.245347466319799" lon="8.231600392609835">
        <ele>1797.3199999999999</ele>
        <time>2013-04-07T09:40:57Z</time>
      </trkpt>
      <trkpt lat="46.245413431897759" lon="8.231670716777444">
        <ele>1797.3199999999999</ele>
        <time>2013-04-07T09:41:10Z</time>
      </trkpt>
      <trkpt lat="46.245461627840996" lon="8.231730731204152">
        <ele>1799.73</ele>
        <time>2013-04-07T09:41:23Z</time>
      </trkpt>
      <trkpt lat="46.245494317263365" lon="8.231770377606154">
        <ele>1802.1300000000001</ele>
        <time>2013-04-07T09:41:36Z</time>
      </trkpt>
      <trkpt lat="46.245524492114782" lon="8.23179803788662">
        <ele>1803.0899999999999</ele>
        <time>2013-04-07T09:41:51Z</time>
      </trkpt>
      <trkpt lat="46.245567994192243" lon="8.231857130303979">
        <ele>1806.45</ele>
        <time>2013-04-07T09:42:05Z</time>
      </trkpt>
      <trkpt lat="46.245583919808269" lon="8.231917480006814">
        <ele>1807.4200000000001</ele>
        <time>2013-04-07T09:42:19Z</time>
      </trkpt>
      <trkpt lat="46.245598420500755" lon="8.231943212449551">
        <ele>1807.4200000000001</ele>
        <time>2013-04-07T09:42:31Z</time>
      </trkpt>
      <trkpt lat="46.245638569816947" lon="8.231999538838863">
        <ele>1807.4200000000001</ele>
        <time>2013-04-07T09:42:47Z</time>
      </trkpt>
      <trkpt lat="46.245675114914775" lon="8.232036754488945">
        <ele>1807.9000000000001</ele>
        <time>2013-04-07T09:42:53Z</time>
      </trkpt>
      <trkpt lat="46.245770081877708" lon="8.232091488316655">
        <ele>1809.3399999999999</ele>
        <time>2013-04-07T09:43:07Z</time>
      </trkpt>
      <trkpt lat="46.245850967243314" lon="8.232143456116319">
        <ele>1810.78</ele>
        <time>2013-04-07T09:43:20Z</time>
      </trkpt>
      <trkpt lat="46.245894134044647" lon="8.2322514988482">
        <ele>1811.74</ele>
        <time>2013-04-07T09:43:36Z</time>
      </trkpt>
      <trkpt lat="46.245917603373528" lon="8.232343532145023">
        <ele>1812.22</ele>
        <time>2013-04-07T09:43:51Z</time>
      </trkpt>
      <trkpt lat="46.245925398543477" lon="8.232377897948027">
        <ele>1812.22</ele>
        <time>2013-04-07T09:44:12Z</time>
      </trkpt>
      <trkpt lat="46.245914166793227" lon="8.232411174103618">
        <ele>1812.22</ele>
        <time>2013-04-07T09:44:24Z</time>
      </trkpt>
      <trkpt lat="46.245905952528119" lon="8.232414191588759">
        <ele>1812.22</ele>
        <time>2013-04-07T09:44:45Z</time>
      </trkpt>
      <trkpt lat="46.24591919593513" lon="8.232434978708625">
        <ele>1812.22</ele>
        <time>2013-04-07T09:44:59Z</time>
      </trkpt>
      <trkpt lat="46.245920453220606" lon="8.232456855475903">
        <ele>1812.22</ele>
        <time>2013-04-07T09:45:19Z</time>
      </trkpt>
      <trkpt lat="46.245932271704078" lon="8.232455011457205">
        <ele>1812.22</ele>
        <time>2013-04-07T09:45:39Z</time>
      </trkpt>
      <trkpt lat="46.245920201763511" lon="8.232462555170059">
        <ele>1812.22</ele>
        <time>2013-04-07T09:46:02Z</time>
      </trkpt>
      <trkpt lat="46.245920117944479" lon="8.232483007013798">
        <ele>1811.74</ele>
        <time>2013-04-07T09:46:26Z</time>
      </trkpt>
      <trkpt lat="46.245910311117768" lon="8.232495579868555">
        <ele>1811.74</ele>
        <time>2013-04-07T09:46:28Z</time>
      </trkpt>
      <trkpt lat="46.24587913043797" lon="8.232606472447515">
        <ele>1811.26</ele>
        <time>2013-04-07T09:46:42Z</time>
      </trkpt>
      <trkpt lat="46.245877286419272" lon="8.232634048908949">
        <ele>1810.78</ele>
        <time>2013-04-07T09:46:44Z</time>
      </trkpt>
      <trkpt lat="46.245883069932461" lon="8.232678975909948">
        <ele>1810.3</ele>
        <time>2013-04-07T09:46:47Z</time>
      </trkpt>
      <trkpt lat="46.245976695790887" lon="8.232793221250176">
        <ele>1809.8199999999999</ele>
        <time>2013-04-07T09:47:02Z</time>
      </trkpt>
      <trkpt lat="46.245991196483374" lon="8.232960859313607">
        <ele>1811.26</ele>
        <time>2013-04-07T09:47:16Z</time>
      </trkpt>
      <trkpt lat="46.246019527316093" lon="8.233081307262182">
        <ele>1812.22</ele>
        <time>2013-04-07T09:47:31Z</time>
      </trkpt>
      <trkpt lat="46.246014498174191" lon="8.233084073290229">
        <ele>1812.22</ele>
        <time>2013-04-07T09:47:45Z</time>
      </trkpt>
      <trkpt lat="46.246018102392554" lon="8.233107374981046">
        <ele>1812.7</ele>
        <time>2013-04-07T09:47:50Z</time>
      </trkpt>
      <trkpt lat="46.245948448777199" lon="8.233164371922612">
        <ele>1810.3</ele>
        <time>2013-04-07T09:48:02Z</time>
      </trkpt>
      <trkpt lat="46.246085157617927" lon="8.233166467398405">
        <ele>1809.8199999999999</ele>
        <time>2013-04-07T09:48:17Z</time>
      </trkpt>
      <trkpt lat="46.246197307482362" lon="8.233305020257831">
        <ele>1808.3800000000001</ele>
        <time>2013-04-07T09:48:31Z</time>
      </trkpt>
      <trkpt lat="46.24621482565999" lon="8.233376685529947">
        <ele>1806.9400000000001</ele>
        <time>2013-04-07T09:48:36Z</time>
      </trkpt>
      <trkpt lat="46.246190099045634" lon="8.233486656099558">
        <ele>1808.8599999999999</ele>
        <time>2013-04-07T09:48:49Z</time>
      </trkpt>
      <trkpt lat="46.246175095438957" lon="8.233571816235781">
        <ele>1812.7</ele>
        <time>2013-04-07T09:49:01Z</time>
      </trkpt>
      <trkpt lat="46.246174341067672" lon="8.233582209795713">
        <ele>1812.7</ele>
        <time>2013-04-07T09:49:02Z</time>
      </trkpt>
      <trkpt lat="46.246168138459325" lon="8.233612217009068">
        <ele>1812.7</ele>
        <time>2013-04-07T09:49:05Z</time>
      </trkpt>
      <trkpt lat="46.246082307770848" lon="8.233701987192035">
        <ele>1813.1800000000001</ele>
        <time>2013-04-07T09:49:20Z</time>
      </trkpt>
      <trkpt lat="46.246055150404572" lon="8.233753787353635">
        <ele>1813.1800000000001</ele>
        <time>2013-04-07T09:49:37Z</time>
      </trkpt>
      <trkpt lat="46.246014330536127" lon="8.233795445412397">
        <ele>1812.7</ele>
        <time>2013-04-07T09:49:44Z</time>
      </trkpt>
      <trkpt lat="46.245914502069354" lon="8.23378630913794">
        <ele>1811.74</ele>
        <time>2013-04-07T09:49:53Z</time>
      </trkpt>
      <trkpt lat="46.245899749919772" lon="8.233797121793032">
        <ele>1811.26</ele>
        <time>2013-04-07T09:49:55Z</time>
      </trkpt>
      <trkpt lat="46.245871083810925" lon="8.233822016045451">
        <ele>1810.3</ele>
        <time>2013-04-07T09:49:59Z</time>
      </trkpt>
      <trkpt lat="46.245862198993564" lon="8.233948918059468">
        <ele>1812.22</ele>
        <time>2013-04-07T09:50:13Z</time>
      </trkpt>
      <trkpt lat="46.245816769078374" lon="8.234077161177993">
        <ele>1811.74</ele>
        <time>2013-04-07T09:50:26Z</time>
      </trkpt>
      <trkpt lat="46.245706463232636" lon="8.234089063480496">
        <ele>1809.3399999999999</ele>
        <time>2013-04-07T09:50:36Z</time>
      </trkpt>
      <trkpt lat="46.245686933398247" lon="8.234086045995355">
        <ele>1808.8599999999999</ele>
        <time>2013-04-07T09:50:38Z</time>
      </trkpt>
      <trkpt lat="46.245654076337814" lon="8.234085962176323">
        <ele>1808.8599999999999</ele>
        <time>2013-04-07T09:50:41Z</time>
      </trkpt>
      <trkpt lat="46.245590038597584" lon="8.23416399769485">
        <ele>1807.9000000000001</ele>
        <time>2013-04-07T09:50:52Z</time>
      </trkpt>
      <trkpt lat="46.245496748015285" lon="8.234270447865129">
        <ele>1806.45</ele>
        <time>2013-04-07T09:51:05Z</time>
      </trkpt>
      <trkpt lat="46.245475122705102" lon="8.234226107597351">
        <ele>1805.97</ele>
        <time>2013-04-07T09:51:19Z</time>
      </trkpt>
      <trkpt lat="46.245468081906438" lon="8.234240775927901">
        <ele>1805.97</ele>
        <time>2013-04-07T09:51:22Z</time>
      </trkpt>
      <trkpt lat="46.245438912883401" lon="8.234304394572973">
        <ele>1805.97</ele>
        <time>2013-04-07T09:51:27Z</time>
      </trkpt>
      <trkpt lat="46.245286446064711" lon="8.234436409547925">
        <ele>1804.05</ele>
        <time>2013-04-07T09:51:45Z</time>
      </trkpt>
      <trkpt lat="46.245211930945516" lon="8.234518636018038">
        <ele>1803.5699999999999</ele>
        <time>2013-04-07T09:51:58Z</time>
      </trkpt>
      <trkpt lat="46.245123837143183" lon="8.234638581052423">
        <ele>1801.6500000000001</ele>
        <time>2013-04-07T09:52:13Z</time>
      </trkpt>
      <trkpt lat="46.245088633149862" lon="8.234772775322199">
        <ele>1800.21</ele>
        <time>2013-04-07T09:52:26Z</time>
      </trkpt>
      <trkpt lat="46.244992660358548" lon="8.234854163601995">
        <ele>1801.6500000000001</ele>
        <time>2013-04-07T09:52:40Z</time>
      </trkpt>
      <trkpt lat="46.244901800528169" lon="8.234976874664426">
        <ele>1803.5699999999999</ele>
        <time>2013-04-07T09:52:55Z</time>
      </trkpt>
      <trkpt lat="46.244846815243363" lon="8.235060526058078">
        <ele>1805.01</ele>
        <time>2013-04-07T09:53:05Z</time>
      </trkpt>
      <trkpt lat="46.24483441002667" lon="8.235163288190961">
        <ele>1806.45</ele>
        <time>2013-04-07T09:53:17Z</time>
      </trkpt>
      <trkpt lat="46.244854442775249" lon="8.235274599865079">
        <ele>1809.3399999999999</ele>
        <time>2013-04-07T09:53:32Z</time>
      </trkpt>
      <trkpt lat="46.244854778051376" lon="8.235368644818664">
        <ele>1811.74</ele>
        <time>2013-04-07T09:53:46Z</time>
      </trkpt>
      <trkpt lat="46.244849665090442" lon="8.235442824661732">
        <ele>1814.1500000000001</ele>
        <time>2013-04-07T09:53:59Z</time>
      </trkpt>
      <trkpt lat="46.244842205196619" lon="8.23559520766139">
        <ele>1816.0699999999999</ele>
        <time>2013-04-07T09:54:15Z</time>
      </trkpt>
      <trkpt lat="46.244826028123498" lon="8.235626304522157">
        <ele>1816.55</ele>
        <time>2013-04-07T09:54:27Z</time>
      </trkpt>
      <trkpt lat="46.244802223518491" lon="8.235723953694105">
        <ele>1818.47</ele>
        <time>2013-04-07T09:54:42Z</time>
      </trkpt>
      <trkpt lat="46.244733408093452" lon="8.235834930092096">
        <ele>1819.4300000000001</ele>
        <time>2013-04-07T09:54:57Z</time>
      </trkpt>
      <trkpt lat="46.244720164686441" lon="8.235834762454033">
        <ele>1818.95</ele>
        <time>2013-04-07T09:54:59Z</time>
      </trkpt>
      <trkpt lat="46.24465998262167" lon="8.235816322267056">
        <ele>1818.47</ele>
        <time>2013-04-07T09:55:03Z</time>
      </trkpt>
      <trkpt lat="46.244589574635029" lon="8.235793355852366">
        <ele>1817.03</ele>
        <time>2013-04-07T09:55:09Z</time>
      </trkpt>
      <trkpt lat="46.244514808058739" lon="8.235845072194934">
        <ele>1815.5899999999999</ele>
        <time>2013-04-07T09:55:18Z</time>
      </trkpt>
      <trkpt lat="46.244401820003986" lon="8.235909948125482">
        <ele>1816.0699999999999</ele>
        <time>2013-04-07T09:55:33Z</time>
      </trkpt>
      <trkpt lat="46.244328562170267" lon="8.236024947836995">
        <ele>1817.99</ele>
        <time>2013-04-07T09:55:47Z</time>
      </trkpt>
      <trkpt lat="46.244326550513506" lon="8.23604523204267">
        <ele>1818.47</ele>
        <time>2013-04-07T09:55:49Z</time>
      </trkpt>
      <trkpt lat="46.244299476966262" lon="8.236202476546168">
        <ele>1820.8699999999999</ele>
        <time>2013-04-07T09:56:04Z</time>
      </trkpt>
      <trkpt lat="46.244261842221022" lon="8.236308759078383">
        <ele>1823.28</ele>
        <time>2013-04-07T09:56:17Z</time>
      </trkpt>
      <trkpt lat="46.244250442832708" lon="8.23641805909574">
        <ele>1826.1600000000001</ele>
        <time>2013-04-07T09:56:30Z</time>
      </trkpt>
      <trkpt lat="46.244248682633042" lon="8.236503973603249">
        <ele>1828.0799999999999</ele>
        <time>2013-04-07T09:56:46Z</time>
      </trkpt>
      <trkpt lat="46.244252035394311" lon="8.236702708527446">
        <ele>1829.53</ele>
        <time>2013-04-07T09:57:02Z</time>
      </trkpt>
      <trkpt lat="46.244266955181956" lon="8.236830867826939">
        <ele>1830.97</ele>
        <time>2013-04-07T09:57:14Z</time>
      </trkpt>
      <trkpt lat="46.244270224124193" lon="8.236914183944464">
        <ele>1833.3699999999999</ele>
        <time>2013-04-07T09:57:25Z</time>
      </trkpt>
      <trkpt lat="46.244190679863095" lon="8.236972354352474">
        <ele>1835.77</ele>
        <time>2013-04-07T09:57:40Z</time>
      </trkpt>
      <trkpt lat="46.244109710678458" lon="8.237017448991537">
        <ele>1837.7</ele>
        <time>2013-04-07T09:57:55Z</time>
      </trkpt>
      <trkpt lat="46.243994375690818" lon="8.236992303282023">
        <ele>1837.7</ele>
        <time>2013-04-07T09:58:09Z</time>
      </trkpt>
      <trkpt lat="46.243985993787646" lon="8.236986016854644">
        <ele>1837.7</ele>
        <time>2013-04-07T09:58:10Z</time>
      </trkpt>
      <trkpt lat="46.243914160877466" lon="8.236955339089036">
        <ele>1838.1800000000001</ele>
        <time>2013-04-07T09:58:18Z</time>
      </trkpt>
      <trkpt lat="46.243809806182981" lon="8.236944861710072">
        <ele>1838.1800000000001</ele>
        <time>2013-04-07T09:58:31Z</time>
      </trkpt>
      <trkpt lat="46.243730597198009" lon="8.236919967457652">
        <ele>1839.6199999999999</ele>
        <time>2013-04-07T09:58:43Z</time>
      </trkpt>
      <trkpt lat="46.24359087087214" lon="8.23692231439054">
        <ele>1839.6199999999999</ele>
        <time>2013-04-07T09:58:58Z</time>
      </trkpt>
      <trkpt lat="46.243467489257455" lon="8.236879147589207">
        <ele>1839.6199999999999</ele>
        <time>2013-04-07T09:59:13Z</time>
      </trkpt>
      <trkpt lat="46.243357937783003" lon="8.236839082092047">
        <ele>1841.0599999999999</ele>
        <time>2013-04-07T09:59:27Z</time>
      </trkpt>
      <trkpt lat="46.243249895051122" lon="8.236809829249978">
        <ele>1842.02</ele>
        <time>2013-04-07T09:59:42Z</time>
      </trkpt>
      <trkpt lat="46.243118466809392" lon="8.236813768744469">
        <ele>1843.47</ele>
        <time>2013-04-07T09:59:59Z</time>
      </trkpt>
      <trkpt lat="46.242998354136944" lon="8.236788539215922">
        <ele>1843.95</ele>
        <time>2013-04-07T10:00:13Z</time>
      </trkpt>
      <trkpt lat="46.242870362475514" lon="8.236757693812251">
        <ele>1845.8699999999999</ele>
        <time>2013-04-07T10:00:30Z</time>
      </trkpt>
      <trkpt lat="46.242729211226106" lon="8.236756436526775">
        <ele>1847.3099999999999</ele>
        <time>2013-04-07T10:00:46Z</time>
      </trkpt>
      <trkpt lat="46.242617648094893" lon="8.236754089593887">
        <ele>1847.79</ele>
        <time>2013-04-07T10:01:02Z</time>
      </trkpt>
      <trkpt lat="46.242515975609422" lon="8.236788036301732">
        <ele>1848.75</ele>
        <time>2013-04-07T10:01:16Z</time>
      </trkpt>
      <trkpt lat="46.242376668378711" lon="8.23683388531208">
        <ele>1850.6800000000001</ele>
        <time>2013-04-07T10:01:36Z</time>
      </trkpt>
      <trkpt lat="46.242299973964691" lon="8.236841009929776">
        <ele>1850.1900000000001</ele>
        <time>2013-04-07T10:01:44Z</time>
      </trkpt>
      <trkpt lat="46.24219436198473" lon="8.236849056556821">
        <ele>1850.1900000000001</ele>
        <time>2013-04-07T10:01:57Z</time>
      </trkpt>
      <trkpt lat="46.242164606228471" lon="8.236853163689375">
        <ele>1849.71</ele>
        <time>2013-04-07T10:02:00Z</time>
      </trkpt>
      <trkpt lat="46.242140047252178" lon="8.236849643290043">
        <ele>1850.1900000000001</ele>
        <time>2013-04-07T10:02:13Z</time>
      </trkpt>
      <trkpt lat="46.242081541568041" lon="8.2368846796453">
        <ele>1851.1600000000001</ele>
        <time>2013-04-07T10:02:36Z</time>
      </trkpt>
      <trkpt lat="46.241992861032486" lon="8.236949387937784">
        <ele>1852.1199999999999</ele>
        <time>2013-04-07T10:02:50Z</time>
      </trkpt>
      <trkpt lat="46.241889428347349" lon="8.236996997147799">
        <ele>1855</ele>
        <time>2013-04-07T10:03:07Z</time>
      </trkpt>
      <trkpt lat="46.24187283217907" lon="8.237002696841955">
        <ele>1855</ele>
        <time>2013-04-07T10:03:09Z</time>
      </trkpt>
      <trkpt lat="46.241769315674901" lon="8.237004205584526">
        <ele>1856.4400000000001</ele>
        <time>2013-04-07T10:03:23Z</time>
      </trkpt>
      <trkpt lat="46.241663284599781" lon="8.237017868086696">
        <ele>1858.3699999999999</ele>
        <time>2013-04-07T10:03:38Z</time>
      </trkpt>
      <trkpt lat="46.241521462798119" lon="8.237056508660317">
        <ele>1860.77</ele>
        <time>2013-04-07T10:03:59Z</time>
      </trkpt>
      <trkpt lat="46.241413839161396" lon="8.237094143405557">
        <ele>1861.73</ele>
        <time>2013-04-07T10:04:14Z</time>
      </trkpt>
      <trkpt lat="46.241267407312989" lon="8.237126581370831">
        <ele>1863.1700000000001</ele>
        <time>2013-04-07T10:04:32Z</time>
      </trkpt>
      <trkpt lat="46.241169925779104" lon="8.237157175317407">
        <ele>1866.0599999999999</ele>
        <time>2013-04-07T10:04:49Z</time>
      </trkpt>
      <trkpt lat="46.241048220545053" lon="8.237187266349793">
        <ele>1867.98</ele>
        <time>2013-04-07T10:05:04Z</time>
      </trkpt>
      <trkpt lat="46.240933304652572" lon="8.237267397344112">
        <ele>1870.3800000000001</ele>
        <time>2013-04-07T10:05:23Z</time>
      </trkpt>
      <trkpt lat="46.240886365994811" lon="8.237297739833593">
        <ele>1871.3399999999999</ele>
        <time>2013-04-07T10:05:30Z</time>
      </trkpt>
      <trkpt lat="46.240787040442228" lon="8.237419361248612">
        <ele>1872.3</ele>
        <time>2013-04-07T10:05:45Z</time>
      </trkpt>
      <trkpt lat="46.240697186440229" lon="8.237547855824232">
        <ele>1873.75</ele>
        <time>2013-04-07T10:06:02Z</time>
      </trkpt>
      <trkpt lat="46.240690480917692" lon="8.237544922158122">
        <ele>1873.75</ele>
        <time>2013-04-07T10:06:12Z</time>
      </trkpt>
      <trkpt lat="46.24066349118948" lon="8.237529499456286">
        <ele>1872.79</ele>
        <time>2013-04-07T10:06:25Z</time>
      </trkpt>
      <trkpt lat="46.240661730989814" lon="8.237508963793516">
        <ele>1873.27</ele>
        <time>2013-04-07T10:06:51Z</time>
      </trkpt>
      <trkpt lat="46.240665083751082" lon="8.237507455050945">
        <ele>1873.27</ele>
        <time>2013-04-07T10:07:26Z</time>
      </trkpt>
      <trkpt lat="46.240667765960097" lon="8.237541820853949">
        <ele>1872.79</ele>
        <time>2013-04-07T10:07:53Z</time>
      </trkpt>
      <trkpt lat="46.240673633292317" lon="8.237539893016219">
        <ele>1873.27</ele>
        <time>2013-04-07T10:08:30Z</time>
      </trkpt>
      <trkpt lat="46.240700120106339" lon="8.237527655437589">
        <ele>1873.27</ele>
        <time>2013-04-07T10:09:06Z</time>
      </trkpt>
      <trkpt lat="46.24066399410367" lon="8.237514412030578">
        <ele>1873.75</ele>
        <time>2013-04-07T10:09:34Z</time>
      </trkpt>
      <trkpt lat="46.240682015195489" lon="8.237533355131745">
        <ele>1873.75</ele>
        <time>2013-04-07T10:10:08Z</time>
      </trkpt>
      <trkpt lat="46.240685535594821" lon="8.237534863874316">
        <ele>1873.27</ele>
        <time>2013-04-07T10:10:16Z</time>
      </trkpt>
      <trkpt lat="46.240684110671282" lon="8.237508796155453">
        <ele>1874.71</ele>
        <time>2013-04-07T10:10:25Z</time>
      </trkpt>
      <trkpt lat="46.240679332986474" lon="8.237521620467305">
        <ele>1874.71</ele>
        <time>2013-04-07T10:10:40Z</time>
      </trkpt>
      <trkpt lat="46.240672040730715" lon="8.237533606588841">
        <ele>1874.23</ele>
        <time>2013-04-07T10:11:01Z</time>
      </trkpt>
      <trkpt lat="46.240682434290648" lon="8.237533271312714">
        <ele>1874.71</ele>
        <time>2013-04-07T10:11:19Z</time>
      </trkpt>
      <trkpt lat="46.240684865042567" lon="8.237521452829242">
        <ele>1874.23</ele>
        <time>2013-04-07T10:11:42Z</time>
      </trkpt>
      <trkpt lat="46.240687211975455" lon="8.237530002370477">
        <ele>1874.23</ele>
        <time>2013-04-07T10:12:05Z</time>
      </trkpt>
      <trkpt lat="46.240703389048576" lon="8.237525308504701">
        <ele>1873.75</ele>
        <time>2013-04-07T10:12:22Z</time>
      </trkpt>
      <trkpt lat="46.240688385441899" lon="8.237530505284667">
        <ele>1874.23</ele>
        <time>2013-04-07T10:12:45Z</time>
      </trkpt>
      <trkpt lat="46.240683775395155" lon="8.237520698457956">
        <ele>1873.75</ele>
        <time>2013-04-07T10:13:08Z</time>
      </trkpt>
      <trkpt lat="46.240716800093651" lon="8.237493289634585">
        <ele>1873.75</ele>
        <time>2013-04-07T10:13:31Z</time>
      </trkpt>
      <trkpt lat="46.240740353241563" lon="8.237486332654953">
        <ele>1873.75</ele>
        <time>2013-04-07T10:13:50Z</time>
      </trkpt>
      <trkpt lat="46.240715458989143" lon="8.237525140866637">
        <ele>1873.75</ele>
        <time>2013-04-07T10:14:18Z</time>
      </trkpt>
      <trkpt lat="46.240633986890316" lon="8.23769093491137">
        <ele>1874.23</ele>
        <time>2013-04-07T10:14:35Z</time>
      </trkpt>
      <trkpt lat="46.240633986890316" lon="8.237705016508699">
        <ele>1874.23</ele>
        <time>2013-04-07T10:14:36Z</time>
      </trkpt>
      <trkpt lat="46.240581683814526" lon="8.237863183021545">
        <ele>1874.71</ele>
        <time>2013-04-07T10:14:50Z</time>
      </trkpt>
      <trkpt lat="46.24053549952805" lon="8.238030485808849">
        <ele>1876.6300000000001</ele>
        <time>2013-04-07T10:15:09Z</time>
      </trkpt>
      <trkpt lat="46.240507503971457" lon="8.238113885745406">
        <ele>1877.5899999999999</ele>
        <time>2013-04-07T10:15:17Z</time>
      </trkpt>
      <trkpt lat="46.240440951660275" lon="8.238289821892977">
        <ele>1879.51</ele>
        <time>2013-04-07T10:15:34Z</time>
      </trkpt>
      <trkpt lat="46.240424271672964" lon="8.238340448588133">
        <ele>1880</ele>
        <time>2013-04-07T10:15:39Z</time>
      </trkpt>
      <trkpt lat="46.240362748503685" lon="8.238499201834202">
        <ele>1881.4400000000001</ele>
        <time>2013-04-07T10:15:53Z</time>
      </trkpt>
      <trkpt lat="46.240307595580816" lon="8.238580673933029">
        <ele>1882.4000000000001</ele>
        <time>2013-04-07T10:16:05Z</time>
      </trkpt>
      <trkpt lat="46.240266105160117" lon="8.238692404702306">
        <ele>1883.8399999999999</ele>
        <time>2013-04-07T10:16:18Z</time>
      </trkpt>
      <trkpt lat="46.240195278078318" lon="8.238799190148711">
        <ele>1885.76</ele>
        <time>2013-04-07T10:16:34Z</time>
      </trkpt>
      <trkpt lat="46.240169629454613" lon="8.238820228725672">
        <ele>1886.24</ele>
        <time>2013-04-07T10:16:50Z</time>
      </trkpt>
      <trkpt lat="46.240121936425567" lon="8.238849900662899">
        <ele>1886.72</ele>
        <time>2013-04-07T10:17:03Z</time>
      </trkpt>
      <trkpt lat="46.240049935877323" lon="8.238958362489939">
        <ele>1888.1700000000001</ele>
        <time>2013-04-07T10:17:16Z</time>
      </trkpt>
      <trkpt lat="46.239904593676329" lon="8.239070260897279">
        <ele>1888.6500000000001</ele>
        <time>2013-04-07T10:17:34Z</time>
      </trkpt>
      <trkpt lat="46.239868551492691" lon="8.23910747654736">
        <ele>1889.1300000000001</ele>
        <time>2013-04-07T10:17:39Z</time>
      </trkpt>
      <trkpt lat="46.239748019725084" lon="8.239190708845854">
        <ele>1889.1300000000001</ele>
        <time>2013-04-07T10:17:53Z</time>
      </trkpt>
      <trkpt lat="46.239666379988194" lon="8.239280395209789">
        <ele>1890.0899999999999</ele>
        <time>2013-04-07T10:18:04Z</time>
      </trkpt>
      <trkpt lat="46.239530425518751" lon="8.239383660256863">
        <ele>1891.05</ele>
        <time>2013-04-07T10:18:20Z</time>
      </trkpt>
      <trkpt lat="46.239473931491375" lon="8.23943680152297">
        <ele>1891.05</ele>
        <time>2013-04-07T10:18:28Z</time>
      </trkpt>
      <trkpt lat="46.239442583173513" lon="8.239461779594421">
        <ele>1891.53</ele>
        <time>2013-04-07T10:18:32Z</time>
      </trkpt>
      <trkpt lat="46.239321632310748" lon="8.239587927237153">
        <ele>1891.05</ele>
        <time>2013-04-07T10:18:47Z</time>
      </trkpt>
      <trkpt lat="46.239219205453992" lon="8.239715751260519">
        <ele>1890.5699999999999</ele>
        <time>2013-04-07T10:19:01Z</time>
      </trkpt>
      <trkpt lat="46.239095823839307" lon="8.239855729043484">
        <ele>1888.6500000000001</ele>
        <time>2013-04-07T10:19:16Z</time>
      </trkpt>
      <trkpt lat="46.238994151353836" lon="8.240061672404409">
        <ele>1886.24</ele>
        <time>2013-04-07T10:19:31Z</time>
      </trkpt>
      <trkpt lat="46.238961545750499" lon="8.240278260782361">
        <ele>1884.8</ele>
        <time>2013-04-07T10:19:46Z</time>
      </trkpt>
      <trkpt lat="46.238929107785225" lon="8.240406503900886">
        <ele>1883.8399999999999</ele>
        <time>2013-04-07T10:19:55Z</time>
      </trkpt>
      <trkpt lat="46.238924581557512" lon="8.240499207749963">
        <ele>1882.8800000000001</ele>
        <time>2013-04-07T10:20:01Z</time>
      </trkpt>
      <trkpt lat="46.238911841064692" lon="8.2406354136765">
        <ele>1881.9200000000001</ele>
        <time>2013-04-07T10:20:09Z</time>
      </trkpt>
      <trkpt lat="46.238891473039985" lon="8.240678329020739">
        <ele>1881.9200000000001</ele>
        <time>2013-04-07T10:20:12Z</time>
      </trkpt>
      <trkpt lat="46.238838331773877" lon="8.240791987627745">
        <ele>1878.55</ele>
        <time>2013-04-07T10:20:22Z</time>
      </trkpt>
      <trkpt lat="46.238844199106097" lon="8.240973455831409">
        <ele>1877.1099999999999</ele>
        <time>2013-04-07T10:20:34Z</time>
      </trkpt>
      <trkpt lat="46.23876029625535" lon="8.241136651486158">
        <ele>1874.71</ele>
        <time>2013-04-07T10:20:46Z</time>
      </trkpt>
      <trkpt lat="46.238756524398923" lon="8.24122223071754">
        <ele>1873.27</ele>
        <time>2013-04-07T10:20:51Z</time>
      </trkpt>
      <trkpt lat="46.238769013434649" lon="8.241276713088155">
        <ele>1873.75</ele>
        <time>2013-04-07T10:20:55Z</time>
      </trkpt>
      <trkpt lat="46.238779574632645" lon="8.241395819932222">
        <ele>1872.79</ele>
        <time>2013-04-07T10:21:04Z</time>
      </trkpt>
      <trkpt lat="46.238751327618957" lon="8.24161609634757">
        <ele>1870.8599999999999</ele>
        <time>2013-04-07T10:21:19Z</time>
      </trkpt>
      <trkpt lat="46.238734312355518" lon="8.241707878187299">
        <ele>1871.3399999999999</ele>
        <time>2013-04-07T10:21:26Z</time>
      </trkpt>
      <trkpt lat="46.238642949610949" lon="8.241878869011998">
        <ele>1869.4200000000001</ele>
        <time>2013-04-07T10:21:39Z</time>
      </trkpt>
      <trkpt lat="46.238598106428981" lon="8.241928992792964">
        <ele>1867.5</ele>
        <time>2013-04-07T10:21:45Z</time>
      </trkpt>
      <trkpt lat="46.238553682342172" lon="8.241981714963913">
        <ele>1866.0599999999999</ele>
        <time>2013-04-07T10:21:50Z</time>
      </trkpt>
      <trkpt lat="46.238468438386917" lon="8.242153041064739">
        <ele>1863.1700000000001</ele>
        <time>2013-04-07T10:22:05Z</time>
      </trkpt>
      <trkpt lat="46.238454775884748" lon="8.242378178983927">
        <ele>1861.73</ele>
        <time>2013-04-07T10:22:19Z</time>
      </trkpt>
      <trkpt lat="46.238437257707119" lon="8.242529220879078">
        <ele>1860.29</ele>
        <time>2013-04-07T10:22:28Z</time>
      </trkpt>
      <trkpt lat="46.238442286849022" lon="8.242663498967886">
        <ele>1859.3299999999999</ele>
        <time>2013-04-07T10:22:36Z</time>
      </trkpt>
      <trkpt lat="46.23853113502264" lon="8.242830131202936">
        <ele>1857.4000000000001</ele>
        <time>2013-04-07T10:22:50Z</time>
      </trkpt>
      <trkpt lat="46.238609421998262" lon="8.243018891662359">
        <ele>1855</ele>
        <time>2013-04-07T10:23:03Z</time>
      </trkpt>
      <trkpt lat="46.238629790022969" lon="8.243058789521456">
        <ele>1854.52</ele>
        <time>2013-04-07T10:23:06Z</time>
      </trkpt>
      <trkpt lat="46.238652840256691" lon="8.243115702643991">
        <ele>1853.5599999999999</ele>
        <time>2013-04-07T10:23:10Z</time>
      </trkpt>
      <trkpt lat="46.238667005673051" lon="8.243368249386549">
        <ele>1850.6800000000001</ele>
        <time>2013-04-07T10:23:27Z</time>
      </trkpt>
      <trkpt lat="46.238670023158193" lon="8.243529433384538">
        <ele>1849.23</ele>
        <time>2013-04-07T10:23:38Z</time>
      </trkpt>
      <trkpt lat="46.238647811114788" lon="8.243754655122757">
        <ele>1846.8299999999999</ele>
        <time>2013-04-07T10:23:54Z</time>
      </trkpt>
      <trkpt lat="46.238639345392585" lon="8.243782315403223">
        <ele>1846.8299999999999</ele>
        <time>2013-04-07T10:23:56Z</time>
      </trkpt>
      <trkpt lat="46.238623838871717" lon="8.243828164413571">
        <ele>1846.3499999999999</ele>
        <time>2013-04-07T10:23:59Z</time>
      </trkpt>
      <trkpt lat="46.238529374822974" lon="8.244040897116065">
        <ele>1844.4300000000001</ele>
        <time>2013-04-07T10:24:14Z</time>
      </trkpt>
      <trkpt lat="46.238469108939171" lon="8.244113232940435">
        <ele>1844.4300000000001</ele>
        <time>2013-04-07T10:24:21Z</time>
      </trkpt>
      <trkpt lat="46.238325946033001" lon="8.244300149381161">
        <ele>1842.5</ele>
        <time>2013-04-07T10:24:37Z</time>
      </trkpt>
      <trkpt lat="46.238257884979248" lon="8.244431996718049">
        <ele>1841.54</ele>
        <time>2013-04-07T10:24:47Z</time>
      </trkpt>
      <trkpt lat="46.238256711512804" lon="8.244460662826896">
        <ele>1841.54</ele>
        <time>2013-04-07T10:24:49Z</time>
      </trkpt>
      <trkpt lat="46.238192589953542" lon="8.244623858481646">
        <ele>1841.0599999999999</ele>
        <time>2013-04-07T10:25:01Z</time>
      </trkpt>
      <trkpt lat="46.238088654354215" lon="8.244794933125377">
        <ele>1840.0999999999999</ele>
        <time>2013-04-07T10:25:16Z</time>
      </trkpt>
      <trkpt lat="46.237998800352216" lon="8.244914459064603">
        <ele>1837.7</ele>
        <time>2013-04-07T10:25:27Z</time>
      </trkpt>
      <trkpt lat="46.237921100109816" lon="8.244986543431878">
        <ele>1835.77</ele>
        <time>2013-04-07T10:25:34Z</time>
      </trkpt>
      <trkpt lat="46.237836861982942" lon="8.245090562850237">
        <ele>1831.9300000000001</ele>
        <time>2013-04-07T10:25:43Z</time>
      </trkpt>
      <trkpt lat="46.237754048779607" lon="8.245194833725691">
        <ele>1829.05</ele>
        <time>2013-04-07T10:25:53Z</time>
      </trkpt>
      <trkpt lat="46.237713983282447" lon="8.245277060195804">
        <ele>1829.05</ele>
        <time>2013-04-07T10:25:59Z</time>
      </trkpt>
      <trkpt lat="46.237706691026688" lon="8.245311006903648">
        <ele>1829.05</ele>
        <time>2013-04-07T10:26:01Z</time>
      </trkpt>
      <trkpt lat="46.237593116238713" lon="8.245557434856892">
        <ele>1830.01</ele>
        <time>2013-04-07T10:26:19Z</time>
      </trkpt>
      <trkpt lat="46.23748398385942" lon="8.245637649670243">
        <ele>1830.49</ele>
        <time>2013-04-07T10:26:32Z</time>
      </trkpt>
      <trkpt lat="46.237384909763932" lon="8.245684923604131">
        <ele>1831.9300000000001</ele>
        <time>2013-04-07T10:26:46Z</time>
      </trkpt>
      <trkpt lat="46.237238561734557" lon="8.245744099840522">
        <ele>1832.4100000000001</ele>
        <time>2013-04-07T10:27:02Z</time>
      </trkpt>
      <trkpt lat="46.237133033573627" lon="8.24581584893167">
        <ele>1833.3699999999999</ele>
        <time>2013-04-07T10:27:16Z</time>
      </trkpt>
      <trkpt lat="46.237124064937234" lon="8.245821464806795">
        <ele>1833.3699999999999</ele>
        <time>2013-04-07T10:27:17Z</time>
      </trkpt>
      <trkpt lat="46.237004622817039" lon="8.245937554165721">
        <ele>1833.3699999999999</ele>
        <time>2013-04-07T10:27:30Z</time>
      </trkpt>
      <trkpt lat="46.236922228708863" lon="8.246042914688587">
        <ele>1833.8499999999999</ele>
        <time>2013-04-07T10:27:42Z</time>
      </trkpt>
      <trkpt lat="46.23683706857264" lon="8.246172582730651">
        <ele>1833.8499999999999</ele>
        <time>2013-04-07T10:27:54Z</time>
      </trkpt>
      <trkpt lat="46.236771522089839" lon="8.246338041499257">
        <ele>1832.8900000000001</ele>
        <time>2013-04-07T10:28:07Z</time>
      </trkpt>
      <trkpt lat="46.236664149910212" lon="8.246520180255175">
        <ele>1832.4100000000001</ele>
        <time>2013-04-07T10:28:23Z</time>
      </trkpt>
      <trkpt lat="46.236580749973655" lon="8.246704917401075">
        <ele>1832.4100000000001</ele>
        <time>2013-04-07T10:28:37Z</time>
      </trkpt>
      <trkpt lat="46.236492153257132" lon="8.246886720880866">
        <ele>1831.9300000000001</ele>
        <time>2013-04-07T10:28:51Z</time>
      </trkpt>
      <trkpt lat="46.236423002555966" lon="8.247039606794715">
        <ele>1831.9300000000001</ele>
        <time>2013-04-07T10:29:03Z</time>
      </trkpt>
      <trkpt lat="46.23634647578001" lon="8.247225768864155">
        <ele>1831.45</ele>
        <time>2013-04-07T10:29:17Z</time>
      </trkpt>
      <trkpt lat="46.236267434433103" lon="8.247428275644779">
        <ele>1830.97</ele>
        <time>2013-04-07T10:29:32Z</time>
      </trkpt>
      <trkpt lat="46.236200043931603" lon="8.247599015012384">
        <ele>1830.01</ele>
        <time>2013-04-07T10:29:45Z</time>
      </trkpt>
      <trkpt lat="46.236164420843124" lon="8.247785344719887">
        <ele>1828.5599999999999</ele>
        <time>2013-04-07T10:29:57Z</time>
      </trkpt>
      <trkpt lat="46.236152434721589" lon="8.247863799333572">
        <ele>1828.5599999999999</ele>
        <time>2013-04-07T10:30:02Z</time>
      </trkpt>
      <trkpt lat="46.236141873523593" lon="8.24790327809751">
        <ele>1828.0799999999999</ele>
        <time>2013-04-07T10:30:05Z</time>
      </trkpt>
      <trkpt lat="46.236102562397718" lon="8.248115926980972">
        <ele>1826.6400000000001</ele>
        <time>2013-04-07T10:30:19Z</time>
      </trkpt>
      <trkpt lat="46.236112872138619" lon="8.248219778761268">
        <ele>1825.6800000000001</ele>
        <time>2013-04-07T10:30:26Z</time>
      </trkpt>
      <trkpt lat="46.236111950129271" lon="8.248250791803002">
        <ele>1825.2</ele>
        <time>2013-04-07T10:30:28Z</time>
      </trkpt>
      <trkpt lat="46.236103987321258" lon="8.248288007453084">
        <ele>1824.72</ele>
        <time>2013-04-07T10:30:30Z</time>
      </trkpt>
      <trkpt lat="46.236079009249806" lon="8.248395882546902">
        <ele>1824.72</ele>
        <time>2013-04-07T10:30:36Z</time>
      </trkpt>
      <trkpt lat="46.236062329262495" lon="8.248421447351575">
        <ele>1824.24</ele>
        <time>2013-04-07T10:30:38Z</time>
      </trkpt>
      <trkpt lat="46.236051516607404" lon="8.248454639688134">
        <ele>1824.24</ele>
        <time>2013-04-07T10:30:40Z</time>
      </trkpt>
      <trkpt lat="46.235957387834787" lon="8.248648261651397">
        <ele>1821.3499999999999</ele>
        <time>2013-04-07T10:30:54Z</time>
      </trkpt>
      <trkpt lat="46.235849596560001" lon="8.248848589137197">
        <ele>1818.95</ele>
        <time>2013-04-07T10:31:10Z</time>
      </trkpt>
      <trkpt lat="46.235787151381373" lon="8.248993763700128">
        <ele>1816.55</ele>
        <time>2013-04-07T10:31:20Z</time>
      </trkpt>
      <trkpt lat="46.235753623768687" lon="8.249061740934849">
        <ele>1815.5899999999999</ele>
        <time>2013-04-07T10:31:25Z</time>
      </trkpt>
      <trkpt lat="46.235657064244151" lon="8.249268354848027">
        <ele>1814.1500000000001</ele>
        <time>2013-04-07T10:31:40Z</time>
      </trkpt>
      <trkpt lat="46.235642060637474" lon="8.249278496950865">
        <ele>1813.6600000000001</ele>
        <time>2013-04-07T10:31:42Z</time>
      </trkpt>
      <trkpt lat="46.235611299052835" lon="8.24932518415153">
        <ele>1813.6600000000001</ele>
        <time>2013-04-07T10:31:46Z</time>
      </trkpt>
      <trkpt lat="46.235477942973375" lon="8.249515453353524">
        <ele>1810.78</ele>
        <time>2013-04-07T10:32:02Z</time>
      </trkpt>
      <trkpt lat="46.235301923006773" lon="8.249614192172885">
        <ele>1809.3399999999999</ele>
        <time>2013-04-07T10:32:16Z</time>
      </trkpt>
      <trkpt lat="46.235135123133659" lon="8.249745536595583">
        <ele>1806.45</ele>
        <time>2013-04-07T10:32:33Z</time>
      </trkpt>
      <trkpt lat="46.234989948570728" lon="8.249822398647666">
        <ele>1805.01</ele>
        <time>2013-04-07T10:32:49Z</time>
      </trkpt>
      <trkpt lat="46.234841253608465" lon="8.249913258478046">
        <ele>1802.6099999999999</ele>
        <time>2013-04-07T10:33:02Z</time>
      </trkpt>
      <trkpt lat="46.234718794003129" lon="8.250042172148824">
        <ele>1800.6900000000001</ele>
        <time>2013-04-07T10:33:16Z</time>
      </trkpt>
      <trkpt lat="46.234633550047874" lon="8.250169660896063">
        <ele>1799.24</ele>
        <time>2013-04-07T10:33:28Z</time>
      </trkpt>
      <trkpt lat="46.234589628875256" lon="8.250330425798893">
        <ele>1796.8399999999999</ele>
        <time>2013-04-07T10:33:38Z</time>
      </trkpt>
      <trkpt lat="46.234560795128345" lon="8.250583810731769">
        <ele>1794.4400000000001</ele>
        <time>2013-04-07T10:33:53Z</time>
      </trkpt>
      <trkpt lat="46.23455710709095" lon="8.250614823773503">
        <ele>1794.4400000000001</ele>
        <time>2013-04-07T10:33:55Z</time>
      </trkpt>
      <trkpt lat="46.234525507315993" lon="8.250816073268652">
        <ele>1792.03</ele>
        <time>2013-04-07T10:34:08Z</time>
      </trkpt>
      <trkpt lat="46.23449650593102" lon="8.251079516485333">
        <ele>1791.55</ele>
        <time>2013-04-07T10:34:24Z</time>
      </trkpt>
      <trkpt lat="46.234457613900304" lon="8.251307671889663">
        <ele>1788.1900000000001</ele>
        <time>2013-04-07T10:34:37Z</time>
      </trkpt>
      <trkpt lat="46.234450237825513" lon="8.251397777348757">
        <ele>1788.6700000000001</ele>
        <time>2013-04-07T10:34:42Z</time>
      </trkpt>
      <trkpt lat="46.234387205913663" lon="8.251679241657257">
        <ele>1785.79</ele>
        <time>2013-04-07T10:34:59Z</time>
      </trkpt>
      <trkpt lat="46.234332555904984" lon="8.251912593841553">
        <ele>1784.3399999999999</ele>
        <time>2013-04-07T10:35:14Z</time>
      </trkpt>
      <trkpt lat="46.234304308891296" lon="8.2519999332726">
        <ele>1783.3800000000001</ele>
        <time>2013-04-07T10:35:20Z</time>
      </trkpt>
      <trkpt lat="46.234257873147726" lon="8.252076711505652">
        <ele>1782.4200000000001</ele>
        <time>2013-04-07T10:35:31Z</time>
      </trkpt>
      <trkpt lat="46.234257537871599" lon="8.252122141420841">
        <ele>1781.9400000000001</ele>
        <time>2013-04-07T10:35:34Z</time>
      </trkpt>
      <trkpt lat="46.234245300292969" lon="8.252335963770747">
        <ele>1780.98</ele>
        <time>2013-04-07T10:35:46Z</time>
      </trkpt>
      <trkpt lat="46.234202217310667" lon="8.252558000385761">
        <ele>1780.98</ele>
        <time>2013-04-07T10:36:00Z</time>
      </trkpt>
      <trkpt lat="46.23418964445591" lon="8.2526043523103">
        <ele>1780.98</ele>
        <time>2013-04-07T10:36:03Z</time>
      </trkpt>
      <trkpt lat="46.234187548980117" lon="8.2526336889714">
        <ele>1780.98</ele>
        <time>2013-04-07T10:36:05Z</time>
      </trkpt>
      <trkpt lat="46.234153350815177" lon="8.252840721979737">
        <ele>1780.5</ele>
        <time>2013-04-07T10:36:20Z</time>
      </trkpt>
      <trkpt lat="46.234148740768433" lon="8.252892354503274">
        <ele>1780.5</ele>
        <time>2013-04-07T10:36:25Z</time>
      </trkpt>
      <trkpt lat="46.234153350815177" lon="8.252939376980066">
        <ele>1780.5</ele>
        <time>2013-04-07T10:36:28Z</time>
      </trkpt>
      <trkpt lat="46.234168773517013" lon="8.253027722239494">
        <ele>1780.5</ele>
        <time>2013-04-07T10:36:35Z</time>
      </trkpt>
      <trkpt lat="46.234178580343723" lon="8.253090837970376">
        <ele>1780.98</ele>
        <time>2013-04-07T10:36:39Z</time>
      </trkpt>
      <trkpt lat="46.234184196218848" lon="8.253148002550006">
        <ele>1780.5</ele>
        <time>2013-04-07T10:36:43Z</time>
      </trkpt>
      <trkpt lat="46.234182519838214" lon="8.253357717767358">
        <ele>1780.98</ele>
        <time>2013-04-07T10:36:58Z</time>
      </trkpt>
      <trkpt lat="46.234173718839884" lon="8.253555279225111">
        <ele>1780.98</ele>
        <time>2013-04-07T10:37:12Z</time>
      </trkpt>
      <trkpt lat="46.23417497612536" lon="8.253744626417756">
        <ele>1780.98</ele>
        <time>2013-04-07T10:37:25Z</time>
      </trkpt>
      <trkpt lat="46.234181597828865" lon="8.253895500674844">
        <ele>1781.9400000000001</ele>
        <time>2013-04-07T10:37:36Z</time>
      </trkpt>
      <trkpt lat="46.234187548980117" lon="8.25404872186482">
        <ele>1782.4200000000001</ele>
        <time>2013-04-07T10:37:47Z</time>
      </trkpt>
      <trkpt lat="46.234231386333704" lon="8.254203451797366">
        <ele>1782.4200000000001</ele>
        <time>2013-04-07T10:37:58Z</time>
      </trkpt>
      <trkpt lat="46.234304057434201" lon="8.254429176449776">
        <ele>1780.5</ele>
        <time>2013-04-07T10:38:13Z</time>
      </trkpt>
      <trkpt lat="46.234343955293298" lon="8.254548283293843">
        <ele>1780.02</ele>
        <time>2013-04-07T10:38:22Z</time>
      </trkpt>
      <trkpt lat="46.234355522319674" lon="8.254628330469132">
        <ele>1779.0599999999999</ele>
        <time>2013-04-07T10:38:27Z</time>
      </trkpt>
      <trkpt lat="46.234444119036198" lon="8.254756657406688">
        <ele>1778.5799999999999</ele>
        <time>2013-04-07T10:38:41Z</time>
      </trkpt>
      <trkpt lat="46.23449994251132" lon="8.254805104807019">
        <ele>1778.5799999999999</ele>
        <time>2013-04-07T10:38:53Z</time>
      </trkpt>
      <trkpt lat="46.234539085999131" lon="8.254836369305849">
        <ele>1778.0999999999999</ele>
        <time>2013-04-07T10:38:57Z</time>
      </trkpt>
      <trkpt lat="46.234663808718324" lon="8.2549390476197">
        <ele>1777.1300000000001</ele>
        <time>2013-04-07T10:39:10Z</time>
      </trkpt>
      <trkpt lat="46.234768833965063" lon="8.255099058151245">
        <ele>1776.1700000000001</ele>
        <time>2013-04-07T10:39:24Z</time>
      </trkpt>
      <trkpt lat="46.234771180897951" lon="8.255110625177622">
        <ele>1776.1700000000001</ele>
        <time>2013-04-07T10:39:25Z</time>
      </trkpt>
      <trkpt lat="46.234797583892941" lon="8.255226798355579">
        <ele>1775.21</ele>
        <time>2013-04-07T10:39:32Z</time>
      </trkpt>
      <trkpt lat="46.234809318557382" lon="8.255354538559914">
        <ele>1775.21</ele>
        <time>2013-04-07T10:39:40Z</time>
      </trkpt>
      <trkpt lat="46.234846534207463" lon="8.255559392273426">
        <ele>1772.8099999999999</ele>
        <time>2013-04-07T10:39:53Z</time>
      </trkpt>
      <trkpt lat="46.234912080690265" lon="8.255707835778594">
        <ele>1771.8499999999999</ele>
        <time>2013-04-07T10:40:04Z</time>
      </trkpt>
      <trkpt lat="46.234983578324318" lon="8.255770616233349">
        <ele>1770.8900000000001</ele>
        <time>2013-04-07T10:40:13Z</time>
      </trkpt>
      <trkpt lat="46.235114000737667" lon="8.255754355341196">
        <ele>1769.4400000000001</ele>
        <time>2013-04-07T10:40:28Z</time>
      </trkpt>
      <trkpt lat="46.235246686264873" lon="8.255853932350874">
        <ele>1766.0799999999999</ele>
        <time>2013-04-07T10:40:41Z</time>
      </trkpt>
      <trkpt lat="46.235351543873549" lon="8.255975218489766">
        <ele>1764.1600000000001</ele>
        <time>2013-04-07T10:40:50Z</time>
      </trkpt>
      <trkpt lat="46.235404266044497" lon="8.256047973409295">
        <ele>1763.2</ele>
        <time>2013-04-07T10:40:59Z</time>
      </trkpt>
      <trkpt lat="46.235546842217445" lon="8.256188370287418">
        <ele>1762.71</ele>
        <time>2013-04-07T10:41:14Z</time>
      </trkpt>
      <trkpt lat="46.235604928806424" lon="8.256226005032659">
        <ele>1762.71</ele>
        <time>2013-04-07T10:41:20Z</time>
      </trkpt>
      <trkpt lat="46.235629236325622" lon="8.256244361400604">
        <ele>1762.23</ele>
        <time>2013-04-07T10:41:23Z</time>
      </trkpt>
      <trkpt lat="46.235680868849158" lon="8.256248468533158">
        <ele>1762.71</ele>
        <time>2013-04-07T10:41:28Z</time>
      </trkpt>
      <trkpt lat="46.235750019550323" lon="8.256249977275729">
        <ele>1763.2</ele>
        <time>2013-04-07T10:41:35Z</time>
      </trkpt>
      <trkpt lat="46.235892260447145" lon="8.256299933418632">
        <ele>1763.6800000000001</ele>
        <time>2013-04-07T10:41:48Z</time>
      </trkpt>
      <trkpt lat="46.236018743366003" lon="8.256329437717795">
        <ele>1763.2</ele>
        <time>2013-04-07T10:42:01Z</time>
      </trkpt>
      <trkpt lat="46.236132988706231" lon="8.256367491558194">
        <ele>1764.6400000000001</ele>
        <time>2013-04-07T10:42:13Z</time>
      </trkpt>
      <trkpt lat="46.236143801361322" lon="8.256378304213285">
        <ele>1764.6400000000001</ele>
        <time>2013-04-07T10:42:14Z</time>
      </trkpt>
      <trkpt lat="46.236225022003055" lon="8.256532028317452">
        <ele>1765.5999999999999</ele>
        <time>2013-04-07T10:42:26Z</time>
      </trkpt>
      <trkpt lat="46.236229548230767" lon="8.256544517353177">
        <ele>1766.0799999999999</ele>
        <time>2013-04-07T10:42:27Z</time>
      </trkpt>
      <trkpt lat="46.236294927075505" lon="8.256670581176877">
        <ele>1768</ele>
        <time>2013-04-07T10:42:39Z</time>
      </trkpt>
      <trkpt lat="46.236303811892867" lon="8.256708635017276">
        <ele>1767.52</ele>
        <time>2013-04-07T10:42:42Z</time>
      </trkpt>
      <trkpt lat="46.236329125240445" lon="8.256802093237639">
        <ele>1768.48</ele>
        <time>2013-04-07T10:42:49Z</time>
      </trkpt>
      <trkpt lat="46.236334154382348" lon="8.256836542859674">
        <ele>1768.96</ele>
        <time>2013-04-07T10:42:52Z</time>
      </trkpt>
      <trkpt lat="46.236347565427423" lon="8.256860096007586">
        <ele>1768.96</ele>
        <time>2013-04-07T10:42:55Z</time>
      </trkpt>
      <trkpt lat="46.236410681158304" lon="8.256843332201242">
        <ele>1768.48</ele>
        <time>2013-04-07T10:43:02Z</time>
      </trkpt>
      <trkpt lat="46.236456530168653" lon="8.256817180663347">
        <ele>1767.04</ele>
        <time>2013-04-07T10:43:07Z</time>
      </trkpt>
      <trkpt lat="46.236524255946279" lon="8.256793627515435">
        <ele>1766.5599999999999</ele>
        <time>2013-04-07T10:43:13Z</time>
      </trkpt>
      <trkpt lat="46.236598687246442" lon="8.256795052438974">
        <ele>1764.6400000000001</ele>
        <time>2013-04-07T10:43:19Z</time>
      </trkpt>
      <trkpt lat="46.236693486571312" lon="8.256764374673367">
        <ele>1762.23</ele>
        <time>2013-04-07T10:43:26Z</time>
      </trkpt>
      <trkpt lat="46.236711842939258" lon="8.256807625293732">
        <ele>1760.79</ele>
        <time>2013-04-07T10:43:35Z</time>
      </trkpt>
      <trkpt lat="46.236705556511879" lon="8.256829166784883">
        <ele>1761.27</ele>
        <time>2013-04-07T10:43:46Z</time>
      </trkpt>
      <trkpt lat="46.236701030284166" lon="8.256918434053659">
        <ele>1760.79</ele>
        <time>2013-04-07T10:43:52Z</time>
      </trkpt>
      <trkpt lat="46.236725924536586" lon="8.256963361054659">
        <ele>1760.79</ele>
        <time>2013-04-07T10:44:05Z</time>
      </trkpt>
      <trkpt lat="46.236688541248441" lon="8.256996553391218">
        <ele>1760.3099999999999</ele>
        <time>2013-04-07T10:44:10Z</time>
      </trkpt>
      <trkpt lat="46.236637998372316" lon="8.257076432928443">
        <ele>1762.23</ele>
        <time>2013-04-07T10:44:17Z</time>
      </trkpt>
      <trkpt lat="46.236621318385005" lon="8.257097387686372">
        <ele>1760.79</ele>
        <time>2013-04-07T10:44:19Z</time>
      </trkpt>
      <trkpt lat="46.236510258167982" lon="8.25718673877418">
        <ele>1759.8299999999999</ele>
        <time>2013-04-07T10:44:33Z</time>
      </trkpt>
      <trkpt lat="46.236476562917233" lon="8.257212638854981">
        <ele>1760.3099999999999</ele>
        <time>2013-04-07T10:44:45Z</time>
      </trkpt>
      <trkpt lat="46.236469354480505" lon="8.257239880040288">
        <ele>1760.3099999999999</ele>
        <time>2013-04-07T10:44:59Z</time>
      </trkpt>
      <trkpt lat="46.236477820202708" lon="8.257213393226266">
        <ele>1771.3699999999999</ele>
        <time>2013-04-07T12:25:48Z</time>
      </trkpt>
      <trkpt lat="46.236434988677502" lon="8.257225127890706">
        <ele>1771.3699999999999</ele>
        <time>2013-04-07T12:25:49Z</time>
      </trkpt>
      <trkpt lat="46.236459380015731" lon="8.257246753200889">
        <ele>1771.8499999999999</ele>
        <time>2013-04-07T12:26:04Z</time>
      </trkpt>
      <trkpt lat="46.236452925950289" lon="8.257260080426931">
        <ele>1768.48</ele>
        <time>2013-04-07T12:26:14Z</time>
      </trkpt>
      <trkpt lat="46.236455189064145" lon="8.25726049952209">
        <ele>1768.48</ele>
        <time>2013-04-07T12:26:15Z</time>
      </trkpt>
      <trkpt lat="46.236474718898535" lon="8.257208364084363">
        <ele>1765.5999999999999</ele>
        <time>2013-04-07T12:26:26Z</time>
      </trkpt>
      <trkpt lat="46.236472371965647" lon="8.257206855341792">
        <ele>1763.6800000000001</ele>
        <time>2013-04-07T12:26:30Z</time>
      </trkpt>
      <trkpt lat="46.236476311460137" lon="8.25719109736383">
        <ele>1760.3099999999999</ele>
        <time>2013-04-07T12:26:45Z</time>
      </trkpt>
      <trkpt lat="46.236451081931591" lon="8.257201993837953">
        <ele>1757.9100000000001</ele>
        <time>2013-04-07T12:27:00Z</time>
      </trkpt>
      <trkpt lat="46.236421745270491" lon="8.257224205881357">
        <ele>1755.99</ele>
        <time>2013-04-07T12:27:12Z</time>
      </trkpt>
      <trkpt lat="46.236398359760642" lon="8.257200988009572">
        <ele>1755.5</ele>
        <time>2013-04-07T12:27:23Z</time>
      </trkpt>
      <trkpt lat="46.236385283991694" lon="8.257203418761492">
        <ele>1755.02</ele>
        <time>2013-04-07T12:27:35Z</time>
      </trkpt>
      <trkpt lat="46.236364329233766" lon="8.257206939160824">
        <ele>1754.54</ele>
        <time>2013-04-07T12:27:47Z</time>
      </trkpt>
      <trkpt lat="46.236376482993364" lon="8.257188498973846">
        <ele>1755.02</ele>
        <time>2013-04-07T12:28:02Z</time>
      </trkpt>
      <trkpt lat="46.23643540777266" lon="8.257280364632607">
        <ele>1752.6199999999999</ele>
        <time>2013-04-07T12:28:17Z</time>
      </trkpt>
      <trkpt lat="46.236440101638436" lon="8.257298050448299">
        <ele>1752.1400000000001</ele>
        <time>2013-04-07T12:28:20Z</time>
      </trkpt>
      <trkpt lat="46.236458709463477" lon="8.257368709892035">
        <ele>1749.74</ele>
        <time>2013-04-07T12:28:31Z</time>
      </trkpt>
      <trkpt lat="46.236429205164313" lon="8.25738362967968">
        <ele>1750.22</ele>
        <time>2013-04-07T12:28:48Z</time>
      </trkpt>
      <trkpt lat="46.236441191285849" lon="8.257411206141114">
        <ele>1749.26</ele>
        <time>2013-04-07T12:28:51Z</time>
      </trkpt>
      <trkpt lat="46.236452087759972" lon="8.257441129535437">
        <ele>1748.78</ele>
        <time>2013-04-07T12:29:03Z</time>
      </trkpt>
      <trkpt lat="46.236436581239104" lon="8.257476082071662">
        <ele>1748.78</ele>
        <time>2013-04-07T12:29:18Z</time>
      </trkpt>
      <trkpt lat="46.236440101638436" lon="8.25753215700388">
        <ele>1746.8499999999999</ele>
        <time>2013-04-07T12:29:29Z</time>
      </trkpt>
      <trkpt lat="46.23645736835897" lon="8.257577670738101">
        <ele>1745.8900000000001</ele>
        <time>2013-04-07T12:29:40Z</time>
      </trkpt>
      <trkpt lat="46.23644856736064" lon="8.257578844204545">
        <ele>1745.8900000000001</ele>
        <time>2013-04-07T12:29:54Z</time>
      </trkpt>
      <trkpt lat="46.236448232084513" lon="8.257577167823911">
        <ele>1745.8900000000001</ele>
        <time>2013-04-07T12:30:08Z</time>
      </trkpt>
      <trkpt lat="46.23650137335062" lon="8.257672386243939">
        <ele>1744.9300000000001</ele>
        <time>2013-04-07T12:30:20Z</time>
      </trkpt>
      <trkpt lat="46.236530290916562" lon="8.257800797000527">
        <ele>1743.49</ele>
        <time>2013-04-07T12:30:33Z</time>
      </trkpt>
      <trkpt lat="46.236540684476495" lon="8.257896350696683">
        <ele>1743.01</ele>
        <time>2013-04-07T12:30:48Z</time>
      </trkpt>
      <trkpt lat="46.236553005874157" lon="8.257954940199852">
        <ele>1742.53</ele>
        <time>2013-04-07T12:31:05Z</time>
      </trkpt>
      <trkpt lat="46.236530290916562" lon="8.258009925484657">
        <ele>1741.5699999999999</ele>
        <time>2013-04-07T12:31:18Z</time>
      </trkpt>
      <trkpt lat="46.236537164077163" lon="8.25804378837347">
        <ele>1741.0799999999999</ele>
        <time>2013-04-07T12:31:21Z</time>
      </trkpt>
      <trkpt lat="46.236518640071154" lon="8.258132552728057">
        <ele>1738.2</ele>
        <time>2013-04-07T12:31:33Z</time>
      </trkpt>
      <trkpt lat="46.236507408320904" lon="8.258243948221207">
        <ele>1736.76</ele>
        <time>2013-04-07T12:31:45Z</time>
      </trkpt>
      <trkpt lat="46.236492739990354" lon="8.258261634036899">
        <ele>1735.8</ele>
        <time>2013-04-07T12:31:49Z</time>
      </trkpt>
      <trkpt lat="46.236447980627418" lon="8.25836674310267">
        <ele>1732.9100000000001</ele>
        <time>2013-04-07T12:32:02Z</time>
      </trkpt>
      <trkpt lat="46.236421829089522" lon="8.258409993723035">
        <ele>1731.47</ele>
        <time>2013-04-07T12:32:08Z</time>
      </trkpt>
      <trkpt lat="46.236394923180342" lon="8.258409909904003">
        <ele>1730.99</ele>
        <time>2013-04-07T12:32:11Z</time>
      </trkpt>
      <trkpt lat="46.236376650631428" lon="8.258454333990812">
        <ele>1729.0699999999999</ele>
        <time>2013-04-07T12:32:15Z</time>
      </trkpt>
      <trkpt lat="46.236359803006053" lon="8.258480485528708">
        <ele>1727.6300000000001</ele>
        <time>2013-04-07T12:32:18Z</time>
      </trkpt>
      <trkpt lat="46.236318815499544" lon="8.258548378944397">
        <ele>1724.74</ele>
        <time>2013-04-07T12:32:30Z</time>
      </trkpt>
      <trkpt lat="46.236288556829095" lon="8.25852700509131">
        <ele>1723.78</ele>
        <time>2013-04-07T12:32:41Z</time>
      </trkpt>
      <trkpt lat="46.236288053914905" lon="8.258533626794815">
        <ele>1724.26</ele>
        <time>2013-04-07T12:32:46Z</time>
      </trkpt>
      <trkpt lat="46.236198954284191" lon="8.258602106943727">
        <ele>1720.4200000000001</ele>
        <time>2013-04-07T12:32:55Z</time>
      </trkpt>
      <trkpt lat="46.236185794696212" lon="8.258609063923359">
        <ele>1720.4200000000001</ele>
        <time>2013-04-07T12:32:56Z</time>
      </trkpt>
      <trkpt lat="46.236100969836116" lon="8.258736720308662">
        <ele>1717.05</ele>
        <time>2013-04-07T12:33:07Z</time>
      </trkpt>
      <trkpt lat="46.236096443608403" lon="8.258783742785454">
        <ele>1717.05</ele>
        <time>2013-04-07T12:33:11Z</time>
      </trkpt>
      <trkpt lat="46.236073393374681" lon="8.258825233206153">
        <ele>1716.0899999999999</ele>
        <time>2013-04-07T12:33:24Z</time>
      </trkpt>
      <trkpt lat="46.236047241836786" lon="8.258777791634202">
        <ele>1716.5699999999999</ele>
        <time>2013-04-07T12:33:35Z</time>
      </trkpt>
      <trkpt lat="46.23600441031158" lon="8.258786760270596">
        <ele>1717.05</ele>
        <time>2013-04-07T12:33:44Z</time>
      </trkpt>
      <trkpt lat="46.235983455553651" lon="8.258779132738709">
        <ele>1717.53</ele>
        <time>2013-04-07T12:33:46Z</time>
      </trkpt>
      <trkpt lat="46.235919753089547" lon="8.258799333125353">
        <ele>1717.53</ele>
        <time>2013-04-07T12:33:58Z</time>
      </trkpt>
      <trkpt lat="46.235911957919598" lon="8.258793549612165">
        <ele>1717.05</ele>
        <time>2013-04-07T12:34:13Z</time>
      </trkpt>
      <trkpt lat="46.235884381458163" lon="8.258842416107655">
        <ele>1717.05</ele>
        <time>2013-04-07T12:34:29Z</time>
      </trkpt>
      <trkpt lat="46.235856804996729" lon="8.258854653686285">
        <ele>1716.5699999999999</ele>
        <time>2013-04-07T12:34:38Z</time>
      </trkpt>
      <trkpt lat="46.235834676772356" lon="8.258877787739039">
        <ele>1716.0899999999999</ele>
        <time>2013-04-07T12:34:41Z</time>
      </trkpt>
      <trkpt lat="46.235811542719603" lon="8.258879967033863">
        <ele>1715.6099999999999</ele>
        <time>2013-04-07T12:34:53Z</time>
      </trkpt>
      <trkpt lat="46.235813889652491" lon="8.25888273306191">
        <ele>1715.6099999999999</ele>
        <time>2013-04-07T12:35:06Z</time>
      </trkpt>
      <trkpt lat="46.23579771257937" lon="8.258878206834197">
        <ele>1716.5699999999999</ele>
        <time>2013-04-07T12:35:20Z</time>
      </trkpt>
      <trkpt lat="46.235794108361006" lon="8.258871249854565">
        <ele>1715.6099999999999</ele>
        <time>2013-04-07T12:35:34Z</time>
      </trkpt>
      <trkpt lat="46.23577918857336" lon="8.258868148550391">
        <ele>1715.6099999999999</ele>
        <time>2013-04-07T12:35:57Z</time>
      </trkpt>
      <trkpt lat="46.235813302919269" lon="8.258847948163748">
        <ele>1716.0899999999999</ele>
        <time>2013-04-07T12:36:17Z</time>
      </trkpt>
      <trkpt lat="46.235799724236131" lon="8.258876027539372">
        <ele>1716.0899999999999</ele>
        <time>2013-04-07T12:36:37Z</time>
      </trkpt>
      <trkpt lat="46.235785139724612" lon="8.258868400007486">
        <ele>1716.0899999999999</ele>
        <time>2013-04-07T12:36:56Z</time>
      </trkpt>
      <trkpt lat="46.235774829983711" lon="8.258857000619173">
        <ele>1716.5699999999999</ele>
        <time>2013-04-07T12:37:18Z</time>
      </trkpt>
      <trkpt lat="46.235791258513927" lon="8.258884157985449">
        <ele>1717.53</ele>
        <time>2013-04-07T12:37:37Z</time>
      </trkpt>
      <trkpt lat="46.235659494996071" lon="8.259023884311318">
        <ele>1715.6099999999999</ele>
        <time>2013-04-07T12:37:52Z</time>
      </trkpt>
      <trkpt lat="46.23564868234098" lon="8.259028913453221">
        <ele>1715.6099999999999</ele>
        <time>2013-04-07T12:37:53Z</time>
      </trkpt>
      <trkpt lat="46.235495461151004" lon="8.258977448567748">
        <ele>1715.6099999999999</ele>
        <time>2013-04-07T12:38:10Z</time>
      </trkpt>
      <trkpt lat="46.235403763130307" lon="8.258910644799471">
        <ele>1715.6099999999999</ele>
        <time>2013-04-07T12:38:26Z</time>
      </trkpt>
      <trkpt lat="46.235274011269212" lon="8.258876278996468">
        <ele>1713.6900000000001</ele>
        <time>2013-04-07T12:38:37Z</time>
      </trkpt>
      <trkpt lat="46.235148031264544" lon="8.258790113031864">
        <ele>1711.76</ele>
        <time>2013-04-07T12:38:50Z</time>
      </trkpt>
      <trkpt lat="46.235024649649858" lon="8.258661534637213">
        <ele>1711.76</ele>
        <time>2013-04-07T12:39:05Z</time>
      </trkpt>
      <trkpt lat="46.235009813681245" lon="8.258631946519017">
        <ele>1707.9200000000001</ele>
        <time>2013-04-07T12:39:08Z</time>
      </trkpt>
      <trkpt lat="46.234948961064219" lon="8.258577547967434">
        <ele>1706.48</ele>
        <time>2013-04-07T12:39:21Z</time>
      </trkpt>
      <trkpt lat="46.23486153781414" lon="8.258492052555084">
        <ele>1705.04</ele>
        <time>2013-04-07T12:39:36Z</time>
      </trkpt>
      <trkpt lat="46.23474670574069" lon="8.258377723395824">
        <ele>1703.1099999999999</ele>
        <time>2013-04-07T12:39:49Z</time>
      </trkpt>
      <trkpt lat="46.234590550884604" lon="8.258204972371459">
        <ele>1700.71</ele>
        <time>2013-04-07T12:40:06Z</time>
      </trkpt>
      <trkpt lat="46.234470857307315" lon="8.258066419512034">
        <ele>1698.79</ele>
        <time>2013-04-07T12:40:20Z</time>
      </trkpt>
      <trkpt lat="46.234441101551056" lon="8.258035238832235">
        <ele>1698.79</ele>
        <time>2013-04-07T12:40:24Z</time>
      </trkpt>
      <trkpt lat="46.234306823462248" lon="8.257844047620893">
        <ele>1698.3099999999999</ele>
        <time>2013-04-07T12:40:40Z</time>
      </trkpt>
      <trkpt lat="46.2342160474509" lon="8.257689401507378">
        <ele>1698.79</ele>
        <time>2013-04-07T12:40:52Z</time>
      </trkpt>
      <trkpt lat="46.234179586172104" lon="8.257571049034596">
        <ele>1698.79</ele>
        <time>2013-04-07T12:41:00Z</time>
      </trkpt>
      <trkpt lat="46.234118649736047" lon="8.257343731820583">
        <ele>1697.3399999999999</ele>
        <time>2013-04-07T12:41:15Z</time>
      </trkpt>
      <trkpt lat="46.233999878168106" lon="8.257150948047638">
        <ele>1695.9000000000001</ele>
        <time>2013-04-07T12:41:31Z</time>
      </trkpt>
      <trkpt lat="46.233895691111684" lon="8.257037457078695">
        <ele>1694.46</ele>
        <time>2013-04-07T12:41:43Z</time>
      </trkpt>
      <trkpt lat="46.233739955350757" lon="8.256920361891389">
        <ele>1692.0599999999999</ele>
        <time>2013-04-07T12:41:59Z</time>
      </trkpt>
      <trkpt lat="46.233715144917369" lon="8.256883397698402">
        <ele>1691.0999999999999</ele>
        <time>2013-04-07T12:42:02Z</time>
      </trkpt>
      <trkpt lat="46.233614226803184" lon="8.256785413250327">
        <ele>1689.1700000000001</ele>
        <time>2013-04-07T12:42:15Z</time>
      </trkpt>
      <trkpt lat="46.233571143820882" lon="8.256751550361514">
        <ele>1688.21</ele>
        <time>2013-04-07T12:42:19Z</time>
      </trkpt>
      <trkpt lat="46.233424879610538" lon="8.256668401882052">
        <ele>1685.3299999999999</ele>
        <time>2013-04-07T12:42:33Z</time>
      </trkpt>
      <trkpt lat="46.233293954282999" lon="8.256600676104426">
        <ele>1682.4400000000001</ele>
        <time>2013-04-07T12:42:47Z</time>
      </trkpt>
      <trkpt lat="46.233166381716728" lon="8.256572177633643">
        <ele>1680.52</ele>
        <time>2013-04-07T12:42:59Z</time>
      </trkpt>
      <trkpt lat="46.232984159141779" lon="8.256536722183228">
        <ele>1677.1600000000001</ele>
        <time>2013-04-07T12:43:14Z</time>
      </trkpt>
      <trkpt lat="46.232892042025924" lon="8.25648944824934">
        <ele>1675.23</ele>
        <time>2013-04-07T12:43:23Z</time>
      </trkpt>
      <trkpt lat="46.23287720605731" lon="8.256521048024297">
        <ele>1674.75</ele>
        <time>2013-04-07T12:43:26Z</time>
      </trkpt>
      <trkpt lat="46.232905955985188" lon="8.256560107693076">
        <ele>1673.79</ele>
        <time>2013-04-07T12:43:31Z</time>
      </trkpt>
      <trkpt lat="46.232961947098374" lon="8.256608638912439">
        <ele>1672.8299999999999</ele>
        <time>2013-04-07T12:43:38Z</time>
      </trkpt>
      <trkpt lat="46.233117934316397" lon="8.256734954193234">
        <ele>1671.3900000000001</ele>
        <time>2013-04-07T12:43:54Z</time>
      </trkpt>
      <trkpt lat="46.233300911262631" lon="8.256921116262674">
        <ele>1668.51</ele>
        <time>2013-04-07T12:44:12Z</time>
      </trkpt>
      <trkpt lat="46.233426388353109" lon="8.257125299423933">
        <ele>1666.5799999999999</ele>
        <time>2013-04-07T12:44:28Z</time>
      </trkpt>
      <trkpt lat="46.233441643416882" lon="8.257149523124099">
        <ele>1666.5799999999999</ele>
        <time>2013-04-07T12:44:30Z</time>
      </trkpt>
      <trkpt lat="46.233462262898684" lon="8.257187409326434">
        <ele>1666.5799999999999</ele>
        <time>2013-04-07T12:44:33Z</time>
      </trkpt>
      <trkpt lat="46.233575334772468" lon="8.257353203371167">
        <ele>1664.1800000000001</ele>
        <time>2013-04-07T12:44:50Z</time>
      </trkpt>
      <trkpt lat="46.233591428026557" lon="8.257380779832602">
        <ele>1663.22</ele>
        <time>2013-04-07T12:44:53Z</time>
      </trkpt>
      <trkpt lat="46.233601989224553" lon="8.257424030452967">
        <ele>1663.22</ele>
        <time>2013-04-07T12:44:58Z</time>
      </trkpt>
      <trkpt lat="46.233682371675968" lon="8.257577838376164">
        <ele>1661.78</ele>
        <time>2013-04-07T12:45:13Z</time>
      </trkpt>
      <trkpt lat="46.233659824356437" lon="8.257605750113726">
        <ele>1661.3</ele>
        <time>2013-04-07T12:45:15Z</time>
      </trkpt>
      <trkpt lat="46.233612298965454" lon="8.257626788690686">
        <ele>1660.8099999999999</ele>
        <time>2013-04-07T12:45:19Z</time>
      </trkpt>
      <trkpt lat="46.233561504632235" lon="8.257591919973493">
        <ele>1659.8499999999999</ele>
        <time>2013-04-07T12:45:26Z</time>
      </trkpt>
      <trkpt lat="46.233535772189498" lon="8.257537018507719">
        <ele>1659.3699999999999</ele>
        <time>2013-04-07T12:45:30Z</time>
      </trkpt>
      <trkpt lat="46.233374672010541" lon="8.257420677691698">
        <ele>1657.9300000000001</ele>
        <time>2013-04-07T12:45:47Z</time>
      </trkpt>
      <trkpt lat="46.233358578756452" lon="8.257411625236273">
        <ele>1656.97</ele>
        <time>2013-04-07T12:45:49Z</time>
      </trkpt>
      <trkpt lat="46.233200831338763" lon="8.257371056824923">
        <ele>1655.05</ele>
        <time>2013-04-07T12:46:04Z</time>
      </trkpt>
      <trkpt lat="46.233036629855633" lon="8.257368793711066">
        <ele>1652.6400000000001</ele>
        <time>2013-04-07T12:46:18Z</time>
      </trkpt>
      <trkpt lat="46.232899082824588" lon="8.257358483970165">
        <ele>1650.72</ele>
        <time>2013-04-07T12:46:32Z</time>
      </trkpt>
      <trkpt lat="46.232771426439285" lon="8.25719989836216">
        <ele>1647.8399999999999</ele>
        <time>2013-04-07T12:46:47Z</time>
      </trkpt>
      <trkpt lat="46.232609655708075" lon="8.256952967494726">
        <ele>1644.95</ele>
        <time>2013-04-07T12:47:06Z</time>
      </trkpt>
      <trkpt lat="46.232512928545475" lon="8.256866298615933">
        <ele>1643.99</ele>
        <time>2013-04-07T12:47:17Z</time>
      </trkpt>
      <trkpt lat="46.23246775008738" lon="8.256619954481721">
        <ele>1641.5899999999999</ele>
        <time>2013-04-07T12:47:32Z</time>
      </trkpt>
      <trkpt lat="46.23242617584765" lon="8.256347877904773">
        <ele>1639.6700000000001</ele>
        <time>2013-04-07T12:47:49Z</time>
      </trkpt>
      <trkpt lat="46.232352163642645" lon="8.25611419044435">
        <ele>1637.74</ele>
        <time>2013-04-07T12:48:05Z</time>
      </trkpt>
      <trkpt lat="46.232255352661014" lon="8.255905983969569">
        <ele>1636.78</ele>
        <time>2013-04-07T12:48:21Z</time>
      </trkpt>
      <trkpt lat="46.232178825885057" lon="8.255683025345206">
        <ele>1633.9000000000001</ele>
        <time>2013-04-07T12:48:37Z</time>
      </trkpt>
      <trkpt lat="46.232076231390238" lon="8.255481105297804">
        <ele>1631.98</ele>
        <time>2013-04-07T12:48:53Z</time>
      </trkpt>
      <trkpt lat="46.231947988271713" lon="8.255299972370267">
        <ele>1629.5699999999999</ele>
        <time>2013-04-07T12:49:10Z</time>
      </trkpt>
      <trkpt lat="46.231824606657028" lon="8.255144571885467">
        <ele>1626.6900000000001</ele>
        <time>2013-04-07T12:49:25Z</time>
      </trkpt>
      <trkpt lat="46.231775656342506" lon="8.255111295729876">
        <ele>1626.21</ele>
        <time>2013-04-07T12:49:30Z</time>
      </trkpt>
      <trkpt lat="46.231741458177567" lon="8.255088580772281">
        <ele>1625.25</ele>
        <time>2013-04-07T12:49:34Z</time>
      </trkpt>
      <trkpt lat="46.231715306639671" lon="8.255079863592982">
        <ele>1625.25</ele>
        <time>2013-04-07T12:49:36Z</time>
      </trkpt>
      <trkpt lat="46.231585554778576" lon="8.25503284111619">
        <ele>1621.8800000000001</ele>
        <time>2013-04-07T12:49:50Z</time>
      </trkpt>
      <trkpt lat="46.23142990283668" lon="8.25496637262404">
        <ele>1619</ele>
        <time>2013-04-07T12:50:07Z</time>
      </trkpt>
      <trkpt lat="46.231306437402964" lon="8.25498690828681">
        <ele>1616.5899999999999</ele>
        <time>2013-04-07T12:50:20Z</time>
      </trkpt>
      <trkpt lat="46.231170734390616" lon="8.255106769502163">
        <ele>1613.71</ele>
        <time>2013-04-07T12:50:36Z</time>
      </trkpt>
      <trkpt lat="46.231088424101472" lon="8.255205089226365">
        <ele>1610.8299999999999</ele>
        <time>2013-04-07T12:50:50Z</time>
      </trkpt>
      <trkpt lat="46.231086496263742" lon="8.255239287391305">
        <ele>1610.8299999999999</ele>
        <time>2013-04-07T12:51:09Z</time>
      </trkpt>
      <trkpt lat="46.231087250635028" lon="8.25522000901401">
        <ele>1610.8299999999999</ele>
        <time>2013-04-07T12:51:29Z</time>
      </trkpt>
      <trkpt lat="46.231090687215328" lon="8.255225960165262">
        <ele>1610.8299999999999</ele>
        <time>2013-04-07T12:51:49Z</time>
      </trkpt>
      <trkpt lat="46.231082389131188" lon="8.255230486392975">
        <ele>1610.8299999999999</ele>
        <time>2013-04-07T12:52:07Z</time>
      </trkpt>
      <trkpt lat="46.231085574254394" lon="8.255220763385296">
        <ele>1611.3099999999999</ele>
        <time>2013-04-07T12:52:26Z</time>
      </trkpt>
      <trkpt lat="46.23107953928411" lon="8.255230570212007">
        <ele>1611.3099999999999</ele>
        <time>2013-04-07T12:52:51Z</time>
      </trkpt>
      <trkpt lat="46.231085993349552" lon="8.255228139460087">
        <ele>1611.3099999999999</ele>
        <time>2013-04-07T12:53:11Z</time>
      </trkpt>
      <trkpt lat="46.231067469343543" lon="8.255279352888465">
        <ele>1610.8299999999999</ele>
        <time>2013-04-07T12:53:24Z</time>
      </trkpt>
      <trkpt lat="46.231015333905816" lon="8.255360657349229">
        <ele>1608.4200000000001</ele>
        <time>2013-04-07T12:53:37Z</time>
      </trkpt>
      <trkpt lat="46.231004521250725" lon="8.255398543551564">
        <ele>1607.9400000000001</ele>
        <time>2013-04-07T12:53:40Z</time>
      </trkpt>
      <trkpt lat="46.230945512652397" lon="8.255444392561913">
        <ele>1606.02</ele>
        <time>2013-04-07T12:53:49Z</time>
      </trkpt>
      <trkpt lat="46.230897316709161" lon="8.255460904911161">
        <ele>1605.54</ele>
        <time>2013-04-07T12:53:54Z</time>
      </trkpt>
      <trkpt lat="46.230833195149899" lon="8.255446739494801">
        <ele>1603.1400000000001</ele>
        <time>2013-04-07T12:53:59Z</time>
      </trkpt>
      <trkpt lat="46.230747783556581" lon="8.255326794460416">
        <ele>1602.1700000000001</ele>
        <time>2013-04-07T12:54:11Z</time>
      </trkpt>
      <trkpt lat="46.230658432468772" lon="8.255200814455748">
        <ele>1600.73</ele>
        <time>2013-04-07T12:54:24Z</time>
      </trkpt>
      <trkpt lat="46.230602106079459" lon="8.255060082301498">
        <ele>1598.3299999999999</ele>
        <time>2013-04-07T12:54:37Z</time>
      </trkpt>
      <trkpt lat="46.23052692040801" lon="8.254850702360272">
        <ele>1595.45</ele>
        <time>2013-04-07T12:54:52Z</time>
      </trkpt>
      <trkpt lat="46.230469085276127" lon="8.254780042916536">
        <ele>1594.96</ele>
        <time>2013-04-07T12:55:05Z</time>
      </trkpt>
      <trkpt lat="46.23037445358932" lon="8.254706198349595">
        <ele>1592.5599999999999</ele>
        <time>2013-04-07T12:55:19Z</time>
      </trkpt>
      <trkpt lat="46.230252748355269" lon="8.254653057083488">
        <ele>1591.5999999999999</ele>
        <time>2013-04-07T12:55:35Z</time>
      </trkpt>
      <trkpt lat="46.230091312900186" lon="8.254573429003358">
        <ele>1589.2</ele>
        <time>2013-04-07T12:55:52Z</time>
      </trkpt>
      <trkpt lat="46.229986706748605" lon="8.254567980766296">
        <ele>1587.75</ele>
        <time>2013-04-07T12:56:06Z</time>
      </trkpt>
      <trkpt lat="46.229861481115222" lon="8.25458868406713">
        <ele>1585.3499999999999</ele>
        <time>2013-04-07T12:56:20Z</time>
      </trkpt>
      <trkpt lat="46.229776740074158" lon="8.254538727924228">
        <ele>1583.4300000000001</ele>
        <time>2013-04-07T12:56:29Z</time>
      </trkpt>
      <trkpt lat="46.229747654870152" lon="8.254513749852777">
        <ele>1582.47</ele>
        <time>2013-04-07T12:56:32Z</time>
      </trkpt>
      <trkpt lat="46.229706835001707" lon="8.254506960511208">
        <ele>1581.51</ele>
        <time>2013-04-07T12:56:36Z</time>
      </trkpt>
      <trkpt lat="46.229660902172327" lon="8.254482401534915">
        <ele>1581.51</ele>
        <time>2013-04-07T12:56:40Z</time>
      </trkpt>
      <trkpt lat="46.229643216356635" lon="8.254415011033416">
        <ele>1580.54</ele>
        <time>2013-04-07T12:56:44Z</time>
      </trkpt>
      <trkpt lat="46.229588817805052" lon="8.254273775964975">
        <ele>1578.1400000000001</ele>
        <time>2013-04-07T12:56:58Z</time>
      </trkpt>
      <trkpt lat="46.229616310447454" lon="8.254171516746283">
        <ele>1575.74</ele>
        <time>2013-04-07T12:57:11Z</time>
      </trkpt>
      <trkpt lat="46.229620249941945" lon="8.254175120964646">
        <ele>1575.74</ele>
        <time>2013-04-07T12:57:29Z</time>
      </trkpt>
      <trkpt lat="46.229629134759307" lon="8.254096331074834">
        <ele>1573.8199999999999</ele>
        <time>2013-04-07T12:57:36Z</time>
      </trkpt>
      <trkpt lat="46.229616058990359" lon="8.254005974158645">
        <ele>1570.45</ele>
        <time>2013-04-07T12:57:45Z</time>
      </trkpt>
      <trkpt lat="46.229612538591027" lon="8.253995999693871">
        <ele>1570.45</ele>
        <time>2013-04-07T12:57:46Z</time>
      </trkpt>
      <trkpt lat="46.22965226881206" lon="8.253889298066497">
        <ele>1568.05</ele>
        <time>2013-04-07T12:57:56Z</time>
      </trkpt>
      <trkpt lat="46.229658555239439" lon="8.253848813474178">
        <ele>1566.6099999999999</ele>
        <time>2013-04-07T12:58:06Z</time>
      </trkpt>
      <trkpt lat="46.229634582996368" lon="8.253831965848804">
        <ele>1566.6099999999999</ele>
        <time>2013-04-07T12:58:08Z</time>
      </trkpt>
      <trkpt lat="46.229636510834098" lon="8.25376876629889">
        <ele>1565.1600000000001</ele>
        <time>2013-04-07T12:58:12Z</time>
      </trkpt>
      <trkpt lat="46.229710774496198" lon="8.253726018592715">
        <ele>1561.8</ele>
        <time>2013-04-07T12:58:24Z</time>
      </trkpt>
      <trkpt lat="46.229712953791022" lon="8.253621831536293">
        <ele>1558.4300000000001</ele>
        <time>2013-04-07T12:58:32Z</time>
      </trkpt>
      <trkpt lat="46.229745810851455" lon="8.253519823774695">
        <ele>1556.51</ele>
        <time>2013-04-07T12:58:44Z</time>
      </trkpt>
      <trkpt lat="46.229836083948612" lon="8.253437764942646">
        <ele>1554.1099999999999</ele>
        <time>2013-04-07T12:58:56Z</time>
      </trkpt>
      <trkpt lat="46.229858128353953" lon="8.253403315320611">
        <ele>1553.1500000000001</ele>
        <time>2013-04-07T12:58:59Z</time>
      </trkpt>
      <trkpt lat="46.229867599904537" lon="8.253382109105587">
        <ele>1552.1900000000001</ele>
        <time>2013-04-07T12:59:01Z</time>
      </trkpt>
      <trkpt lat="46.229879837483168" lon="8.253342127427459">
        <ele>1551.22</ele>
        <time>2013-04-07T12:59:04Z</time>
      </trkpt>
      <trkpt lat="46.229945216327906" lon="8.253248250111938">
        <ele>1548.3399999999999</ele>
        <time>2013-04-07T12:59:14Z</time>
      </trkpt>
      <trkpt lat="46.230008751153946" lon="8.253163760527968">
        <ele>1546.4200000000001</ele>
        <time>2013-04-07T12:59:22Z</time>
      </trkpt>
      <trkpt lat="46.230008332058787" lon="8.253141213208437">
        <ele>1545.9400000000001</ele>
        <time>2013-04-07T12:59:24Z</time>
      </trkpt>
      <trkpt lat="46.230031214654446" lon="8.253069296479225">
        <ele>1546.4200000000001</ele>
        <time>2013-04-07T12:59:30Z</time>
      </trkpt>
      <trkpt lat="46.23007832095027" lon="8.252885062247515">
        <ele>1545.9400000000001</ele>
        <time>2013-04-07T12:59:45Z</time>
      </trkpt>
      <trkpt lat="46.230081170797348" lon="8.252810966223478">
        <ele>1546.4200000000001</ele>
        <time>2013-04-07T12:59:51Z</time>
      </trkpt>
      <trkpt lat="46.230125511065125" lon="8.2526268158108">
        <ele>1546.9000000000001</ele>
        <time>2013-04-07T13:00:06Z</time>
      </trkpt>
      <trkpt lat="46.230164486914873" lon="8.252434283494949">
        <ele>1546.4200000000001</ele>
        <time>2013-04-07T13:00:22Z</time>
      </trkpt>
      <trkpt lat="46.230211006477475" lon="8.252256084233522">
        <ele>1544.98</ele>
        <time>2013-04-07T13:00:37Z</time>
      </trkpt>
      <trkpt lat="46.230215448886156" lon="8.25221442617476">
        <ele>1544.98</ele>
        <time>2013-04-07T13:00:40Z</time>
      </trkpt>
      <trkpt lat="46.230228859931231" lon="8.252151561900973">
        <ele>1544.98</ele>
        <time>2013-04-07T13:00:45Z</time>
      </trkpt>
      <trkpt lat="46.230231877416372" lon="8.252129014581442">
        <ele>1544.5</ele>
        <time>2013-04-07T13:00:47Z</time>
      </trkpt>
      <trkpt lat="46.230250988155603" lon="8.252038406208158">
        <ele>1542.5699999999999</ele>
        <time>2013-04-07T13:00:59Z</time>
      </trkpt>
      <trkpt lat="46.230291891843081" lon="8.251893566921353">
        <ele>1539.21</ele>
        <time>2013-04-07T13:01:12Z</time>
      </trkpt>
      <trkpt lat="46.230299016460776" lon="8.251843359321356">
        <ele>1538.25</ele>
        <time>2013-04-07T13:01:16Z</time>
      </trkpt>
      <trkpt lat="46.230319552123547" lon="8.251659628003836">
        <ele>1537.77</ele>
        <time>2013-04-07T13:01:32Z</time>
      </trkpt>
      <trkpt lat="46.230339584872127" lon="8.251568600535393">
        <ele>1537.77</ele>
        <time>2013-04-07T13:01:46Z</time>
      </trkpt>
      <trkpt lat="46.230310248211026" lon="8.251550914719701">
        <ele>1537.77</ele>
        <time>2013-04-07T13:02:00Z</time>
      </trkpt>
      <trkpt lat="46.230329107493162" lon="8.251557284966111">
        <ele>1538.25</ele>
        <time>2013-04-07T13:02:12Z</time>
      </trkpt>
      <trkpt lat="46.230301866307855" lon="8.25158067047596">
        <ele>1538.73</ele>
        <time>2013-04-07T13:02:35Z</time>
      </trkpt>
      <trkpt lat="46.230295244604349" lon="8.251571031287313">
        <ele>1538.73</ele>
        <time>2013-04-07T13:02:49Z</time>
      </trkpt>
      <trkpt lat="46.230264231562614" lon="8.251556027680636">
        <ele>1538.73</ele>
        <time>2013-04-07T13:03:09Z</time>
      </trkpt>
      <trkpt lat="46.230316450819373" lon="8.251579077914357">
        <ele>1539.21</ele>
        <time>2013-04-07T13:03:33Z</time>
      </trkpt>
      <trkpt lat="46.230318546295166" lon="8.251550663262606">
        <ele>1539.6900000000001</ele>
        <time>2013-04-07T13:03:52Z</time>
      </trkpt>
      <trkpt lat="46.230337573215365" lon="8.251553596928716">
        <ele>1540.1700000000001</ele>
        <time>2013-04-07T13:04:11Z</time>
      </trkpt>
      <trkpt lat="46.230282336473465" lon="8.251559464260936">
        <ele>1540.1700000000001</ele>
        <time>2013-04-07T13:04:36Z</time>
      </trkpt>
      <trkpt lat="46.230287030339241" lon="8.251562733203173">
        <ele>1540.6500000000001</ele>
        <time>2013-04-07T13:05:00Z</time>
      </trkpt>
      <trkpt lat="46.230296669527888" lon="8.251547813415527">
        <ele>1539.6900000000001</ele>
        <time>2013-04-07T13:05:07Z</time>
      </trkpt>
      <trkpt lat="46.230302704498172" lon="8.251619394868612">
        <ele>1539.6900000000001</ele>
        <time>2013-04-07T13:05:29Z</time>
      </trkpt>
      <trkpt lat="46.230299435555935" lon="8.251630794256926">
        <ele>1540.1700000000001</ele>
        <time>2013-04-07T13:05:37Z</time>
      </trkpt>
      <trkpt lat="46.230293232947588" lon="8.251628112047911">
        <ele>1541.6099999999999</ele>
        <time>2013-04-07T13:05:46Z</time>
      </trkpt>
      <trkpt lat="46.230303458869457" lon="8.251596512272954">
        <ele>1541.6099999999999</ele>
        <time>2013-04-07T13:06:01Z</time>
      </trkpt>
      <trkpt lat="46.230307230725884" lon="8.251580083742738">
        <ele>1542.0899999999999</ele>
        <time>2013-04-07T13:06:22Z</time>
      </trkpt>
      <trkpt lat="46.230293735861778" lon="8.251558374613524">
        <ele>1542.0899999999999</ele>
        <time>2013-04-07T13:06:39Z</time>
      </trkpt>
      <trkpt lat="46.230287030339241" lon="8.25154303573072">
        <ele>1543.53</ele>
        <time>2013-04-07T13:06:55Z</time>
      </trkpt>
      <trkpt lat="46.230276552960277" lon="8.251534318551421">
        <ele>1543.53</ele>
        <time>2013-04-07T13:07:15Z</time>
      </trkpt>
      <trkpt lat="46.23031921684742" lon="8.25158603489399">
        <ele>1544.5</ele>
        <time>2013-04-07T13:07:38Z</time>
      </trkpt>
      <trkpt lat="46.230317121371627" lon="8.251575725153089">
        <ele>1544.98</ele>
        <time>2013-04-07T13:07:59Z</time>
      </trkpt>
      <trkpt lat="46.230322401970625" lon="8.251596679911017">
        <ele>1544.98</ele>
        <time>2013-04-07T13:08:19Z</time>
      </trkpt>
      <trkpt lat="46.230331705883145" lon="8.251562481746078">
        <ele>1544.98</ele>
        <time>2013-04-07T13:08:44Z</time>
      </trkpt>
      <trkpt lat="46.230325503274798" lon="8.251573210582137">
        <ele>1544.98</ele>
        <time>2013-04-07T13:09:00Z</time>
      </trkpt>
      <trkpt lat="46.230352073907852" lon="8.251612270250917">
        <ele>1544.5</ele>
        <time>2013-04-07T13:09:19Z</time>
      </trkpt>
      <trkpt lat="46.230348134413362" lon="8.251544376835227">
        <ele>1544.5</ele>
        <time>2013-04-07T13:09:34Z</time>
      </trkpt>
      <trkpt lat="46.230321479961276" lon="8.251524511724711">
        <ele>1544.98</ele>
        <time>2013-04-07T13:09:54Z</time>
      </trkpt>
      <trkpt lat="46.230319635942578" lon="8.251532474532723">
        <ele>1544.98</ele>
        <time>2013-04-07T13:10:11Z</time>
      </trkpt>
      <trkpt lat="46.230329610407352" lon="8.251531887799501">
        <ele>1545.46</ele>
        <time>2013-04-07T13:10:33Z</time>
      </trkpt>
      <trkpt lat="46.230319300666451" lon="8.251568265259266">
        <ele>1545.9400000000001</ele>
        <time>2013-04-07T13:10:58Z</time>
      </trkpt>
      <trkpt lat="46.230325670912862" lon="8.251530714333057">
        <ele>1546.4200000000001</ele>
        <time>2013-04-07T13:11:17Z</time>
      </trkpt>
      <trkpt lat="46.230352325364947" lon="8.251542448997498">
        <ele>1546.4200000000001</ele>
        <time>2013-04-07T13:11:40Z</time>
      </trkpt>
      <trkpt lat="46.230352995917201" lon="8.251542616635561">
        <ele>1544.98</ele>
        <time>2013-04-07T13:12:04Z</time>
      </trkpt>
      <trkpt lat="46.230336148291826" lon="8.251535492017865">
        <ele>1545.46</ele>
        <time>2013-04-07T13:12:24Z</time>
      </trkpt>
      <trkpt lat="46.230321563780308" lon="8.251464748755097">
        <ele>1544.98</ele>
        <time>2013-04-07T13:12:35Z</time>
      </trkpt>
      <trkpt lat="46.230335477739573" lon="8.251348659396172">
        <ele>1545.46</ele>
        <time>2013-04-07T13:12:50Z</time>
      </trkpt>
      <trkpt lat="46.230344446375966" lon="8.251273054629564">
        <ele>1545.9400000000001</ele>
        <time>2013-04-07T13:13:02Z</time>
      </trkpt>
      <trkpt lat="46.230326006188989" lon="8.251122934743762">
        <ele>1547.3800000000001</ele>
        <time>2013-04-07T13:13:16Z</time>
      </trkpt>
      <trkpt lat="46.230321060866117" lon="8.251112625002861">
        <ele>1547.3800000000001</ele>
        <time>2013-04-07T13:13:17Z</time>
      </trkpt>
      <trkpt lat="46.230307314544916" lon="8.251077169552445">
        <ele>1546.9000000000001</ele>
        <time>2013-04-07T13:13:20Z</time>
      </trkpt>
      <trkpt lat="46.230272194370627" lon="8.250891258940101">
        <ele>1545.9400000000001</ele>
        <time>2013-04-07T13:13:33Z</time>
      </trkpt>
      <trkpt lat="46.230230452492833" lon="8.250822946429253">
        <ele>1544.98</ele>
        <time>2013-04-07T13:13:39Z</time>
      </trkpt>
      <trkpt lat="46.230103634297848" lon="8.250640137121081">
        <ele>1543.05</ele>
        <time>2013-04-07T13:13:55Z</time>
      </trkpt>
      <trkpt lat="46.230007577687502" lon="8.250446012243629">
        <ele>1541.1300000000001</ele>
        <time>2013-04-07T13:14:11Z</time>
      </trkpt>
      <trkpt lat="46.229999028146267" lon="8.250404605641961">
        <ele>1541.1300000000001</ele>
        <time>2013-04-07T13:14:14Z</time>
      </trkpt>
      <trkpt lat="46.229990227147937" lon="8.250340567901731">
        <ele>1540.6500000000001</ele>
        <time>2013-04-07T13:14:18Z</time>
      </trkpt>
      <trkpt lat="46.229919819161296" lon="8.250128254294395">
        <ele>1540.6500000000001</ele>
        <time>2013-04-07T13:14:33Z</time>
      </trkpt>
      <trkpt lat="46.229822756722569" lon="8.250011410564184">
        <ele>1540.6500000000001</ele>
        <time>2013-04-07T13:14:47Z</time>
      </trkpt>
      <trkpt lat="46.229757880792022" lon="8.249946953728795">
        <ele>1540.1700000000001</ele>
        <time>2013-04-07T13:14:56Z</time>
      </trkpt>
      <trkpt lat="46.229668948799372" lon="8.249787194654346">
        <ele>1540.6500000000001</ele>
        <time>2013-04-07T13:15:12Z</time>
      </trkpt>
      <trkpt lat="46.229610024020076" lon="8.249643947929144">
        <ele>1538.73</ele>
        <time>2013-04-07T13:15:24Z</time>
      </trkpt>
      <trkpt lat="46.229562163352966" lon="8.249484524130821">
        <ele>1537.29</ele>
        <time>2013-04-07T13:15:39Z</time>
      </trkpt>
      <trkpt lat="46.229547746479511" lon="8.249464156106114">
        <ele>1537.29</ele>
        <time>2013-04-07T13:15:45Z</time>
      </trkpt>
      <trkpt lat="46.229464346542954" lon="8.249421492218971">
        <ele>1534.8800000000001</ele>
        <time>2013-04-07T13:15:51Z</time>
      </trkpt>
      <trkpt lat="46.22934540733695" lon="8.249316550791264">
        <ele>1532</ele>
        <time>2013-04-07T13:16:03Z</time>
      </trkpt>
      <trkpt lat="46.229308526962996" lon="8.24926994740963">
        <ele>1531.04</ele>
        <time>2013-04-07T13:16:08Z</time>
      </trkpt>
      <trkpt lat="46.229280866682529" lon="8.249250585213304">
        <ele>1530.0799999999999</ele>
        <time>2013-04-07T13:16:11Z</time>
      </trkpt>
      <trkpt lat="46.229270221665502" lon="8.249164251610637">
        <ele>1529.5899999999999</ele>
        <time>2013-04-07T13:16:25Z</time>
      </trkpt>
      <trkpt lat="46.22921540401876" lon="8.2489640917629">
        <ele>1526.71</ele>
        <time>2013-04-07T13:16:39Z</time>
      </trkpt>
      <trkpt lat="46.229108031839132" lon="8.24877105653286">
        <ele>1524.3099999999999</ele>
        <time>2013-04-07T13:16:54Z</time>
      </trkpt>
      <trkpt lat="46.229072157293558" lon="8.248590342700481">
        <ele>1521.4200000000001</ele>
        <time>2013-04-07T13:17:06Z</time>
      </trkpt>
      <trkpt lat="46.229068133980036" lon="8.248579110950232">
        <ele>1520.9400000000001</ele>
        <time>2013-04-07T13:17:07Z</time>
      </trkpt>
      <trkpt lat="46.229037456214428" lon="8.248327653855085">
        <ele>1517.5799999999999</ele>
        <time>2013-04-07T13:17:22Z</time>
      </trkpt>
      <trkpt lat="46.22902094386518" lon="8.248061193153262">
        <ele>1514.6900000000001</ele>
        <time>2013-04-07T13:17:37Z</time>
      </trkpt>
      <trkpt lat="46.229000324383378" lon="8.24782021343708">
        <ele>1511.3299999999999</ele>
        <time>2013-04-07T13:17:52Z</time>
      </trkpt>
      <trkpt lat="46.228965036571026" lon="8.247615024447441">
        <ele>1508.45</ele>
        <time>2013-04-07T13:18:05Z</time>
      </trkpt>
      <trkpt lat="46.228981129825115" lon="8.247358957305551">
        <ele>1505.0799999999999</ele>
        <time>2013-04-07T13:18:20Z</time>
      </trkpt>
      <trkpt lat="46.228985069319606" lon="8.247213950380683">
        <ele>1503.1600000000001</ele>
        <time>2013-04-07T13:18:29Z</time>
      </trkpt>
      <trkpt lat="46.228997893631458" lon="8.246970204636455">
        <ele>1499.79</ele>
        <time>2013-04-07T13:18:43Z</time>
      </trkpt>
      <trkpt lat="46.229071402922273" lon="8.246707767248154">
        <ele>1497.3900000000001</ele>
        <time>2013-04-07T13:19:01Z</time>
      </trkpt>
      <trkpt lat="46.229113815352321" lon="8.2465810328722">
        <ele>1494.99</ele>
        <time>2013-04-07T13:19:13Z</time>
      </trkpt>
      <trkpt lat="46.229126639664173" lon="8.246537363156676">
        <ele>1494.51</ele>
        <time>2013-04-07T13:19:36Z</time>
      </trkpt>
      <trkpt lat="46.229123286902905" lon="8.246559072285891">
        <ele>1494.51</ele>
        <time>2013-04-07T13:19:56Z</time>
      </trkpt>
      <trkpt lat="46.229138877242804" lon="8.246579021215439">
        <ele>1494.51</ele>
        <time>2013-04-07T13:20:19Z</time>
      </trkpt>
      <trkpt lat="46.229148684069514" lon="8.246595785021782">
        <ele>1494.51</ele>
        <time>2013-04-07T13:20:42Z</time>
      </trkpt>
      <trkpt lat="46.229135356843472" lon="8.246528645977378">
        <ele>1494.51</ele>
        <time>2013-04-07T13:21:04Z</time>
      </trkpt>
      <trkpt lat="46.229118090122938" lon="8.246531998738647">
        <ele>1494.51</ele>
        <time>2013-04-07T13:21:22Z</time>
      </trkpt>
      <trkpt lat="46.229109792038798" lon="8.246563766151667">
        <ele>1495.47</ele>
        <time>2013-04-07T13:21:41Z</time>
      </trkpt>
      <trkpt lat="46.229122448712587" lon="8.246564520522952">
        <ele>1494.99</ele>
        <time>2013-04-07T13:22:02Z</time>
      </trkpt>
      <trkpt lat="46.229121275246143" lon="8.24659033678472">
        <ele>1494.99</ele>
        <time>2013-04-07T13:22:21Z</time>
      </trkpt>
      <trkpt lat="46.229139463976026" lon="8.24656737037003">
        <ele>1494.99</ele>
        <time>2013-04-07T13:22:38Z</time>
      </trkpt>
      <trkpt lat="46.229148348793387" lon="8.246530741453171">
        <ele>1494.99</ele>
        <time>2013-04-07T13:22:58Z</time>
      </trkpt>
      <trkpt lat="46.2291304115206" lon="8.246542979031801">
        <ele>1495.47</ele>
        <time>2013-04-07T13:23:14Z</time>
      </trkpt>
      <trkpt lat="46.229113060981035" lon="8.246527891606093">
        <ele>1494.99</ele>
        <time>2013-04-07T13:23:37Z</time>
      </trkpt>
      <trkpt lat="46.229100823402405" lon="8.246485060080886">
        <ele>1494.03</ele>
        <time>2013-04-07T13:23:51Z</time>
      </trkpt>
      <trkpt lat="46.229115407913923" lon="8.24648137204349">
        <ele>1494.03</ele>
        <time>2013-04-07T13:24:00Z</time>
      </trkpt>
      <trkpt lat="46.229128064587712" lon="8.246454382315278">
        <ele>1494.03</ele>
        <time>2013-04-07T13:24:13Z</time>
      </trkpt>
      <trkpt lat="46.22914407402277" lon="8.246440635994077">
        <ele>1494.03</ele>
        <time>2013-04-07T13:24:17Z</time>
      </trkpt>
      <trkpt lat="46.229201322421432" lon="8.246253049001098">
        <ele>1492.5799999999999</ele>
        <time>2013-04-07T13:24:34Z</time>
      </trkpt>
      <trkpt lat="46.229260247200727" lon="8.2460508774966">
        <ele>1492.0999999999999</ele>
        <time>2013-04-07T13:24:51Z</time>
      </trkpt>
      <trkpt lat="46.22927944175899" lon="8.245977032929659">
        <ele>1491.6199999999999</ele>
        <time>2013-04-07T13:24:58Z</time>
      </trkpt>
      <trkpt lat="46.229282459244132" lon="8.245908468961716">
        <ele>1491.1400000000001</ele>
        <time>2013-04-07T13:25:02Z</time>
      </trkpt>
      <trkpt lat="46.229290589690208" lon="8.245736556127667">
        <ele>1490.1800000000001</ele>
        <time>2013-04-07T13:25:13Z</time>
      </trkpt>
      <trkpt lat="46.229279777035117" lon="8.24566975235939">
        <ele>1489.7</ele>
        <time>2013-04-07T13:25:17Z</time>
      </trkpt>
      <trkpt lat="46.229223115369678" lon="8.245445704087615">
        <ele>1487.3</ele>
        <time>2013-04-07T13:25:31Z</time>
      </trkpt>
      <trkpt lat="46.229212386533618" lon="8.245205478742719">
        <ele>1484.8900000000001</ele>
        <time>2013-04-07T13:25:46Z</time>
      </trkpt>
      <trkpt lat="46.229138541966677" lon="8.244972378015518">
        <ele>1482.01</ele>
        <time>2013-04-07T13:26:03Z</time>
      </trkpt>
      <trkpt lat="46.229032007977366" lon="8.244778504595161">
        <ele>1479.1300000000001</ele>
        <time>2013-04-07T13:26:17Z</time>
      </trkpt>
      <trkpt lat="46.228933855891228" lon="8.244497124105692">
        <ele>1476.72</ele>
        <time>2013-04-07T13:26:35Z</time>
      </trkpt>
      <trkpt lat="46.228863447904587" lon="8.244248600676656">
        <ele>1474.8</ele>
        <time>2013-04-07T13:26:51Z</time>
      </trkpt>
      <trkpt lat="46.228791614994407" lon="8.243921790271998">
        <ele>1471.9200000000001</ele>
        <time>2013-04-07T13:27:09Z</time>
      </trkpt>
      <trkpt lat="46.228777030482888" lon="8.243585089221597">
        <ele>1469.03</ele>
        <time>2013-04-07T13:27:28Z</time>
      </trkpt>
      <trkpt lat="46.228785747662187" lon="8.243388198316097">
        <ele>1465.6700000000001</ele>
        <time>2013-04-07T13:27:40Z</time>
      </trkpt>
      <trkpt lat="46.228694636374712" lon="8.243331955745816">
        <ele>1463.26</ele>
        <time>2013-04-07T13:27:54Z</time>
      </trkpt>
      <trkpt lat="46.2285743560642" lon="8.243417534977198">
        <ele>1461.3399999999999</ele>
        <time>2013-04-07T13:28:07Z</time>
      </trkpt>
      <trkpt lat="46.228529093787074" lon="8.243395322933793">
        <ele>1459.9000000000001</ele>
        <time>2013-04-07T13:28:11Z</time>
      </trkpt>
      <trkpt lat="46.228516101837158" lon="8.243389371782541">
        <ele>1459.4200000000001</ele>
        <time>2013-04-07T13:28:12Z</time>
      </trkpt>
      <trkpt lat="46.228442005813122" lon="8.243251908570528">
        <ele>1457.02</ele>
        <time>2013-04-07T13:28:23Z</time>
      </trkpt>
      <trkpt lat="46.228337651118636" lon="8.243049988523126">
        <ele>1454.6099999999999</ele>
        <time>2013-04-07T13:28:39Z</time>
      </trkpt>
      <trkpt lat="46.228305213153362" lon="8.243028363212943">
        <ele>1453.6500000000001</ele>
        <time>2013-04-07T13:28:42Z</time>
      </trkpt>
      <trkpt lat="46.228153919801116" lon="8.243042109534144">
        <ele>1450.29</ele>
        <time>2013-04-07T13:28:57Z</time>
      </trkpt>
      <trkpt lat="46.228036908432841" lon="8.243089383468032">
        <ele>1448.3599999999999</ele>
        <time>2013-04-07T13:29:10Z</time>
      </trkpt>
      <trkpt lat="46.227864073589444" lon="8.243159875273705">
        <ele>1445.48</ele>
        <time>2013-04-07T13:29:25Z</time>
      </trkpt>
      <trkpt lat="46.22778763063252" lon="8.2433120906353">
        <ele>1442.1099999999999</ele>
        <time>2013-04-07T13:29:37Z</time>
      </trkpt>
      <trkpt lat="46.227670619264245" lon="8.243476878851652">
        <ele>1439.71</ele>
        <time>2013-04-07T13:29:51Z</time>
      </trkpt>
      <trkpt lat="46.22750666923821" lon="8.243405213579536">
        <ele>1438.27</ele>
        <time>2013-04-07T13:30:06Z</time>
      </trkpt>
      <trkpt lat="46.227328469976783" lon="8.243400184437633">
        <ele>1435.3900000000001</ele>
        <time>2013-04-07T13:30:22Z</time>
      </trkpt>
      <trkpt lat="46.227169716730714" lon="8.243495402857661">
        <ele>1432.02</ele>
        <time>2013-04-07T13:30:38Z</time>
      </trkpt>
      <trkpt lat="46.227067206054926" lon="8.243666226044297">
        <ele>1429.1400000000001</ele>
        <time>2013-04-07T13:30:51Z</time>
      </trkpt>
      <trkpt lat="46.22707768343389" lon="8.243993204087019">
        <ele>1428.1800000000001</ele>
        <time>2013-04-07T13:31:09Z</time>
      </trkpt>
      <trkpt lat="46.227050106972456" lon="8.244019523262978">
        <ele>1428.1800000000001</ele>
        <time>2013-04-07T13:31:13Z</time>
      </trkpt>
      <trkpt lat="46.227106852456927" lon="8.244303585961461">
        <ele>1425.77</ele>
        <time>2013-04-07T13:31:29Z</time>
      </trkpt>
      <trkpt lat="46.227106768637896" lon="8.244605585932732">
        <ele>1424.3299999999999</ele>
        <time>2013-04-07T13:31:46Z</time>
      </trkpt>
      <trkpt lat="46.227105846628547" lon="8.244623523205519">
        <ele>1423.8499999999999</ele>
        <time>2013-04-07T13:31:47Z</time>
      </trkpt>
      <trkpt lat="46.227104337885976" lon="8.244927115738392">
        <ele>1422.8900000000001</ele>
        <time>2013-04-07T13:32:04Z</time>
      </trkpt>
      <trkpt lat="46.227093609049916" lon="8.245172873139381">
        <ele>1420.49</ele>
        <time>2013-04-07T13:32:18Z</time>
      </trkpt>
      <trkpt lat="46.227096123620868" lon="8.245190726593137">
        <ele>1420.49</ele>
        <time>2013-04-07T13:32:19Z</time>
      </trkpt>
      <trkpt lat="46.22706888243556" lon="8.245455594733357">
        <ele>1419.52</ele>
        <time>2013-04-07T13:32:34Z</time>
      </trkpt>
      <trkpt lat="46.227052621543407" lon="8.245709985494614">
        <ele>1417.1199999999999</ele>
        <time>2013-04-07T13:32:49Z</time>
      </trkpt>
      <trkpt lat="46.227068128064275" lon="8.245804198086262">
        <ele>1416.1600000000001</ele>
        <time>2013-04-07T13:32:55Z</time>
      </trkpt>
      <trkpt lat="46.227097967639565" lon="8.245967393741012">
        <ele>1413.76</ele>
        <time>2013-04-07T13:33:05Z</time>
      </trkpt>
      <trkpt lat="46.227151360362768" lon="8.246242320165038">
        <ele>1413.28</ele>
        <time>2013-04-07T13:33:22Z</time>
      </trkpt>
      <trkpt lat="46.227163849398494" lon="8.246317002922297">
        <ele>1413.76</ele>
        <time>2013-04-07T13:33:27Z</time>
      </trkpt>
      <trkpt lat="46.227160664275289" lon="8.246321026235819">
        <ele>1412.79</ele>
        <time>2013-04-07T13:33:32Z</time>
      </trkpt>
      <trkpt lat="46.227154294028878" lon="8.246304849162698">
        <ele>1412.3099999999999</ele>
        <time>2013-04-07T13:33:48Z</time>
      </trkpt>
      <trkpt lat="46.227178433910012" lon="8.246328989043832">
        <ele>1412.3099999999999</ele>
        <time>2013-04-07T13:34:03Z</time>
      </trkpt>
      <trkpt lat="46.22714951634407" lon="8.246301077306271">
        <ele>1413.28</ele>
        <time>2013-04-07T13:34:12Z</time>
      </trkpt>
      <trkpt lat="46.22713434509933" lon="8.246325803920627">
        <ele>1412.3099999999999</ele>
        <time>2013-04-07T13:34:24Z</time>
      </trkpt>
      <trkpt lat="46.227125879377127" lon="8.246504422277212">
        <ele>1412.3099999999999</ele>
        <time>2013-04-07T13:34:34Z</time>
      </trkpt>
      <trkpt lat="46.227098638191819" lon="8.246779013425112">
        <ele>1411.3499999999999</ele>
        <time>2013-04-07T13:34:50Z</time>
      </trkpt>
      <trkpt lat="46.227096458896995" lon="8.246857384219766">
        <ele>1410.8699999999999</ele>
        <time>2013-04-07T13:34:55Z</time>
      </trkpt>
      <trkpt lat="46.227057315409184" lon="8.247133316472173">
        <ele>1408.95</ele>
        <time>2013-04-07T13:35:11Z</time>
      </trkpt>
      <trkpt lat="46.22704541310668" lon="8.247162569314241">
        <ele>1408.47</ele>
        <time>2013-04-07T13:35:13Z</time>
      </trkpt>
      <trkpt lat="46.226979866623878" lon="8.247417043894529">
        <ele>1405.0999999999999</ele>
        <time>2013-04-07T13:35:29Z</time>
      </trkpt>
      <trkpt lat="46.226868303492665" lon="8.247651401907206">
        <ele>1403.1800000000001</ele>
        <time>2013-04-07T13:35:45Z</time>
      </trkpt>
      <trkpt lat="46.22670435346663" lon="8.247854495421052">
        <ele>1400.3</ele>
        <time>2013-04-07T13:36:03Z</time>
      </trkpt>
      <trkpt lat="46.226544678211212" lon="8.247974021360278">
        <ele>1398.8599999999999</ele>
        <time>2013-04-07T13:36:18Z</time>
      </trkpt>
      <trkpt lat="46.226411238312721" lon="8.248125985264778">
        <ele>1397.4100000000001</ele>
        <time>2013-04-07T13:36:34Z</time>
      </trkpt>
      <trkpt lat="46.226390367373824" lon="8.248183820396662">
        <ele>1396.9300000000001</ele>
        <time>2013-04-07T13:36:38Z</time>
      </trkpt>
      <trkpt lat="46.226372011005878" lon="8.248225310817361">
        <ele>1396.9300000000001</ele>
        <time>2013-04-07T13:36:41Z</time>
      </trkpt>
      <trkpt lat="46.226364634931087" lon="8.248299323022366">
        <ele>1395.97</ele>
        <time>2013-04-07T13:36:46Z</time>
      </trkpt>
      <trkpt lat="46.226353570818901" lon="8.24833276681602">
        <ele>1395.49</ele>
        <time>2013-04-07T13:36:48Z</time>
      </trkpt>
      <trkpt lat="46.226356001570821" lon="8.248401917517185">
        <ele>1395.01</ele>
        <time>2013-04-07T13:36:52Z</time>
      </trkpt>
      <trkpt lat="46.22637209482491" lon="8.248581625521183">
        <ele>1393.5699999999999</ele>
        <time>2013-04-07T13:37:02Z</time>
      </trkpt>
      <trkpt lat="46.226351726800203" lon="8.24868799187243">
        <ele>1391.6500000000001</ele>
        <time>2013-04-07T13:37:09Z</time>
      </trkpt>
      <trkpt lat="46.226242342963815" lon="8.24860006570816">
        <ele>1389.24</ele>
        <time>2013-04-07T13:37:20Z</time>
      </trkpt>
      <trkpt lat="46.22618199326098" lon="8.248410969972611">
        <ele>1386.8399999999999</ele>
        <time>2013-04-07T13:37:32Z</time>
      </trkpt>
      <trkpt lat="46.226131282746792" lon="8.248269148170948">
        <ele>1384.9200000000001</ele>
        <time>2013-04-07T13:37:41Z</time>
      </trkpt>
      <trkpt lat="46.226060874760151" lon="8.248061612248421">
        <ele>1381.55</ele>
        <time>2013-04-07T13:37:55Z</time>
      </trkpt>
      <trkpt lat="46.226073615252972" lon="8.24793110601604">
        <ele>1379.6300000000001</ele>
        <time>2013-04-07T13:38:02Z</time>
      </trkpt>
      <trkpt lat="46.226132120937109" lon="8.247773190960288">
        <ele>1377.23</ele>
        <time>2013-04-07T13:38:12Z</time>
      </trkpt>
      <trkpt lat="46.226177047938108" lon="8.247662717476487">
        <ele>1375.78</ele>
        <time>2013-04-07T13:38:20Z</time>
      </trkpt>
      <trkpt lat="46.226194901391864" lon="8.247612342238426">
        <ele>1375.78</ele>
        <time>2013-04-07T13:38:23Z</time>
      </trkpt>
      <trkpt lat="46.226260783150792" lon="8.247401621192694">
        <ele>1372.4200000000001</ele>
        <time>2013-04-07T13:38:36Z</time>
      </trkpt>
      <trkpt lat="46.226284587755799" lon="8.247285867109895">
        <ele>1370.5</ele>
        <time>2013-04-07T13:38:44Z</time>
      </trkpt>
      <trkpt lat="46.226293304935098" lon="8.247057711705566">
        <ele>1367.1300000000001</ele>
        <time>2013-04-07T13:38:58Z</time>
      </trkpt>
      <trkpt lat="46.226287437602878" lon="8.246815223246813">
        <ele>1363.77</ele>
        <time>2013-04-07T13:39:14Z</time>
      </trkpt>
      <trkpt lat="46.226285342127085" lon="8.246690332889557">
        <ele>1362.8099999999999</ele>
        <time>2013-04-07T13:39:21Z</time>
      </trkpt>
      <trkpt lat="46.226229602470994" lon="8.246563347056508">
        <ele>1360.8800000000001</ele>
        <time>2013-04-07T13:39:29Z</time>
      </trkpt>
      <trkpt lat="46.226088032126427" lon="8.246540883556008">
        <ele>1357.52</ele>
        <time>2013-04-07T13:39:44Z</time>
      </trkpt>
      <trkpt lat="46.226013265550137" lon="8.246521186083555">
        <ele>1356.0799999999999</ele>
        <time>2013-04-07T13:39:51Z</time>
      </trkpt>
      <trkpt lat="46.225882591679692" lon="8.246389171108604">
        <ele>1352.71</ele>
        <time>2013-04-07T13:40:05Z</time>
      </trkpt>
      <trkpt lat="46.225873539224267" lon="8.246373329311609">
        <ele>1352.23</ele>
        <time>2013-04-07T13:40:06Z</time>
      </trkpt>
      <trkpt lat="46.225766586139798" lon="8.246248019859195">
        <ele>1349.3499999999999</ele>
        <time>2013-04-07T13:40:19Z</time>
      </trkpt>
      <trkpt lat="46.225743368268013" lon="8.24623703956604">
        <ele>1348.8699999999999</ele>
        <time>2013-04-07T13:40:21Z</time>
      </trkpt>
      <trkpt lat="46.225703386589885" lon="8.246183563023806">
        <ele>1348.3900000000001</ele>
        <time>2013-04-07T13:40:25Z</time>
      </trkpt>
      <trkpt lat="46.225633230060339" lon="8.24603863991797">
        <ele>1346.9400000000001</ele>
        <time>2013-04-07T13:40:35Z</time>
      </trkpt>
      <trkpt lat="46.225582100450993" lon="8.245870331302285">
        <ele>1344.54</ele>
        <time>2013-04-07T13:40:45Z</time>
      </trkpt>
      <trkpt lat="46.225484116002917" lon="8.245577216148377">
        <ele>1342.1400000000001</ele>
        <time>2013-04-07T13:41:02Z</time>
      </trkpt>
      <trkpt lat="46.225451678037643" lon="8.245274042710662">
        <ele>1340.7</ele>
        <time>2013-04-07T13:41:18Z</time>
      </trkpt>
      <trkpt lat="46.225459221750498" lon="8.245219308882952">
        <ele>1339.25</ele>
        <time>2013-04-07T13:41:32Z</time>
      </trkpt>
      <trkpt lat="46.225451091304421" lon="8.245211262255907">
        <ele>1338.77</ele>
        <time>2013-04-07T13:41:43Z</time>
      </trkpt>
      <trkpt lat="46.225451091304421" lon="8.245205478742719">
        <ele>1339.25</ele>
        <time>2013-04-07T13:41:44Z</time>
      </trkpt>
      <trkpt lat="46.225445391610265" lon="8.24492652900517">
        <ele>1337.3299999999999</ele>
        <time>2013-04-07T13:42:00Z</time>
      </trkpt>
      <trkpt lat="46.225408762693405" lon="8.244673982262611">
        <ele>1334.9300000000001</ele>
        <time>2013-04-07T13:42:16Z</time>
      </trkpt>
      <trkpt lat="46.225354531779885" lon="8.244391344487667">
        <ele>1332.52</ele>
        <time>2013-04-07T13:42:32Z</time>
      </trkpt>
      <trkpt lat="46.225330475717783" lon="8.244088003411889">
        <ele>1330.1199999999999</ele>
        <time>2013-04-07T13:42:49Z</time>
      </trkpt>
      <trkpt lat="46.225310107693076" lon="8.24387694709003">
        <ele>1326.76</ele>
        <time>2013-04-07T13:43:01Z</time>
      </trkpt>
      <trkpt lat="46.225292421877384" lon="8.243693551048636">
        <ele>1325.8</ele>
        <time>2013-04-07T13:43:12Z</time>
      </trkpt>
      <trkpt lat="46.225247494876385" lon="8.24342792853713">
        <ele>1322.4300000000001</ele>
        <time>2013-04-07T13:43:27Z</time>
      </trkpt>
      <trkpt lat="46.225212458521128" lon="8.243191475048661">
        <ele>1320.51</ele>
        <time>2013-04-07T13:43:40Z</time>
      </trkpt>
      <trkpt lat="46.22520818375051" lon="8.242996511980891">
        <ele>1319.0699999999999</ele>
        <time>2013-04-07T13:43:52Z</time>
      </trkpt>
      <trkpt lat="46.225157640874386" lon="8.242981340736151">
        <ele>1318.0999999999999</ele>
        <time>2013-04-07T13:43:57Z</time>
      </trkpt>
      <trkpt lat="46.225132662802935" lon="8.242993745952845">
        <ele>1318.0999999999999</ele>
        <time>2013-04-07T13:44:00Z</time>
      </trkpt>
      <trkpt lat="46.225107433274388" lon="8.243074379861355">
        <ele>1317.1400000000001</ele>
        <time>2013-04-07T13:44:05Z</time>
      </trkpt>
      <trkpt lat="46.225103829056025" lon="8.24312006123364">
        <ele>1316.6600000000001</ele>
        <time>2013-04-07T13:44:08Z</time>
      </trkpt>
      <trkpt lat="46.225005593150854" lon="8.24338342063129">
        <ele>1314.74</ele>
        <time>2013-04-07T13:44:27Z</time>
      </trkpt>
      <trkpt lat="46.22493501752615" lon="8.243561703711748">
        <ele>1313.78</ele>
        <time>2013-04-07T13:44:38Z</time>
      </trkpt>
      <trkpt lat="46.224897466599941" lon="8.243676368147135">
        <ele>1312.8199999999999</ele>
        <time>2013-04-07T13:44:45Z</time>
      </trkpt>
      <trkpt lat="46.224817335605621" lon="8.243905529379845">
        <ele>1311.8599999999999</ele>
        <time>2013-04-07T13:44:59Z</time>
      </trkpt>
      <trkpt lat="46.224798141047359" lon="8.244003681465983">
        <ele>1310.4100000000001</ele>
        <time>2013-04-07T13:45:05Z</time>
      </trkpt>
      <trkpt lat="46.224717842414975" lon="8.244256060570478">
        <ele>1307.05</ele>
        <time>2013-04-07T13:45:21Z</time>
      </trkpt>
      <trkpt lat="46.224709879606962" lon="8.244264610111713">
        <ele>1307.05</ele>
        <time>2013-04-07T13:45:22Z</time>
      </trkpt>
      <trkpt lat="46.224624216556549" lon="8.244109628722072">
        <ele>1306.0899999999999</ele>
        <time>2013-04-07T13:45:31Z</time>
      </trkpt>
      <trkpt lat="46.224632179364562" lon="8.243761444464326">
        <ele>1303.6900000000001</ele>
        <time>2013-04-07T13:45:50Z</time>
      </trkpt>
      <trkpt lat="46.224630083888769" lon="8.24365071952343">
        <ele>1300.8</ele>
        <time>2013-04-07T13:45:57Z</time>
      </trkpt>
      <trkpt lat="46.22459203004837" lon="8.243400268256664">
        <ele>1298.8800000000001</ele>
        <time>2013-04-07T13:46:12Z</time>
      </trkpt>
      <trkpt lat="46.224584151059389" lon="8.243113690987229">
        <ele>1296.48</ele>
        <time>2013-04-07T13:46:29Z</time>
      </trkpt>
      <trkpt lat="46.224582390859723" lon="8.242889139801264">
        <ele>1295.03</ele>
        <time>2013-04-07T13:46:41Z</time>
      </trkpt>
      <trkpt lat="46.224582977592945" lon="8.242633575573564">
        <ele>1293.1099999999999</ele>
        <time>2013-04-07T13:46:55Z</time>
      </trkpt>
      <trkpt lat="46.224585827440023" lon="8.242440037429333">
        <ele>1291.1900000000001</ele>
        <time>2013-04-07T13:47:06Z</time>
      </trkpt>
      <trkpt lat="46.224600914865732" lon="8.242381028831005">
        <ele>1291.1900000000001</ele>
        <time>2013-04-07T13:47:10Z</time>
      </trkpt>
      <trkpt lat="46.224578116089106" lon="8.242151951417327">
        <ele>1289.75</ele>
        <time>2013-04-07T13:47:23Z</time>
      </trkpt>
      <trkpt lat="46.224620025604963" lon="8.241968136280775">
        <ele>1289.27</ele>
        <time>2013-04-07T13:47:32Z</time>
      </trkpt>
      <trkpt lat="46.22462622821331" lon="8.241868894547224">
        <ele>1288.78</ele>
        <time>2013-04-07T13:47:37Z</time>
      </trkpt>
      <trkpt lat="46.224660845473409" lon="8.241504449397326">
        <ele>1285.9000000000001</ele>
        <time>2013-04-07T13:47:56Z</time>
      </trkpt>
      <trkpt lat="46.224688505753875" lon="8.241218375042081">
        <ele>1284.46</ele>
        <time>2013-04-07T13:48:11Z</time>
      </trkpt>
      <trkpt lat="46.224748687818646" lon="8.240918554365635">
        <ele>1281.0899999999999</ele>
        <time>2013-04-07T13:48:26Z</time>
      </trkpt>
      <trkpt lat="46.224753046408296" lon="8.240901287645102">
        <ele>1281.0899999999999</ele>
        <time>2013-04-07T13:48:27Z</time>
      </trkpt>
      <trkpt lat="46.22485438361764" lon="8.240672126412392">
        <ele>1278.6900000000001</ele>
        <time>2013-04-07T13:48:41Z</time>
      </trkpt>
      <trkpt lat="46.22494189068675" lon="8.240359062328935">
        <ele>1276.29</ele>
        <time>2013-04-07T13:48:57Z</time>
      </trkpt>
      <trkpt lat="46.224979273974895" lon="8.240152280777693">
        <ele>1273.8800000000001</ele>
        <time>2013-04-07T13:49:10Z</time>
      </trkpt>
      <trkpt lat="46.225010622292757" lon="8.239991348236799">
        <ele>1271.96</ele>
        <time>2013-04-07T13:49:20Z</time>
      </trkpt>
      <trkpt lat="46.225026547908783" lon="8.239921359345317">
        <ele>1270.52</ele>
        <time>2013-04-07T13:49:24Z</time>
      </trkpt>
      <trkpt lat="46.225099135190248" lon="8.239586083218455">
        <ele>1268.5999999999999</ele>
        <time>2013-04-07T13:49:41Z</time>
      </trkpt>
      <trkpt lat="46.225162502378225" lon="8.239354239776731">
        <ele>1265.23</ele>
        <time>2013-04-07T13:49:56Z</time>
      </trkpt>
      <trkpt lat="46.225172728300095" lon="8.239246616140008">
        <ele>1264.27</ele>
        <time>2013-04-07T13:50:03Z</time>
      </trkpt>
      <trkpt lat="46.225162334740162" lon="8.239230522885919">
        <ele>1263.79</ele>
        <time>2013-04-07T13:50:04Z</time>
      </trkpt>
      <trkpt lat="46.225127130746841" lon="8.239232199266553">
        <ele>1262.8299999999999</ele>
        <time>2013-04-07T13:50:07Z</time>
      </trkpt>
      <trkpt lat="46.225028894841671" lon="8.239438896998763">
        <ele>1259.9400000000001</ele>
        <time>2013-04-07T13:50:21Z</time>
      </trkpt>
      <trkpt lat="46.224972903728485" lon="8.239544676616788">
        <ele>1258.98</ele>
        <time>2013-04-07T13:50:30Z</time>
      </trkpt>
      <trkpt lat="46.224918672814965" lon="8.239697897806764">
        <ele>1257.0599999999999</ele>
        <time>2013-04-07T13:50:42Z</time>
      </trkpt>
      <trkpt lat="46.224894197657704" lon="8.239756738767028">
        <ele>1256.0999999999999</ele>
        <time>2013-04-07T13:50:46Z</time>
      </trkpt>
      <trkpt lat="46.224710214883089" lon="8.239902248606086">
        <ele>1254.6600000000001</ele>
        <time>2013-04-07T13:51:01Z</time>
      </trkpt>
      <trkpt lat="46.224648104980588" lon="8.239961424842477">
        <ele>1253.7</ele>
        <time>2013-04-07T13:51:08Z</time>
      </trkpt>
      <trkpt lat="46.224487507715821" lon="8.240105174481869">
        <ele>1251.77</ele>
        <time>2013-04-07T13:51:23Z</time>
      </trkpt>
      <trkpt lat="46.224353313446045" lon="8.240275159478188">
        <ele>1250.3299999999999</ele>
        <time>2013-04-07T13:51:39Z</time>
      </trkpt>
      <trkpt lat="46.224275026470423" lon="8.240413041785359">
        <ele>1248.8900000000001</ele>
        <time>2013-04-07T13:51:50Z</time>
      </trkpt>
      <trkpt lat="46.224200595170259" lon="8.240583278238773">
        <ele>1247.45</ele>
        <time>2013-04-07T13:52:02Z</time>
      </trkpt>
      <trkpt lat="46.224088026210666" lon="8.240820821374655">
        <ele>1246.01</ele>
        <time>2013-04-07T13:52:19Z</time>
      </trkpt>
      <trkpt lat="46.22408190742135" lon="8.240833980962634">
        <ele>1245.53</ele>
        <time>2013-04-07T13:52:20Z</time>
      </trkpt>
      <trkpt lat="46.224030442535877" lon="8.240893492475152">
        <ele>1245.04</ele>
        <time>2013-04-07T13:52:25Z</time>
      </trkpt>
      <trkpt lat="46.223916700109839" lon="8.241132376715541">
        <ele>1242.6400000000001</ele>
        <time>2013-04-07T13:52:41Z</time>
      </trkpt>
      <trkpt lat="46.223866576328874" lon="8.241273276507855">
        <ele>1242.1600000000001</ele>
        <time>2013-04-07T13:52:50Z</time>
      </trkpt>
      <trkpt lat="46.223867079243064" lon="8.241396071389318">
        <ele>1241.2</ele>
        <time>2013-04-07T13:52:57Z</time>
      </trkpt>
      <trkpt lat="46.223860625177622" lon="8.241464802995324">
        <ele>1240.72</ele>
        <time>2013-04-07T13:53:01Z</time>
      </trkpt>
      <trkpt lat="46.223824247717857" lon="8.241568235680461">
        <ele>1239.28</ele>
        <time>2013-04-07T13:53:07Z</time>
      </trkpt>
      <trkpt lat="46.223798766732216" lon="8.241633363068104">
        <ele>1238.3199999999999</ele>
        <time>2013-04-07T13:53:11Z</time>
      </trkpt>
      <trkpt lat="46.223758282139897" lon="8.241765629500151">
        <ele>1237.8299999999999</ele>
        <time>2013-04-07T13:53:19Z</time>
      </trkpt>
      <trkpt lat="46.223751828074455" lon="8.241818603128195">
        <ele>1237.3499999999999</ele>
        <time>2013-04-07T13:53:22Z</time>
      </trkpt>
      <trkpt lat="46.223627524450421" lon="8.241991437971592">
        <ele>1235.4300000000001</ele>
        <time>2013-04-07T13:53:37Z</time>
      </trkpt>
      <trkpt lat="46.223603384569287" lon="8.242026977241039">
        <ele>1234.95</ele>
        <time>2013-04-07T13:53:40Z</time>
      </trkpt>
      <trkpt lat="46.223474303260446" lon="8.242192519828677">
        <ele>1232.0699999999999</ele>
        <time>2013-04-07T13:53:55Z</time>
      </trkpt>
      <trkpt lat="46.223379671573639" lon="8.242310620844364">
        <ele>1230.1400000000001</ele>
        <time>2013-04-07T13:54:06Z</time>
      </trkpt>
      <trkpt lat="46.223341533914208" lon="8.242413131520152">
        <ele>1229.1800000000001</ele>
        <time>2013-04-07T13:54:12Z</time>
      </trkpt>
      <trkpt lat="46.223336169496179" lon="8.242457807064056">
        <ele>1228.7</ele>
        <time>2013-04-07T13:54:15Z</time>
      </trkpt>
      <trkpt lat="46.223291326314211" lon="8.242522263899446">
        <ele>1227.74</ele>
        <time>2013-04-07T13:54:20Z</time>
      </trkpt>
      <trkpt lat="46.223283531144261" lon="8.242553360760212">
        <ele>1227.74</ele>
        <time>2013-04-07T13:54:22Z</time>
      </trkpt>
      <trkpt lat="46.223240364342928" lon="8.242653692141175">
        <ele>1226.78</ele>
        <time>2013-04-07T13:54:29Z</time>
      </trkpt>
      <trkpt lat="46.223236005753279" lon="8.242685375735164">
        <ele>1225.8199999999999</ele>
        <time>2013-04-07T13:54:31Z</time>
      </trkpt>
      <trkpt lat="46.223211362957954" lon="8.242753269150853">
        <ele>1224.3800000000001</ele>
        <time>2013-04-07T13:54:35Z</time>
      </trkpt>
      <trkpt lat="46.223101476207376" lon="8.243027189746499">
        <ele>1221.97</ele>
        <time>2013-04-07T13:54:50Z</time>
      </trkpt>
      <trkpt lat="46.223014472052455" lon="8.243291806429625">
        <ele>1219.5699999999999</ele>
        <time>2013-04-07T13:55:06Z</time>
      </trkpt>
      <trkpt lat="46.222909279167652" lon="8.243541419506073">
        <ele>1217.6500000000001</ele>
        <time>2013-04-07T13:55:21Z</time>
      </trkpt>
      <trkpt lat="46.222881954163313" lon="8.243652312085033">
        <ele>1217.6500000000001</ele>
        <time>2013-04-07T13:55:28Z</time>
      </trkpt>
      <trkpt lat="46.222807355225086" lon="8.243667399510741">
        <ele>1217.6500000000001</ele>
        <time>2013-04-07T13:55:33Z</time>
      </trkpt>
      <trkpt lat="46.222621779888868" lon="8.24368248693645">
        <ele>1220.05</ele>
        <time>2013-04-07T13:55:49Z</time>
      </trkpt>
      <trkpt lat="46.222618510946631" lon="8.243684833869338">
        <ele>1220.53</ele>
        <time>2013-04-07T13:55:50Z</time>
      </trkpt>
      <trkpt lat="46.222633933648467" lon="8.243634961545467">
        <ele>1218.6099999999999</ele>
        <time>2013-04-07T13:56:03Z</time>
      </trkpt>
      <trkpt lat="46.222660588100553" lon="8.243635799735785">
        <ele>1217.6500000000001</ele>
        <time>2013-04-07T13:56:12Z</time>
      </trkpt>
      <trkpt lat="46.222696881741285" lon="8.24365315027535">
        <ele>1216.21</ele>
        <time>2013-04-07T13:56:21Z</time>
      </trkpt>
      <trkpt lat="46.222704341635108" lon="8.243689360097051">
        <ele>1215.72</ele>
        <time>2013-04-07T13:56:32Z</time>
      </trkpt>
      <trkpt lat="46.222696211189032" lon="8.243654826655984">
        <ele>1217.1700000000001</ele>
        <time>2013-04-07T13:56:43Z</time>
      </trkpt>
      <trkpt lat="46.222704173997045" lon="8.243664465844631">
        <ele>1216.6900000000001</ele>
        <time>2013-04-07T13:57:04Z</time>
      </trkpt>
      <trkpt lat="46.222736528143287" lon="8.243660107254982">
        <ele>1216.6900000000001</ele>
        <time>2013-04-07T13:57:20Z</time>
      </trkpt>
      <trkpt lat="46.222721189260483" lon="8.243680810555816">
        <ele>1215.72</ele>
        <time>2013-04-07T13:57:33Z</time>
      </trkpt>
      <trkpt lat="46.222701324149966" lon="8.243662705644965">
        <ele>1216.21</ele>
        <time>2013-04-07T13:57:50Z</time>
      </trkpt>
      <trkpt lat="46.222710125148296" lon="8.24365021660924">
        <ele>1215.72</ele>
        <time>2013-04-07T13:58:04Z</time>
      </trkpt>
      <trkpt lat="46.222750945016742" lon="8.243772173300386">
        <ele>1216.6900000000001</ele>
        <time>2013-04-07T13:58:16Z</time>
      </trkpt>
      <trkpt lat="46.222751112654805" lon="8.243788769468665">
        <ele>1216.21</ele>
        <time>2013-04-07T13:58:32Z</time>
      </trkpt>
      <trkpt lat="46.222766786813736" lon="8.243784913793206">
        <ele>1216.6900000000001</ele>
        <time>2013-04-07T13:58:46Z</time>
      </trkpt>
      <trkpt lat="46.222759997472167" lon="8.243805533275008">
        <ele>1216.6900000000001</ele>
        <time>2013-04-07T13:58:59Z</time>
      </trkpt>
      <trkpt lat="46.222752705216408" lon="8.243829505518079">
        <ele>1216.6900000000001</ele>
        <time>2013-04-07T13:59:24Z</time>
      </trkpt>
      <trkpt lat="46.222753208130598" lon="8.243819698691368">
        <ele>1216.6900000000001</ele>
        <time>2013-04-07T13:59:41Z</time>
      </trkpt>
      <trkpt lat="46.222743485122919" lon="8.243794636800885">
        <ele>1217.1700000000001</ele>
        <time>2013-04-07T14:00:06Z</time>
      </trkpt>
      <trkpt lat="46.222775420174003" lon="8.243793211877346">
        <ele>1217.1700000000001</ele>
        <time>2013-04-07T14:00:20Z</time>
      </trkpt>
      <trkpt lat="46.222781371325254" lon="8.243794552981854">
        <ele>1217.6500000000001</ele>
        <time>2013-04-07T14:00:44Z</time>
      </trkpt>
      <trkpt lat="46.222769636660814" lon="8.243775945156813">
        <ele>1217.6500000000001</ele>
        <time>2013-04-07T14:01:05Z</time>
      </trkpt>
      <trkpt lat="46.222767038270831" lon="8.243764881044626">
        <ele>1216.6900000000001</ele>
        <time>2013-04-07T14:01:31Z</time>
      </trkpt>
      <trkpt lat="46.222768295556307" lon="8.243815591558814">
        <ele>1216.6900000000001</ele>
        <time>2013-04-07T14:01:47Z</time>
      </trkpt>
      <trkpt lat="46.222783802077174" lon="8.243820369243622">
        <ele>1216.21</ele>
        <time>2013-04-07T14:02:00Z</time>
      </trkpt>
      <trkpt lat="46.222770810127258" lon="8.243824057281017">
        <ele>1216.21</ele>
        <time>2013-04-07T14:02:23Z</time>
      </trkpt>
      <trkpt lat="46.222761170938611" lon="8.243822967633605">
        <ele>1217.1700000000001</ele>
        <time>2013-04-07T14:02:33Z</time>
      </trkpt>
      <trkpt lat="46.222752789035439" lon="8.243822297081351">
        <ele>1216.6900000000001</ele>
        <time>2013-04-07T14:02:46Z</time>
      </trkpt>
      <trkpt lat="46.222751867026091" lon="8.243820955976844">
        <ele>1217.6500000000001</ele>
        <time>2013-04-07T14:02:48Z</time>
      </trkpt>
      <trkpt lat="46.222758237272501" lon="8.243821375072002">
        <ele>1216.6900000000001</ele>
        <time>2013-04-07T14:03:06Z</time>
      </trkpt>
      <trkpt lat="46.222759997472167" lon="8.243830846622586">
        <ele>1216.6900000000001</ele>
        <time>2013-04-07T14:03:25Z</time>
      </trkpt>
      <trkpt lat="46.222760500386357" lon="8.243865296244621">
        <ele>1216.21</ele>
        <time>2013-04-07T14:03:44Z</time>
      </trkpt>
      <trkpt lat="46.222757985815406" lon="8.243868565186858">
        <ele>1216.6900000000001</ele>
        <time>2013-04-07T14:04:02Z</time>
      </trkpt>
      <trkpt lat="46.222735438495874" lon="8.24385154992342">
        <ele>1216.21</ele>
        <time>2013-04-07T14:04:22Z</time>
      </trkpt>
      <trkpt lat="46.222751196473837" lon="8.243839228525758">
        <ele>1216.6900000000001</ele>
        <time>2013-04-07T14:04:44Z</time>
      </trkpt>
      <trkpt lat="46.222740048542619" lon="8.243832858279347">
        <ele>1216.6900000000001</ele>
        <time>2013-04-07T14:05:00Z</time>
      </trkpt>
      <trkpt lat="46.222770307213068" lon="8.243831265717745">
        <ele>1215.72</ele>
        <time>2013-04-07T14:05:16Z</time>
      </trkpt>
      <trkpt lat="46.222781538963318" lon="8.243908882141113">
        <ele>1215.72</ele>
        <time>2013-04-07T14:05:26Z</time>
      </trkpt>
      <trkpt lat="46.22277139686048" lon="8.243926735594869">
        <ele>1215.72</ele>
        <time>2013-04-07T14:05:36Z</time>
      </trkpt>
      <trkpt lat="46.22276502661407" lon="8.243930507451296">
        <ele>1214.28</ele>
        <time>2013-04-07T14:05:38Z</time>
      </trkpt>
      <trkpt lat="46.222742814570665" lon="8.244032431393862">
        <ele>1214.76</ele>
        <time>2013-04-07T14:05:49Z</time>
      </trkpt>
      <trkpt lat="46.222707945853472" lon="8.244228819385171">
        <ele>1214.28</ele>
        <time>2013-04-07T14:06:02Z</time>
      </trkpt>
      <trkpt lat="46.222692942246795" lon="8.244326133280993">
        <ele>1214.76</ele>
        <time>2013-04-07T14:06:10Z</time>
      </trkpt>
      <trkpt lat="46.222679950296879" lon="8.244420513510704">
        <ele>1213.8</ele>
        <time>2013-04-07T14:06:16Z</time>
      </trkpt>
      <trkpt lat="46.222612978890538" lon="8.244610447436571">
        <ele>1212.3599999999999</ele>
        <time>2013-04-07T14:06:29Z</time>
      </trkpt>
      <trkpt lat="46.222539134323597" lon="8.24484690092504">
        <ele>1209.96</ele>
        <time>2013-04-07T14:06:44Z</time>
      </trkpt>
      <trkpt lat="46.222494039684534" lon="8.244884368032217">
        <ele>1209.96</ele>
        <time>2013-04-07T14:06:56Z</time>
      </trkpt>
      <trkpt lat="46.222517173737288" lon="8.244897276163101">
        <ele>1210.4400000000001</ele>
        <time>2013-04-07T14:07:11Z</time>
      </trkpt>
      <trkpt lat="46.222514742985368" lon="8.244971623644233">
        <ele>1209.48</ele>
        <time>2013-04-07T14:07:21Z</time>
      </trkpt>
      <trkpt lat="46.22250703163445" lon="8.245070362463594">
        <ele>1208.51</ele>
        <time>2013-04-07T14:07:27Z</time>
      </trkpt>
      <trkpt lat="46.222505271434784" lon="8.245207155123353">
        <ele>1207.55</ele>
        <time>2013-04-07T14:07:36Z</time>
      </trkpt>
      <trkpt lat="46.222493285313249" lon="8.24545131996274">
        <ele>1205.6300000000001</ele>
        <time>2013-04-07T14:07:52Z</time>
      </trkpt>
      <trkpt lat="46.222508037462831" lon="8.245597751811147">
        <ele>1204.1900000000001</ele>
        <time>2013-04-07T14:08:01Z</time>
      </trkpt>
      <trkpt lat="46.222491106018424" lon="8.245879719033837">
        <ele>1200.8199999999999</ele>
        <time>2013-04-07T14:08:19Z</time>
      </trkpt>
      <trkpt lat="46.222482724115252" lon="8.245907044038177">
        <ele>1200.8199999999999</ele>
        <time>2013-04-07T14:08:21Z</time>
      </trkpt>
      <trkpt lat="46.222445424646139" lon="8.245972422882915">
        <ele>1200.3399999999999</ele>
        <time>2013-04-07T14:08:27Z</time>
      </trkpt>
      <trkpt lat="46.222395971417427" lon="8.246191190555692">
        <ele>1199.3800000000001</ele>
        <time>2013-04-07T14:08:41Z</time>
      </trkpt>
      <trkpt lat="46.222373424097896" lon="8.2462028414011">
        <ele>1198.4200000000001</ele>
        <time>2013-04-07T14:08:52Z</time>
      </trkpt>
      <trkpt lat="46.222370071336627" lon="8.246200075373054">
        <ele>1198.4200000000001</ele>
        <time>2013-04-07T14:09:12Z</time>
      </trkpt>
      <trkpt lat="46.222357414662838" lon="8.246320523321629">
        <ele>1197.9400000000001</ele>
        <time>2013-04-07T14:09:18Z</time>
      </trkpt>
      <trkpt lat="46.222351714968681" lon="8.246476342901588">
        <ele>1197.46</ele>
        <time>2013-04-07T14:09:25Z</time>
      </trkpt>
      <trkpt lat="46.2223956361413" lon="8.246745066717267">
        <ele>1195.0599999999999</ele>
        <time>2013-04-07T14:09:37Z</time>
      </trkpt>
      <trkpt lat="46.222410388290882" lon="8.246811199933291">
        <ele>1194.5799999999999</ele>
        <time>2013-04-07T14:09:41Z</time>
      </trkpt>
      <trkpt lat="46.222366886213422" lon="8.246950758621097">
        <ele>1192.1700000000001</ele>
        <time>2013-04-07T14:09:50Z</time>
      </trkpt>
      <trkpt lat="46.222290778532624" lon="8.246917398646474">
        <ele>1191.21</ele>
        <time>2013-04-07T14:09:57Z</time>
      </trkpt>
      <trkpt lat="46.222196901217103" lon="8.246739869937301">
        <ele>1188.8099999999999</ele>
        <time>2013-04-07T14:10:10Z</time>
      </trkpt>
      <trkpt lat="46.222188100218773" lon="8.246479192748666">
        <ele>1186.8800000000001</ele>
        <time>2013-04-07T14:10:24Z</time>
      </trkpt>
      <trkpt lat="46.222193716093898" lon="8.246359247714281">
        <ele>1185.9200000000001</ele>
        <time>2013-04-07T14:10:31Z</time>
      </trkpt>
      <trkpt lat="46.222184244543314" lon="8.246093709021807">
        <ele>1184.96</ele>
        <time>2013-04-07T14:10:46Z</time>
      </trkpt>
      <trkpt lat="46.222205366939306" lon="8.245970327407122">
        <ele>1183.04</ele>
        <time>2013-04-07T14:10:54Z</time>
      </trkpt>
      <trkpt lat="46.222216850146651" lon="8.245938140898943">
        <ele>1183.04</ele>
        <time>2013-04-07T14:10:56Z</time>
      </trkpt>
      <trkpt lat="46.222202684730291" lon="8.245831690728664">
        <ele>1182.5599999999999</ele>
        <time>2013-04-07T14:11:04Z</time>
      </trkpt>
      <trkpt lat="46.222102604806423" lon="8.24565164744854">
        <ele>1180.6400000000001</ele>
        <time>2013-04-07T14:11:17Z</time>
      </trkpt>
      <trkpt lat="46.222048290073872" lon="8.245460540056229">
        <ele>1178.71</ele>
        <time>2013-04-07T14:11:29Z</time>
      </trkpt>
      <trkpt lat="46.222016103565693" lon="8.245146218687296">
        <ele>1175.8299999999999</ele>
        <time>2013-04-07T14:11:46Z</time>
      </trkpt>
      <trkpt lat="46.222001519054174" lon="8.245013616979122">
        <ele>1175.3499999999999</ele>
        <time>2013-04-07T14:11:54Z</time>
      </trkpt>
      <trkpt lat="46.221986599266529" lon="8.244803650304675">
        <ele>1174.8699999999999</ele>
        <time>2013-04-07T14:12:05Z</time>
      </trkpt>
      <trkpt lat="46.221982492133975" lon="8.244557725265622">
        <ele>1173.4300000000001</ele>
        <time>2013-04-07T14:12:19Z</time>
      </trkpt>
      <trkpt lat="46.221998920664191" lon="8.244274584576488">
        <ele>1171.02</ele>
        <time>2013-04-07T14:12:35Z</time>
      </trkpt>
      <trkpt lat="46.222008895128965" lon="8.244009548798204">
        <ele>1170.0599999999999</ele>
        <time>2013-04-07T14:12:50Z</time>
      </trkpt>
      <trkpt lat="46.221967823803425" lon="8.243704196065664">
        <ele>1169.5799999999999</ele>
        <time>2013-04-07T14:13:08Z</time>
      </trkpt>
      <trkpt lat="46.22196807526052" lon="8.243395071476698">
        <ele>1167.6600000000001</ele>
        <time>2013-04-07T14:13:25Z</time>
      </trkpt>
      <trkpt lat="46.221972769126296" lon="8.243346204981208">
        <ele>1166.7</ele>
        <time>2013-04-07T14:13:28Z</time>
      </trkpt>
      <trkpt lat="46.221971595659852" lon="8.243241934105754">
        <ele>1165.74</ele>
        <time>2013-04-07T14:13:34Z</time>
      </trkpt>
      <trkpt lat="46.221980731934309" lon="8.243209915235639">
        <ele>1166.22</ele>
        <time>2013-04-07T14:13:36Z</time>
      </trkpt>
      <trkpt lat="46.22202817350626" lon="8.242866843938828">
        <ele>1163.3299999999999</ele>
        <time>2013-04-07T14:13:55Z</time>
      </trkpt>
      <trkpt lat="46.222046026960015" lon="8.24268420226872">
        <ele>1160.45</ele>
        <time>2013-04-07T14:14:05Z</time>
      </trkpt>
      <trkpt lat="46.222067065536976" lon="8.242507847025991">
        <ele>1158.53</ele>
        <time>2013-04-07T14:14:15Z</time>
      </trkpt>
      <trkpt lat="46.222105035558343" lon="8.242211965844035">
        <ele>1157.0799999999999</ele>
        <time>2013-04-07T14:14:32Z</time>
      </trkpt>
      <trkpt lat="46.222134036943316" lon="8.241958161816001">
        <ele>1155.1600000000001</ele>
        <time>2013-04-07T14:14:48Z</time>
      </trkpt>
      <trkpt lat="46.222152896225452" lon="8.241780633106828">
        <ele>1153.72</ele>
        <time>2013-04-07T14:14:58Z</time>
      </trkpt>
      <trkpt lat="46.222173934802413" lon="8.241704357787967">
        <ele>1153.24</ele>
        <time>2013-04-07T14:15:03Z</time>
      </trkpt>
      <trkpt lat="46.222177539020777" lon="8.241666555404663">
        <ele>1153.24</ele>
        <time>2013-04-07T14:15:05Z</time>
      </trkpt>
      <trkpt lat="46.222204947844148" lon="8.241381319239736">
        <ele>1150.8399999999999</ele>
        <time>2013-04-07T14:15:22Z</time>
      </trkpt>
      <trkpt lat="46.22223193757236" lon="8.241069931536913">
        <ele>1148.9100000000001</ele>
        <time>2013-04-07T14:15:40Z</time>
      </trkpt>
      <trkpt lat="46.222250545397401" lon="8.240821911022067">
        <ele>1146.03</ele>
        <time>2013-04-07T14:15:54Z</time>
      </trkpt>
      <trkpt lat="46.222261777147651" lon="8.240610184147954">
        <ele>1144.5899999999999</ele>
        <time>2013-04-07T14:16:05Z</time>
      </trkpt>
      <trkpt lat="46.222294801846147" lon="8.240324109792709">
        <ele>1142.1800000000001</ele>
        <time>2013-04-07T14:16:21Z</time>
      </trkpt>
      <trkpt lat="46.222340986132622" lon="8.240110874176025">
        <ele>1139.78</ele>
        <time>2013-04-07T14:16:35Z</time>
      </trkpt>
      <trkpt lat="46.222394546493888" lon="8.239920269697905">
        <ele>1138.8199999999999</ele>
        <time>2013-04-07T14:16:51Z</time>
      </trkpt>
      <trkpt lat="46.22236386872828" lon="8.239882718771696">
        <ele>1138.8199999999999</ele>
        <time>2013-04-07T14:17:06Z</time>
      </trkpt>
      <trkpt lat="46.222361940890551" lon="8.239807197824121">
        <ele>1137.3800000000001</ele>
        <time>2013-04-07T14:17:11Z</time>
      </trkpt>
      <trkpt lat="46.222426816821098" lon="8.239597231149674">
        <ele>1134.97</ele>
        <time>2013-04-07T14:17:25Z</time>
      </trkpt>
      <trkpt lat="46.222441652789712" lon="8.23951450176537">
        <ele>1134.97</ele>
        <time>2013-04-07T14:17:30Z</time>
      </trkpt>
      <trkpt lat="46.222482388839126" lon="8.239385420456529">
        <ele>1135.45</ele>
        <time>2013-04-07T14:17:42Z</time>
      </trkpt>
      <trkpt lat="46.222528489306569" lon="8.239268409088254">
        <ele>1134.01</ele>
        <time>2013-04-07T14:17:54Z</time>
      </trkpt>
      <trkpt lat="46.222598729655147" lon="8.239098004996777">
        <ele>1134.49</ele>
        <time>2013-04-07T14:18:06Z</time>
      </trkpt>
      <trkpt lat="46.222652876749635" lon="8.238802794367075">
        <ele>1133.53</ele>
        <time>2013-04-07T14:18:24Z</time>
      </trkpt>
      <trkpt lat="46.222767373546958" lon="8.238574219867587">
        <ele>1133.05</ele>
        <time>2013-04-07T14:18:39Z</time>
      </trkpt>
      <trkpt lat="46.222861837595701" lon="8.238367522135377">
        <ele>1133.05</ele>
        <time>2013-04-07T14:18:55Z</time>
      </trkpt>
      <trkpt lat="46.222948925569654" lon="8.238140624016523">
        <ele>1132.5699999999999</ele>
        <time>2013-04-07T14:19:11Z</time>
      </trkpt>
      <trkpt lat="46.22303232550621" lon="8.237883718684316">
        <ele>1133.05</ele>
        <time>2013-04-07T14:19:28Z</time>
      </trkpt>
      <trkpt lat="46.22310264967382" lon="8.237691605463624">
        <ele>1132.5699999999999</ele>
        <time>2013-04-07T14:19:42Z</time>
      </trkpt>
      <trkpt lat="46.223164927214384" lon="8.237492199987173">
        <ele>1133.05</ele>
        <time>2013-04-07T14:19:56Z</time>
      </trkpt>
      <trkpt lat="46.22323801741004" lon="8.237282652407885">
        <ele>1133.53</ele>
        <time>2013-04-07T14:20:10Z</time>
      </trkpt>
      <trkpt lat="46.223258972167969" lon="8.237247867509723">
        <ele>1134.01</ele>
        <time>2013-04-07T14:20:13Z</time>
      </trkpt>
      <trkpt lat="46.223325189203024" lon="8.237077798694372">
        <ele>1133.53</ele>
        <time>2013-04-07T14:20:25Z</time>
      </trkpt>
      <trkpt lat="46.223329044878483" lon="8.237052736803889">
        <ele>1134.01</ele>
        <time>2013-04-07T14:20:27Z</time>
      </trkpt>
      <trkpt lat="46.223393585532904" lon="8.236810164526105">
        <ele>1134.49</ele>
        <time>2013-04-07T14:20:43Z</time>
      </trkpt>
      <trkpt lat="46.223518643528223" lon="8.236633222550154">
        <ele>1134.97</ele>
        <time>2013-04-07T14:20:59Z</time>
      </trkpt>
      <trkpt lat="46.223553931340575" lon="8.236589469015598">
        <ele>1135.45</ele>
        <time>2013-04-07T14:21:03Z</time>
      </trkpt>
      <trkpt lat="46.223569521680474" lon="8.236566334962845">
        <ele>1135.45</ele>
        <time>2013-04-07T14:21:05Z</time>
      </trkpt>
      <trkpt lat="46.223588632419705" lon="8.236545296385884">
        <ele>1136.4200000000001</ele>
        <time>2013-04-07T14:21:07Z</time>
      </trkpt>
      <trkpt lat="46.223631883040071" lon="8.236500201746821">
        <ele>1134.97</ele>
        <time>2013-04-07T14:21:12Z</time>
      </trkpt>
      <trkpt lat="46.223647892475128" lon="8.236476145684719">
        <ele>1134.97</ele>
        <time>2013-04-07T14:21:14Z</time>
      </trkpt>
      <trkpt lat="46.223748810589314" lon="8.236327199265361">
        <ele>1137.3800000000001</ele>
        <time>2013-04-07T14:21:28Z</time>
      </trkpt>
      <trkpt lat="46.223794324323535" lon="8.236231058835983">
        <ele>1138.3399999999999</ele>
        <time>2013-04-07T14:21:36Z</time>
      </trkpt>
      <trkpt lat="46.223861128091812" lon="8.236024612560868">
        <ele>1138.3399999999999</ele>
        <time>2013-04-07T14:21:51Z</time>
      </trkpt>
      <trkpt lat="46.22391720302403" lon="8.235864769667387">
        <ele>1139.78</ele>
        <time>2013-04-07T14:22:03Z</time>
      </trkpt>
      <trkpt lat="46.22394016943872" lon="8.235823782160878">
        <ele>1139.3</ele>
        <time>2013-04-07T14:22:06Z</time>
      </trkpt>
      <trkpt lat="46.223986856639385" lon="8.235775418579578">
        <ele>1138.8199999999999</ele>
        <time>2013-04-07T14:22:11Z</time>
      </trkpt>
      <trkpt lat="46.224132031202316" lon="8.235600907355547">
        <ele>1137.8599999999999</ele>
        <time>2013-04-07T14:22:28Z</time>
      </trkpt>
      <trkpt lat="46.224232530221343" lon="8.235485572367907">
        <ele>1139.3</ele>
        <time>2013-04-07T14:22:40Z</time>
      </trkpt>
      <trkpt lat="46.224384997040033" lon="8.23533721268177">
        <ele>1139.3</ele>
        <time>2013-04-07T14:22:57Z</time>
      </trkpt>
      <trkpt lat="46.224548360332847" lon="8.235185751691461">
        <ele>1139.78</ele>
        <time>2013-04-07T14:23:14Z</time>
      </trkpt>
      <trkpt lat="46.224645590409636" lon="8.235025741159916">
        <ele>1140.26</ele>
        <time>2013-04-07T14:23:28Z</time>
      </trkpt>
      <trkpt lat="46.224760338664055" lon="8.234833627939224">
        <ele>1140.26</ele>
        <time>2013-04-07T14:23:44Z</time>
      </trkpt>
      <trkpt lat="46.224885899573565" lon="8.234766991809011">
        <ele>1141.22</ele>
        <time>2013-04-07T14:23:57Z</time>
      </trkpt>
      <trkpt lat="46.225075079128146" lon="8.234738577157259">
        <ele>1141.22</ele>
        <time>2013-04-07T14:24:14Z</time>
      </trkpt>
      <trkpt lat="46.225277250632644" lon="8.234728602692485">
        <ele>1139.78</ele>
        <time>2013-04-07T14:24:32Z</time>
      </trkpt>
      <trkpt lat="46.225375905632973" lon="8.234688118100166">
        <ele>1140.26</ele>
        <time>2013-04-07T14:24:43Z</time>
      </trkpt>
      <trkpt lat="46.225421084091067" lon="8.234670599922538">
        <ele>1140.26</ele>
        <time>2013-04-07T14:24:47Z</time>
      </trkpt>
      <trkpt lat="46.225523930042982" lon="8.234657943248749">
        <ele>1140.26</ele>
        <time>2013-04-07T14:24:56Z</time>
      </trkpt>
      <trkpt lat="46.225723838433623" lon="8.234604885801673">
        <ele>1139.3</ele>
        <time>2013-04-07T14:25:12Z</time>
      </trkpt>
      <trkpt lat="46.225897679105401" lon="8.23446792550385">
        <ele>1139.78</ele>
        <time>2013-04-07T14:25:29Z</time>
      </trkpt>
      <trkpt lat="46.225973283872008" lon="8.234269190579653">
        <ele>1140.26</ele>
        <time>2013-04-07T14:25:45Z</time>
      </trkpt>
      <trkpt lat="46.225963393226266" lon="8.234224766492844">
        <ele>1139.78</ele>
        <time>2013-04-07T14:25:54Z</time>
      </trkpt>
      <trkpt lat="46.225957609713078" lon="8.234193669632077">
        <ele>1139.78</ele>
        <time>2013-04-07T14:25:57Z</time>
      </trkpt>
      <trkpt lat="46.225936403498054" lon="8.234106665477157">
        <ele>1138.8199999999999</ele>
        <time>2013-04-07T14:26:05Z</time>
      </trkpt>
      <trkpt lat="46.225863229483366" lon="8.233977500349283">
        <ele>1137.8599999999999</ele>
        <time>2013-04-07T14:26:18Z</time>
      </trkpt>
      <trkpt lat="46.22581503354013" lon="8.233647337183356">
        <ele>1134.97</ele>
        <time>2013-04-07T14:26:36Z</time>
      </trkpt>
      <trkpt lat="46.225867671892047" lon="8.23335874825716">
        <ele>1132.5699999999999</ele>
        <time>2013-04-07T14:26:53Z</time>
      </trkpt>
      <trkpt lat="46.22585367411375" lon="8.233205275610089">
        <ele>1131.6099999999999</ele>
        <time>2013-04-07T14:27:03Z</time>
      </trkpt>
      <trkpt lat="46.225813440978527" lon="8.233060101047158">
        <ele>1130.6500000000001</ele>
        <time>2013-04-07T14:27:18Z</time>
      </trkpt>
      <trkpt lat="46.225788379088044" lon="8.233001930639148">
        <ele>1130.1700000000001</ele>
        <time>2013-04-07T14:27:23Z</time>
      </trkpt>
      <trkpt lat="46.225718976929784" lon="8.232869161292911">
        <ele>1129.6900000000001</ele>
        <time>2013-04-07T14:27:36Z</time>
      </trkpt>
      <trkpt lat="46.225706236436963" lon="8.232863377779722">
        <ele>1129.6900000000001</ele>
        <time>2013-04-07T14:27:41Z</time>
      </trkpt>
      <trkpt lat="46.225677486509085" lon="8.232815098017454">
        <ele>1129.6900000000001</ele>
        <time>2013-04-07T14:27:45Z</time>
      </trkpt>
      <trkpt lat="46.225660219788551" lon="8.232758939266205">
        <ele>1129.21</ele>
        <time>2013-04-07T14:27:48Z</time>
      </trkpt>
      <trkpt lat="46.225631050765514" lon="8.232708899304271">
        <ele>1129.21</ele>
        <time>2013-04-07T14:27:51Z</time>
      </trkpt>
      <trkpt lat="46.225513620302081" lon="8.232402205467224">
        <ele>1128.24</ele>
        <time>2013-04-07T14:28:09Z</time>
      </trkpt>
      <trkpt lat="46.225508842617273" lon="8.232373036444187">
        <ele>1127.76</ele>
        <time>2013-04-07T14:28:11Z</time>
      </trkpt>
      <trkpt lat="46.225504903122783" lon="8.23234043084085">
        <ele>1128.73</ele>
        <time>2013-04-07T14:28:13Z</time>
      </trkpt>
      <trkpt lat="46.225500963628292" lon="8.232303550466895">
        <ele>1130.1700000000001</ele>
        <time>2013-04-07T14:28:15Z</time>
      </trkpt>
      <trkpt lat="46.225486798211932" lon="8.232210259884596">
        <ele>1127.28</ele>
        <time>2013-04-07T14:28:20Z</time>
      </trkpt>
      <trkpt lat="46.225484702736139" lon="8.232195004820824">
        <ele>1127.28</ele>
        <time>2013-04-07T14:28:21Z</time>
      </trkpt>
      <trkpt lat="46.225479086861014" lon="8.232000963762403">
        <ele>1126.8</ele>
        <time>2013-04-07T14:28:36Z</time>
      </trkpt>
      <trkpt lat="46.225482858717442" lon="8.231903649866581">
        <ele>1125.8399999999999</ele>
        <time>2013-04-07T14:28:49Z</time>
      </trkpt>
      <trkpt lat="46.225522002205253" lon="8.231831984594464">
        <ele>1125.3599999999999</ele>
        <time>2013-04-07T14:28:55Z</time>
      </trkpt>
      <trkpt lat="46.225596852600574" lon="8.231845563277602">
        <ele>1124.8800000000001</ele>
        <time>2013-04-07T14:29:04Z</time>
      </trkpt>
      <trkpt lat="46.225731382146478" lon="8.231953019276261">
        <ele>1123.9200000000001</ele>
        <time>2013-04-07T14:29:19Z</time>
      </trkpt>
      <trkpt lat="46.225866246968508" lon="8.23199300095439">
        <ele>1122.96</ele>
        <time>2013-04-07T14:29:33Z</time>
      </trkpt>
      <trkpt lat="46.226018546149135" lon="8.231883114203811">
        <ele>1121.03</ele>
        <time>2013-04-07T14:29:48Z</time>
      </trkpt>
      <trkpt lat="46.226095911115408" lon="8.231728468090296">
        <ele>1119.5899999999999</ele>
        <time>2013-04-07T14:29:59Z</time>
      </trkpt>
      <trkpt lat="46.226115273311734" lon="8.23169007897377">
        <ele>1119.5899999999999</ele>
        <time>2013-04-07T14:30:02Z</time>
      </trkpt>
      <trkpt lat="46.226137988269329" lon="8.231587484478951">
        <ele>1118.6300000000001</ele>
        <time>2013-04-07T14:30:09Z</time>
      </trkpt>
      <trkpt lat="46.226095575839281" lon="8.231390761211515">
        <ele>1116.71</ele>
        <time>2013-04-07T14:30:24Z</time>
      </trkpt>
      <trkpt lat="46.226007314398885" lon="8.23119361884892">
        <ele>1114.3099999999999</ele>
        <time>2013-04-07T14:30:39Z</time>
      </trkpt>
      <trkpt lat="46.225945204496384" lon="8.230984238907695">
        <ele>1113.3399999999999</ele>
        <time>2013-04-07T14:30:53Z</time>
      </trkpt>
      <trkpt lat="46.225954759865999" lon="8.230746779590845">
        <ele>1111.9000000000001</ele>
        <time>2013-04-07T14:31:08Z</time>
      </trkpt>
      <trkpt lat="46.225964818149805" lon="8.2305574323982">
        <ele>1110.9400000000001</ele>
        <time>2013-04-07T14:31:20Z</time>
      </trkpt>
      <trkpt lat="46.225930284708738" lon="8.230292899534106">
        <ele>1107.5799999999999</ele>
        <time>2013-04-07T14:31:37Z</time>
      </trkpt>
      <trkpt lat="46.225900026038289" lon="8.230137079954147">
        <ele>1107.0999999999999</ele>
        <time>2013-04-07T14:31:48Z</time>
      </trkpt>
      <trkpt lat="46.225882507860661" lon="8.229898028075695">
        <ele>1105.1700000000001</ele>
        <time>2013-04-07T14:32:01Z</time>
      </trkpt>
      <trkpt lat="46.225895080715418" lon="8.22968521155417">
        <ele>1103.73</ele>
        <time>2013-04-07T14:32:15Z</time>
      </trkpt>
      <trkpt lat="46.225911844521761" lon="8.229499887675047">
        <ele>1101.3299999999999</ele>
        <time>2013-04-07T14:32:27Z</time>
      </trkpt>
      <trkpt lat="46.22594696469605" lon="8.229309031739831">
        <ele>1099.8900000000001</ele>
        <time>2013-04-07T14:32:40Z</time>
      </trkpt>
      <trkpt lat="46.225960040464997" lon="8.229266200214624">
        <ele>1099.4000000000001</ele>
        <time>2013-04-07T14:32:43Z</time>
      </trkpt>
      <trkpt lat="46.225971188396215" lon="8.229238288477063">
        <ele>1098.4400000000001</ele>
        <time>2013-04-07T14:32:45Z</time>
      </trkpt>
      <trkpt lat="46.226011505350471" lon="8.229042822495103">
        <ele>1097</ele>
        <time>2013-04-07T14:32:59Z</time>
      </trkpt>
      <trkpt lat="46.226038997992873" lon="8.22893955744803">
        <ele>1095.5599999999999</ele>
        <time>2013-04-07T14:33:05Z</time>
      </trkpt>
      <trkpt lat="46.22608426027" lon="8.228692542761564">
        <ele>1093.6400000000001</ele>
        <time>2013-04-07T14:33:21Z</time>
      </trkpt>
      <trkpt lat="46.226093480363488" lon="8.228668821975589">
        <ele>1093.6400000000001</ele>
        <time>2013-04-07T14:33:23Z</time>
      </trkpt>
      <trkpt lat="46.226146202534437" lon="8.228493137285113">
        <ele>1091.23</ele>
        <time>2013-04-07T14:33:35Z</time>
      </trkpt>
      <trkpt lat="46.226183585822582" lon="8.228395991027355">
        <ele>1090.75</ele>
        <time>2013-04-07T14:33:42Z</time>
      </trkpt>
      <trkpt lat="46.226210743188858" lon="8.22833564132452">
        <ele>1089.79</ele>
        <time>2013-04-07T14:33:47Z</time>
      </trkpt>
      <trkpt lat="46.226162714883685" lon="8.228330444544554">
        <ele>1088.3499999999999</ele>
        <time>2013-04-07T14:33:58Z</time>
      </trkpt>
      <trkpt lat="46.226073950529099" lon="8.228510655462742">
        <ele>1085.95</ele>
        <time>2013-04-07T14:34:14Z</time>
      </trkpt>
      <trkpt lat="46.226059533655643" lon="8.228530269116163">
        <ele>1085.95</ele>
        <time>2013-04-07T14:34:16Z</time>
      </trkpt>
      <trkpt lat="46.226018462330103" lon="8.228604951873422">
        <ele>1085.95</ele>
        <time>2013-04-07T14:34:22Z</time>
      </trkpt>
      <trkpt lat="46.225892063230276" lon="8.228784995153546">
        <ele>1083.54</ele>
        <time>2013-04-07T14:34:38Z</time>
      </trkpt>
      <trkpt lat="46.225840598344803" lon="8.22885112836957">
        <ele>1082.0999999999999</ele>
        <time>2013-04-07T14:34:45Z</time>
      </trkpt>
      <trkpt lat="46.225744877010584" lon="8.229001834988594">
        <ele>1080.6600000000001</ele>
        <time>2013-04-07T14:35:00Z</time>
      </trkpt>
      <trkpt lat="46.22572467662394" lon="8.229072242975235">
        <ele>1079.22</ele>
        <time>2013-04-07T14:35:06Z</time>
      </trkpt>
      <trkpt lat="46.225705482065678" lon="8.229132760316134">
        <ele>1079.22</ele>
        <time>2013-04-07T14:35:11Z</time>
      </trkpt>
      <trkpt lat="46.225627781823277" lon="8.229365609586239">
        <ele>1077.29</ele>
        <time>2013-04-07T14:35:26Z</time>
      </trkpt>
      <trkpt lat="46.225602049380541" lon="8.229453451931477">
        <ele>1076.3299999999999</ele>
        <time>2013-04-07T14:35:31Z</time>
      </trkpt>
      <trkpt lat="46.225566761568189" lon="8.229564260691404">
        <ele>1075.8499999999999</ele>
        <time>2013-04-07T14:35:39Z</time>
      </trkpt>
      <trkpt lat="46.225527198985219" lon="8.229668196290731">
        <ele>1074.8900000000001</ele>
        <time>2013-04-07T14:35:47Z</time>
      </trkpt>
      <trkpt lat="46.22552233748138" lon="8.229692587628961">
        <ele>1074.8900000000001</ele>
        <time>2013-04-07T14:35:49Z</time>
      </trkpt>
      <trkpt lat="46.225511273369193" lon="8.229727204889059">
        <ele>1074.8900000000001</ele>
        <time>2013-04-07T14:35:52Z</time>
      </trkpt>
      <trkpt lat="46.225475817918777" lon="8.229803061112762">
        <ele>1074.4100000000001</ele>
        <time>2013-04-07T14:35:59Z</time>
      </trkpt>
      <trkpt lat="46.225456539541483" lon="8.229912612587214">
        <ele>1072.49</ele>
        <time>2013-04-07T14:36:07Z</time>
      </trkpt>
      <trkpt lat="46.225420832633972" lon="8.230109252035618">
        <ele>1071.53</ele>
        <time>2013-04-07T14:36:19Z</time>
      </trkpt>
      <trkpt lat="46.225381689146161" lon="8.230217210948467">
        <ele>1070.5699999999999</ele>
        <time>2013-04-07T14:36:27Z</time>
      </trkpt>
      <trkpt lat="46.225364254787564" lon="8.23025937192142">
        <ele>1070.0799999999999</ele>
        <time>2013-04-07T14:36:31Z</time>
      </trkpt>
      <trkpt lat="46.225230814889073" lon="8.230352578684688">
        <ele>1066.72</ele>
        <time>2013-04-07T14:36:43Z</time>
      </trkpt>
      <trkpt lat="46.225081952288747" lon="8.230380574241281">
        <ele>1063.8399999999999</ele>
        <time>2013-04-07T14:36:58Z</time>
      </trkpt>
      <trkpt lat="46.224945746362209" lon="8.230402451008558">
        <ele>1060.47</ele>
        <time>2013-04-07T14:37:12Z</time>
      </trkpt>
      <trkpt lat="46.224819431081414" lon="8.2304313685745">
        <ele>1057.5899999999999</ele>
        <time>2013-04-07T14:37:27Z</time>
      </trkpt>
      <trkpt lat="46.224722703918815" lon="8.230366660282016">
        <ele>1054.7</ele>
        <time>2013-04-07T14:37:41Z</time>
      </trkpt>
      <trkpt lat="46.224755477160215" lon="8.230242691934109">
        <ele>1053.26</ele>
        <time>2013-04-07T14:37:51Z</time>
      </trkpt>
      <trkpt lat="46.224871734157205" lon="8.230106737464666">
        <ele>1049.9000000000001</ele>
        <time>2013-04-07T14:38:06Z</time>
      </trkpt>
      <trkpt lat="46.224959325045347" lon="8.229981260374188">
        <ele>1047.49</ele>
        <time>2013-04-07T14:38:20Z</time>
      </trkpt>
      <trkpt lat="46.224959911778569" lon="8.2299720402807">
        <ele>1047.01</ele>
        <time>2013-04-07T14:38:21Z</time>
      </trkpt>
      <trkpt lat="46.224981034174562" lon="8.229913283139467">
        <ele>1047.01</ele>
        <time>2013-04-07T14:38:26Z</time>
      </trkpt>
      <trkpt lat="46.22501615434885" lon="8.229863494634628">
        <ele>1047.01</ele>
        <time>2013-04-07T14:38:30Z</time>
      </trkpt>
      <trkpt lat="46.225070720538497" lon="8.229689486324787">
        <ele>1046.53</ele>
        <time>2013-04-07T14:38:43Z</time>
      </trkpt>
      <trkpt lat="46.22513928450644" lon="8.229420259594917">
        <ele>1046.53</ele>
        <time>2013-04-07T14:39:00Z</time>
      </trkpt>
      <trkpt lat="46.22514414601028" lon="8.229409530758858">
        <ele>1046.53</ele>
        <time>2013-04-07T14:39:01Z</time>
      </trkpt>
      <trkpt lat="46.225181864574552" lon="8.229141812771559">
        <ele>1045.0899999999999</ele>
        <time>2013-04-07T14:39:17Z</time>
      </trkpt>
      <trkpt lat="46.225198125466704" lon="8.229095293208957">
        <ele>1044.6099999999999</ele>
        <time>2013-04-07T14:39:21Z</time>
      </trkpt>
      <trkpt lat="46.225208099931479" lon="8.22896059602499">
        <ele>1043.6500000000001</ele>
        <time>2013-04-07T14:39:31Z</time>
      </trkpt>
      <trkpt lat="46.225196532905102" lon="8.228742917999625">
        <ele>1042.21</ele>
        <time>2013-04-07T14:39:44Z</time>
      </trkpt>
      <trkpt lat="46.225160909816623" lon="8.22853596881032">
        <ele>1042.6900000000001</ele>
        <time>2013-04-07T14:39:57Z</time>
      </trkpt>
      <trkpt lat="46.225107936188579" lon="8.228338491171598">
        <ele>1041.73</ele>
        <time>2013-04-07T14:40:10Z</time>
      </trkpt>
      <trkpt lat="46.225163424387574" lon="8.228135732933879">
        <ele>1039.8</ele>
        <time>2013-04-07T14:40:23Z</time>
      </trkpt>
      <trkpt lat="46.225240202620625" lon="8.227948816493154">
        <ele>1036.9200000000001</ele>
        <time>2013-04-07T14:40:36Z</time>
      </trkpt>
      <trkpt lat="46.225259229540825" lon="8.227899530902505">
        <ele>1035.96</ele>
        <time>2013-04-07T14:40:40Z</time>
      </trkpt>
      <trkpt lat="46.225353442132473" lon="8.22769844904542">
        <ele>1034.52</ele>
        <time>2013-04-07T14:40:56Z</time>
      </trkpt>
      <trkpt lat="46.225403817370534" lon="8.22758998721838">
        <ele>1032.5899999999999</ele>
        <time>2013-04-07T14:41:05Z</time>
      </trkpt>
      <trkpt lat="46.225449834018946" lon="8.227486973628402">
        <ele>1031.6300000000001</ele>
        <time>2013-04-07T14:41:13Z</time>
      </trkpt>
      <trkpt lat="46.225507836788893" lon="8.227294273674488">
        <ele>1028.75</ele>
        <time>2013-04-07T14:41:27Z</time>
      </trkpt>
      <trkpt lat="46.22551797889173" lon="8.227141471579671">
        <ele>1026.8299999999999</ele>
        <time>2013-04-07T14:41:38Z</time>
      </trkpt>
      <trkpt lat="46.225540190935135" lon="8.227036027237773">
        <ele>1025.3800000000001</ele>
        <time>2013-04-07T14:41:47Z</time>
      </trkpt>
      <trkpt lat="46.225573215633631" lon="8.226973582059145">
        <ele>1024.9000000000001</ele>
        <time>2013-04-07T14:41:52Z</time>
      </trkpt>
      <trkpt lat="46.22564060613513" lon="8.226841315627098">
        <ele>1023.46</ele>
        <time>2013-04-07T14:42:01Z</time>
      </trkpt>
      <trkpt lat="46.225738925859332" lon="8.226652722805738">
        <ele>1022.02</ele>
        <time>2013-04-07T14:42:14Z</time>
      </trkpt>
      <trkpt lat="46.225750576704741" lon="8.226641993969679">
        <ele>1022.02</ele>
        <time>2013-04-07T14:42:15Z</time>
      </trkpt>
      <trkpt lat="46.22588787227869" lon="8.22651500813663">
        <ele>1022.02</ele>
        <time>2013-04-07T14:42:29Z</time>
      </trkpt>
      <trkpt lat="46.225893991068006" lon="8.22650377638638">
        <ele>1022.5</ele>
        <time>2013-04-07T14:42:30Z</time>
      </trkpt>
      <trkpt lat="46.225934056565166" lon="8.226365726441145">
        <ele>1023.46</ele>
        <time>2013-04-07T14:42:39Z</time>
      </trkpt>
      <trkpt lat="46.225950317457318" lon="8.226271597668529">
        <ele>1023.9400000000001</ele>
        <time>2013-04-07T14:42:45Z</time>
      </trkpt>
      <trkpt lat="46.226020054891706" lon="8.226132290437818">
        <ele>1025.3800000000001</ele>
        <time>2013-04-07T14:42:56Z</time>
      </trkpt>
      <trkpt lat="46.226033717393875" lon="8.226101696491242">
        <ele>1025.8599999999999</ele>
        <time>2013-04-07T14:42:58Z</time>
      </trkpt>
      <trkpt lat="46.22611602768302" lon="8.226060625165701">
        <ele>1026.8299999999999</ele>
        <time>2013-04-07T14:43:06Z</time>
      </trkpt>
      <trkpt lat="46.226168163120747" lon="8.226037323474884">
        <ele>1027.3099999999999</ele>
        <time>2013-04-07T14:43:11Z</time>
      </trkpt>
      <trkpt lat="46.226213090121746" lon="8.225996671244502">
        <ele>1027.79</ele>
        <time>2013-04-07T14:43:15Z</time>
      </trkpt>
      <trkpt lat="46.226248377934098" lon="8.225891813635826">
        <ele>1028.27</ele>
        <time>2013-04-07T14:43:23Z</time>
      </trkpt>
      <trkpt lat="46.226245947182178" lon="8.225785447284579">
        <ele>1027.79</ele>
        <time>2013-04-07T14:43:34Z</time>
      </trkpt>
      <trkpt lat="46.226255754008889" lon="8.225736999884248">
        <ele>1027.3099999999999</ele>
        <time>2013-04-07T14:43:46Z</time>
      </trkpt>
      <trkpt lat="46.22626069933176" lon="8.225711518898606">
        <ele>1027.79</ele>
        <time>2013-04-07T14:43:56Z</time>
      </trkpt>
      <trkpt lat="46.226258352398872" lon="8.225659467279911">
        <ele>1027.3099999999999</ele>
        <time>2013-04-07T14:43:59Z</time>
      </trkpt>
      <trkpt lat="46.226307721808553" lon="8.225508257746697">
        <ele>1025.3800000000001</ele>
        <time>2013-04-07T14:44:10Z</time>
      </trkpt>
      <trkpt lat="46.22635206207633" lon="8.225345145910978">
        <ele>1024.9000000000001</ele>
        <time>2013-04-07T14:44:20Z</time>
      </trkpt>
      <trkpt lat="46.226341333240271" lon="8.225176250562072">
        <ele>1023.46</ele>
        <time>2013-04-07T14:44:30Z</time>
      </trkpt>
      <trkpt lat="46.226351307705045" lon="8.225068459287286">
        <ele>1022.98</ele>
        <time>2013-04-07T14:44:37Z</time>
      </trkpt>
      <trkpt lat="46.226375196129084" lon="8.224922195076942">
        <ele>1021.0599999999999</ele>
        <time>2013-04-07T14:44:47Z</time>
      </trkpt>
      <trkpt lat="46.226359270513058" lon="8.224827647209168">
        <ele>1019.62</ele>
        <time>2013-04-07T14:44:53Z</time>
      </trkpt>
      <trkpt lat="46.226370418444276" lon="8.224766878411174">
        <ele>1019.13</ele>
        <time>2013-04-07T14:44:57Z</time>
      </trkpt>
      <trkpt lat="46.226434791460633" lon="8.224636455997825">
        <ele>1018.17</ele>
        <time>2013-04-07T14:45:06Z</time>
      </trkpt>
      <trkpt lat="46.22650595381856" lon="8.224528413265944">
        <ele>1018.17</ele>
        <time>2013-04-07T14:45:14Z</time>
      </trkpt>
      <trkpt lat="46.22661005705595" lon="8.224282152950764">
        <ele>1018.17</ele>
        <time>2013-04-07T14:45:31Z</time>
      </trkpt>
      <trkpt lat="46.226646937429905" lon="8.224213672801852">
        <ele>1017.21</ele>
        <time>2013-04-07T14:45:36Z</time>
      </trkpt>
      <trkpt lat="46.226688846945763" lon="8.224086351692677">
        <ele>1016.25</ele>
        <time>2013-04-07T14:45:44Z</time>
      </trkpt>
      <trkpt lat="46.226705443114042" lon="8.224053159356117">
        <ele>1015.77</ele>
        <time>2013-04-07T14:45:47Z</time>
      </trkpt>
      <trkpt lat="46.226724553853273" lon="8.223996581509709">
        <ele>1014.33</ele>
        <time>2013-04-07T14:45:53Z</time>
      </trkpt>
      <trkpt lat="46.226710304617882" lon="8.223997503519058">
        <ele>1014.33</ele>
        <time>2013-04-07T14:45:56Z</time>
      </trkpt>
      <trkpt lat="46.226657079532743" lon="8.224028181284666">
        <ele>1012.41</ele>
        <time>2013-04-07T14:46:02Z</time>
      </trkpt>
      <trkpt lat="46.226588850840926" lon="8.224128847941756">
        <ele>1010.48</ele>
        <time>2013-04-07T14:46:14Z</time>
      </trkpt>
      <trkpt lat="46.226537218317389" lon="8.224168913438916">
        <ele>1009.04</ele>
        <time>2013-04-07T14:46:24Z</time>
      </trkpt>
      <trkpt lat="46.226488016545773" lon="8.22421794757247">
        <ele>1007.6</ele>
        <time>2013-04-07T14:46:30Z</time>
      </trkpt>
      <trkpt lat="46.226445687934756" lon="8.224267736077309">
        <ele>1005.6799999999999</ele>
        <time>2013-04-07T14:46:36Z</time>
      </trkpt>
      <trkpt lat="46.226385924965143" lon="8.224311070516706">
        <ele>1003.75</ele>
        <time>2013-04-07T14:46:42Z</time>
      </trkpt>
      <trkpt lat="46.226344769820571" lon="8.224331522360444">
        <ele>1002.79</ele>
        <time>2013-04-07T14:46:46Z</time>
      </trkpt>
      <trkpt lat="46.226274529471993" lon="8.22446278296411">
        <ele>1000.39</ele>
        <time>2013-04-07T14:46:58Z</time>
      </trkpt>
      <trkpt lat="46.226185681298375" lon="8.224538806825876">
        <ele>997.99000000000001</ele>
        <time>2013-04-07T14:47:11Z</time>
      </trkpt>
      <trkpt lat="46.22613756917417" lon="8.224603347480297">
        <ele>996.05999999999995</ele>
        <time>2013-04-07T14:47:18Z</time>
      </trkpt>
      <trkpt lat="46.226091720163822" lon="8.224601671099663">
        <ele>995.10000000000002</ele>
        <time>2013-04-07T14:47:22Z</time>
      </trkpt>
      <trkpt lat="46.225956939160824" lon="8.224691608920693">
        <ele>992.22000000000003</ele>
        <time>2013-04-07T14:47:35Z</time>
      </trkpt>
      <trkpt lat="46.225950988009572" lon="8.224699907004833">
        <ele>991.74000000000001</ele>
        <time>2013-04-07T14:47:36Z</time>
      </trkpt>
      <trkpt lat="46.225894493982196" lon="8.224766291677952">
        <ele>990.29999999999995</ele>
        <time>2013-04-07T14:47:42Z</time>
      </trkpt>
      <trkpt lat="46.225851578637958" lon="8.224881878122687">
        <ele>988.85000000000002</ele>
        <time>2013-04-07T14:47:51Z</time>
      </trkpt>
      <trkpt lat="46.225833809003234" lon="8.224921943619847">
        <ele>988.37</ele>
        <time>2013-04-07T14:47:54Z</time>
      </trkpt>
      <trkpt lat="46.225728951394558" lon="8.225074745714665">
        <ele>985.97000000000003</ele>
        <time>2013-04-07T14:48:07Z</time>
      </trkpt>
      <trkpt lat="46.22567480430007" lon="8.225176418200135">
        <ele>984.52999999999997</ele>
        <time>2013-04-07T14:48:18Z</time>
      </trkpt>
      <trkpt lat="46.22564597055316" lon="8.225242048501968">
        <ele>984.04999999999995</ele>
        <time>2013-04-07T14:48:23Z</time>
      </trkpt>
      <trkpt lat="46.225639767944813" lon="8.225355539470911">
        <ele>982.12</ele>
        <time>2013-04-07T14:48:32Z</time>
      </trkpt>
      <trkpt lat="46.225557206198573" lon="8.22555729188025">
        <ele>980.67999999999995</ele>
        <time>2013-04-07T14:48:47Z</time>
      </trkpt>
      <trkpt lat="46.225586207583547" lon="8.225707579404116">
        <ele>978.75999999999999</ele>
        <time>2013-04-07T14:49:01Z</time>
      </trkpt>
      <trkpt lat="46.225548656657338" lon="8.225901369005442">
        <ele>975.88</ele>
        <time>2013-04-07T14:49:16Z</time>
      </trkpt>
      <trkpt lat="46.225531306117773" lon="8.225944954901934">
        <ele>975.88</ele>
        <time>2013-04-07T14:49:19Z</time>
      </trkpt>
      <trkpt lat="46.22542267665267" lon="8.226076131686568">
        <ele>972.50999999999999</ele>
        <time>2013-04-07T14:49:35Z</time>
      </trkpt>
      <trkpt lat="46.225402727723122" lon="8.226094907149673">
        <ele>972.50999999999999</ele>
        <time>2013-04-07T14:49:39Z</time>
      </trkpt>
      <trkpt lat="46.225309437140822" lon="8.226112090051174">
        <ele>969.63</ele>
        <time>2013-04-07T14:49:51Z</time>
      </trkpt>
      <trkpt lat="46.225220169872046" lon="8.226016284897924">
        <ele>967.22000000000003</ele>
        <time>2013-04-07T14:50:03Z</time>
      </trkpt>
      <trkpt lat="46.225167447701097" lon="8.225941602140665">
        <ele>965.29999999999995</ele>
        <time>2013-04-07T14:50:13Z</time>
      </trkpt>
      <trkpt lat="46.225159987807274" lon="8.22589248418808">
        <ele>963.86000000000001</ele>
        <time>2013-04-07T14:50:17Z</time>
      </trkpt>
      <trkpt lat="46.225107600912452" lon="8.225853256881237">
        <ele>960.49000000000001</ele>
        <time>2013-04-07T14:50:27Z</time>
      </trkpt>
      <trkpt lat="46.225100392475724" lon="8.225841354578733">
        <ele>960.49000000000001</ele>
        <time>2013-04-07T14:50:28Z</time>
      </trkpt>
      <trkpt lat="46.225111372768879" lon="8.225612444803119">
        <ele>960.00999999999999</ele>
        <time>2013-04-07T14:50:41Z</time>
      </trkpt>
      <trkpt lat="46.225129729136825" lon="8.225619150325656">
        <ele>960.49000000000001</ele>
        <time>2013-04-07T14:50:44Z</time>
      </trkpt>
      <trkpt lat="46.225137608125806" lon="8.225708082318306">
        <ele>960.49000000000001</ele>
        <time>2013-04-07T14:51:00Z</time>
      </trkpt>
      <trkpt lat="46.225131070241332" lon="8.225725516676903">
        <ele>960.00999999999999</ele>
        <time>2013-04-07T14:51:04Z</time>
      </trkpt>
      <trkpt lat="46.225127298384905" lon="8.225723002105951">
        <ele>960.49000000000001</ele>
        <time>2013-04-07T14:51:13Z</time>
      </trkpt>
      <trkpt lat="46.225127633661032" lon="8.225712860003114">
        <ele>960.49000000000001</ele>
        <time>2013-04-07T14:51:27Z</time>
      </trkpt>
    </trkseg>
  </trk>

</gpx>